<?xml version="1.0" encoding="UTF-8" standalone="no" ?>
<gpx xmlns="http://www.topografix.com/GPX/1/1" xmlns:xsi="http://www.w3.org/2001/XMLSchema-instance" xsi:schemaLocation="http://www.topografix.com/GPX/1/1 http://www.topografix.com/GPX/1/1/gpx.xsd" version="1.1" creator="VisuGPX - https://www.visugpx.com">
  <metadata>
    <name>GR20 Refuge d'Asinau- Refuge de Paliri 04/09/18</name>
    <desc><![CDATA[Après une nuit à la bergerie d'Asinau, le temps va changer et nous obliger à ne pas faire les aiguilles de Bavella. Ce sera le seul jour où nous aurons eu de la pluie , et même la seule matinée.... Beaux paysages de rochers qui par leurs formes laissent divaguer l'esprit. Nous opterons pour le restaurant au col de Bavella , qui nous permettra de manger au sec !!! Et nous doublerons l'étape pour arriver au refuge de Paliri distant d'une heure trente environ.]]></desc>
  </metadata>
  <trk>
    <name><![CDATA[2018-09-04 18:09:13]]></name>
    <trkseg>
      <trkpt lat="41.83966" lon="9.2153">
        <ele>1454.62</ele>
        <time>2018-09-04T06:17:35Z</time>
      </trkpt>
      <trkpt lat="41.83967" lon="9.2153">
        <ele>1452.26</ele>
        <time>2018-09-04T06:17:44Z</time>
      </trkpt>
      <trkpt lat="41.83968" lon="9.21528">
        <ele>1455.39</ele>
        <time>2018-09-04T06:17:51Z</time>
      </trkpt>
      <trkpt lat="41.83968" lon="9.21528">
        <ele>1455.39</ele>
        <time>2018-09-04T06:17:52Z</time>
      </trkpt>
      <trkpt lat="41.83967" lon="9.21528">
        <ele>1448.82</ele>
        <time>2018-09-04T06:17:54Z</time>
      </trkpt>
      <trkpt lat="41.83967" lon="9.21529">
        <ele>1456.93</ele>
        <time>2018-09-04T06:17:55Z</time>
      </trkpt>
      <trkpt lat="41.83967" lon="9.21529">
        <ele>1453.12</ele>
        <time>2018-09-04T06:17:56Z</time>
      </trkpt>
      <trkpt lat="41.83967" lon="9.21529">
        <ele>1450.11</ele>
        <time>2018-09-04T06:17:57Z</time>
      </trkpt>
      <trkpt lat="41.83967" lon="9.21529">
        <ele>1467.68</ele>
        <time>2018-09-04T06:17:58Z</time>
      </trkpt>
      <trkpt lat="41.83967" lon="9.21529">
        <ele>1455.15</ele>
        <time>2018-09-04T06:17:59Z</time>
      </trkpt>
      <trkpt lat="41.83967" lon="9.21529">
        <ele>1453.33</ele>
        <time>2018-09-04T06:18:01Z</time>
      </trkpt>
      <trkpt lat="41.83967" lon="9.21529">
        <ele>1451.31</ele>
        <time>2018-09-04T06:18:05Z</time>
      </trkpt>
      <trkpt lat="41.83967" lon="9.2153">
        <ele>1453.59</ele>
        <time>2018-09-04T06:18:10Z</time>
      </trkpt>
      <trkpt lat="41.83969" lon="9.21529">
        <ele>1453.69</ele>
        <time>2018-09-04T06:18:43Z</time>
      </trkpt>
      <trkpt lat="41.83969" lon="9.21529">
        <ele>1455.03</ele>
        <time>2018-09-04T06:18:51Z</time>
      </trkpt>
      <trkpt lat="41.8397" lon="9.21529">
        <ele>1452.49</ele>
        <time>2018-09-04T06:19:15Z</time>
      </trkpt>
      <trkpt lat="41.83969" lon="9.21532">
        <ele>1451.74</ele>
        <time>2018-09-04T06:20:00Z</time>
      </trkpt>
      <trkpt lat="41.83966" lon="9.21535">
        <ele>1454.06</ele>
        <time>2018-09-04T06:20:08Z</time>
      </trkpt>
      <trkpt lat="41.83966" lon="9.21536">
        <ele>1451.36</ele>
        <time>2018-09-04T06:20:12Z</time>
      </trkpt>
      <trkpt lat="41.83966" lon="9.21536">
        <ele>1453.77</ele>
        <time>2018-09-04T06:20:18Z</time>
      </trkpt>
      <trkpt lat="41.83967" lon="9.21534">
        <ele>1455.36</ele>
        <time>2018-09-04T06:20:40Z</time>
      </trkpt>
      <trkpt lat="41.83967" lon="9.21532">
        <ele>1453.16</ele>
        <time>2018-09-04T06:21:02Z</time>
      </trkpt>
      <trkpt lat="41.83962" lon="9.21536">
        <ele>1452.43</ele>
        <time>2018-09-04T06:21:31Z</time>
      </trkpt>
      <trkpt lat="41.8396" lon="9.2154">
        <ele>1452.53</ele>
        <time>2018-09-04T06:21:50Z</time>
      </trkpt>
      <trkpt lat="41.8396" lon="9.21543">
        <ele>1452.68</ele>
        <time>2018-09-04T06:22:27Z</time>
      </trkpt>
      <trkpt lat="41.8396" lon="9.21543">
        <ele>1449.09</ele>
        <time>2018-09-04T06:22:31Z</time>
      </trkpt>
      <trkpt lat="41.8396" lon="9.21543">
        <ele>1453.91</ele>
        <time>2018-09-04T06:22:32Z</time>
      </trkpt>
      <trkpt lat="41.8396" lon="9.21543">
        <ele>1453.92</ele>
        <time>2018-09-04T06:22:33Z</time>
      </trkpt>
      <trkpt lat="41.83959" lon="9.21542">
        <ele>1455.82</ele>
        <time>2018-09-04T06:22:45Z</time>
      </trkpt>
      <trkpt lat="41.83959" lon="9.21542">
        <ele>1453.69</ele>
        <time>2018-09-04T06:22:49Z</time>
      </trkpt>
      <trkpt lat="41.83959" lon="9.21541">
        <ele>1453.78</ele>
        <time>2018-09-04T06:23:19Z</time>
      </trkpt>
      <trkpt lat="41.83959" lon="9.21541">
        <ele>1456.43</ele>
        <time>2018-09-04T06:23:39Z</time>
      </trkpt>
      <trkpt lat="41.8396" lon="9.21541">
        <ele>1456.62</ele>
        <time>2018-09-04T06:24:31Z</time>
      </trkpt>
      <trkpt lat="41.8396" lon="9.21541">
        <ele>1457.77</ele>
        <time>2018-09-04T06:25:24Z</time>
      </trkpt>
      <trkpt lat="41.83961" lon="9.21539">
        <ele>1453.96</ele>
        <time>2018-09-04T06:26:02Z</time>
      </trkpt>
      <trkpt lat="41.83962" lon="9.21539">
        <ele>1453.96</ele>
        <time>2018-09-04T06:26:03Z</time>
      </trkpt>
      <trkpt lat="41.83961" lon="9.2154">
        <ele>1456.75</ele>
        <time>2018-09-04T06:26:05Z</time>
      </trkpt>
      <trkpt lat="41.83962" lon="9.2154">
        <ele>1458.42</ele>
        <time>2018-09-04T06:26:31Z</time>
      </trkpt>
      <trkpt lat="41.83963" lon="9.21539">
        <ele>1455.79</ele>
        <time>2018-09-04T06:26:53Z</time>
      </trkpt>
      <trkpt lat="41.83963" lon="9.21539">
        <ele>1458.53</ele>
        <time>2018-09-04T06:26:55Z</time>
      </trkpt>
      <trkpt lat="41.83963" lon="9.21538">
        <ele>1456.02</ele>
        <time>2018-09-04T06:27:23Z</time>
      </trkpt>
      <trkpt lat="41.83962" lon="9.21538">
        <ele>1456.08</ele>
        <time>2018-09-04T06:27:41Z</time>
      </trkpt>
      <trkpt lat="41.83962" lon="9.21539">
        <ele>1456.13</ele>
        <time>2018-09-04T06:27:58Z</time>
      </trkpt>
      <trkpt lat="41.83963" lon="9.21537">
        <ele>1456.1</ele>
        <time>2018-09-04T06:28:17Z</time>
      </trkpt>
      <trkpt lat="41.83962" lon="9.21542">
        <ele>1456.27</ele>
        <time>2018-09-04T06:28:29Z</time>
      </trkpt>
      <trkpt lat="41.83962" lon="9.21542">
        <ele>1456.29</ele>
        <time>2018-09-04T06:28:48Z</time>
      </trkpt>
      <trkpt lat="41.83964" lon="9.21543">
        <ele>1456.35</ele>
        <time>2018-09-04T06:29:05Z</time>
      </trkpt>
      <trkpt lat="41.83963" lon="9.21547">
        <ele>1455.58</ele>
        <time>2018-09-04T06:29:18Z</time>
      </trkpt>
      <trkpt lat="41.83958" lon="9.21549">
        <ele>1454.85</ele>
        <time>2018-09-04T06:29:35Z</time>
      </trkpt>
      <trkpt lat="41.83956" lon="9.21557">
        <ele>1452.89</ele>
        <time>2018-09-04T06:29:47Z</time>
      </trkpt>
      <trkpt lat="41.83954" lon="9.21568">
        <ele>1451.66</ele>
        <time>2018-09-04T06:29:59Z</time>
      </trkpt>
      <trkpt lat="41.83949" lon="9.21574">
        <ele>1450.89</ele>
        <time>2018-09-04T06:30:12Z</time>
      </trkpt>
      <trkpt lat="41.83941" lon="9.21573">
        <ele>1449.06</ele>
        <time>2018-09-04T06:30:26Z</time>
      </trkpt>
      <trkpt lat="41.83935" lon="9.21567">
        <ele>1448.42</ele>
        <time>2018-09-04T06:30:36Z</time>
      </trkpt>
      <trkpt lat="41.83925" lon="9.2156">
        <ele>1447.47</ele>
        <time>2018-09-04T06:30:51Z</time>
      </trkpt>
      <trkpt lat="41.83915" lon="9.21549">
        <ele>1446.77</ele>
        <time>2018-09-04T06:31:07Z</time>
      </trkpt>
      <trkpt lat="41.83909" lon="9.21545">
        <ele>1444.4</ele>
        <time>2018-09-04T06:31:19Z</time>
      </trkpt>
      <trkpt lat="41.83902" lon="9.21542">
        <ele>1442.48</ele>
        <time>2018-09-04T06:31:32Z</time>
      </trkpt>
      <trkpt lat="41.83897" lon="9.21532">
        <ele>1441.85</ele>
        <time>2018-09-04T06:31:46Z</time>
      </trkpt>
      <trkpt lat="41.83895" lon="9.21522">
        <ele>1440.05</ele>
        <time>2018-09-04T06:32:01Z</time>
      </trkpt>
      <trkpt lat="41.83896" lon="9.21519">
        <ele>1438.8</ele>
        <time>2018-09-04T06:32:06Z</time>
      </trkpt>
      <trkpt lat="41.83895" lon="9.21511">
        <ele>1438.17</ele>
        <time>2018-09-04T06:32:20Z</time>
      </trkpt>
      <trkpt lat="41.83894" lon="9.21505">
        <ele>1436.38</ele>
        <time>2018-09-04T06:32:32Z</time>
      </trkpt>
      <trkpt lat="41.83892" lon="9.21501">
        <ele>1435.18</ele>
        <time>2018-09-04T06:32:40Z</time>
      </trkpt>
      <trkpt lat="41.83888" lon="9.21493">
        <ele>1435.31</ele>
        <time>2018-09-04T06:32:54Z</time>
      </trkpt>
      <trkpt lat="41.83891" lon="9.2148">
        <ele>1434.44</ele>
        <time>2018-09-04T06:33:08Z</time>
      </trkpt>
      <trkpt lat="41.83887" lon="9.21475">
        <ele>1434.53</ele>
        <time>2018-09-04T06:33:23Z</time>
      </trkpt>
      <trkpt lat="41.83878" lon="9.21475">
        <ele>1434.51</ele>
        <time>2018-09-04T06:33:35Z</time>
      </trkpt>
      <trkpt lat="41.83876" lon="9.21474">
        <ele>1433.67</ele>
        <time>2018-09-04T06:33:38Z</time>
      </trkpt>
      <trkpt lat="41.83869" lon="9.21471">
        <ele>1433.67</ele>
        <time>2018-09-04T06:33:45Z</time>
      </trkpt>
      <trkpt lat="41.83865" lon="9.21453">
        <ele>1432.86</ele>
        <time>2018-09-04T06:34:00Z</time>
      </trkpt>
      <trkpt lat="41.83864" lon="9.21451">
        <ele>1432.89</ele>
        <time>2018-09-04T06:34:02Z</time>
      </trkpt>
      <trkpt lat="41.83859" lon="9.21435">
        <ele>1432.15</ele>
        <time>2018-09-04T06:34:19Z</time>
      </trkpt>
      <trkpt lat="41.8385" lon="9.21433">
        <ele>1432.18</ele>
        <time>2018-09-04T06:34:34Z</time>
      </trkpt>
      <trkpt lat="41.83838" lon="9.21432">
        <ele>1432.18</ele>
        <time>2018-09-04T06:34:49Z</time>
      </trkpt>
      <trkpt lat="41.83828" lon="9.21424">
        <ele>1432.33</ele>
        <time>2018-09-04T06:35:04Z</time>
      </trkpt>
      <trkpt lat="41.83817" lon="9.2142">
        <ele>1431.01</ele>
        <time>2018-09-04T06:35:18Z</time>
      </trkpt>
      <trkpt lat="41.83816" lon="9.2142">
        <ele>1431.05</ele>
        <time>2018-09-04T06:35:19Z</time>
      </trkpt>
      <trkpt lat="41.83804" lon="9.21418">
        <ele>1430.3</ele>
        <time>2018-09-04T06:35:34Z</time>
      </trkpt>
      <trkpt lat="41.83793" lon="9.21417">
        <ele>1430.37</ele>
        <time>2018-09-04T06:35:50Z</time>
      </trkpt>
      <trkpt lat="41.83789" lon="9.21415">
        <ele>1429.04</ele>
        <time>2018-09-04T06:35:56Z</time>
      </trkpt>
      <trkpt lat="41.83782" lon="9.21413">
        <ele>1426.45</ele>
        <time>2018-09-04T06:36:10Z</time>
      </trkpt>
      <trkpt lat="41.83772" lon="9.21412">
        <ele>1424.67</ele>
        <time>2018-09-04T06:36:26Z</time>
      </trkpt>
      <trkpt lat="41.83762" lon="9.21404">
        <ele>1422.81</ele>
        <time>2018-09-04T06:36:41Z</time>
      </trkpt>
      <trkpt lat="41.83755" lon="9.214">
        <ele>1421</ele>
        <time>2018-09-04T06:36:56Z</time>
      </trkpt>
      <trkpt lat="41.83747" lon="9.21397">
        <ele>1421.02</ele>
        <time>2018-09-04T06:37:10Z</time>
      </trkpt>
      <trkpt lat="41.83739" lon="9.21392">
        <ele>1419.85</ele>
        <time>2018-09-04T06:37:25Z</time>
      </trkpt>
      <trkpt lat="41.83739" lon="9.21391">
        <ele>1418.85</ele>
        <time>2018-09-04T06:37:26Z</time>
      </trkpt>
      <trkpt lat="41.83731" lon="9.21384">
        <ele>1417.93</ele>
        <time>2018-09-04T06:37:39Z</time>
      </trkpt>
      <trkpt lat="41.8372" lon="9.21377">
        <ele>1417.08</ele>
        <time>2018-09-04T06:37:56Z</time>
      </trkpt>
      <trkpt lat="41.8371" lon="9.21372">
        <ele>1416.07</ele>
        <time>2018-09-04T06:38:11Z</time>
      </trkpt>
      <trkpt lat="41.83703" lon="9.21368">
        <ele>1412.62</ele>
        <time>2018-09-04T06:38:23Z</time>
      </trkpt>
      <trkpt lat="41.83703" lon="9.21368">
        <ele>1412.64</ele>
        <time>2018-09-04T06:38:24Z</time>
      </trkpt>
      <trkpt lat="41.83698" lon="9.21364">
        <ele>1411.5</ele>
        <time>2018-09-04T06:38:37Z</time>
      </trkpt>
      <trkpt lat="41.83686" lon="9.21355">
        <ele>1408.67</ele>
        <time>2018-09-04T06:38:54Z</time>
      </trkpt>
      <trkpt lat="41.83678" lon="9.21351">
        <ele>1405.49</ele>
        <time>2018-09-04T06:39:10Z</time>
      </trkpt>
      <trkpt lat="41.83675" lon="9.21349">
        <ele>1404.48</ele>
        <time>2018-09-04T06:39:27Z</time>
      </trkpt>
      <trkpt lat="41.83671" lon="9.21345">
        <ele>1403.29</ele>
        <time>2018-09-04T06:39:39Z</time>
      </trkpt>
      <trkpt lat="41.83663" lon="9.21346">
        <ele>1402.43</ele>
        <time>2018-09-04T06:39:55Z</time>
      </trkpt>
      <trkpt lat="41.83658" lon="9.21349">
        <ele>1400.01</ele>
        <time>2018-09-04T06:40:06Z</time>
      </trkpt>
      <trkpt lat="41.83653" lon="9.21352">
        <ele>1398.36</ele>
        <time>2018-09-04T06:40:22Z</time>
      </trkpt>
      <trkpt lat="41.83646" lon="9.21355">
        <ele>1395.25</ele>
        <time>2018-09-04T06:40:40Z</time>
      </trkpt>
      <trkpt lat="41.8364" lon="9.21365">
        <ele>1392.84</ele>
        <time>2018-09-04T06:40:57Z</time>
      </trkpt>
      <trkpt lat="41.83634" lon="9.21366">
        <ele>1389.16</ele>
        <time>2018-09-04T06:41:15Z</time>
      </trkpt>
      <trkpt lat="41.83629" lon="9.21364">
        <ele>1387.88</ele>
        <time>2018-09-04T06:41:35Z</time>
      </trkpt>
      <trkpt lat="41.83621" lon="9.21369">
        <ele>1385.49</ele>
        <time>2018-09-04T06:41:53Z</time>
      </trkpt>
      <trkpt lat="41.83613" lon="9.21373">
        <ele>1383.09</ele>
        <time>2018-09-04T06:42:12Z</time>
      </trkpt>
      <trkpt lat="41.83611" lon="9.21374">
        <ele>1381.8</ele>
        <time>2018-09-04T06:42:17Z</time>
      </trkpt>
      <trkpt lat="41.83607" lon="9.21376">
        <ele>1379.89</ele>
        <time>2018-09-04T06:42:29Z</time>
      </trkpt>
      <trkpt lat="41.83604" lon="9.21375">
        <ele>1378.48</ele>
        <time>2018-09-04T06:42:34Z</time>
      </trkpt>
      <trkpt lat="41.83595" lon="9.21375">
        <ele>1377.65</ele>
        <time>2018-09-04T06:42:51Z</time>
      </trkpt>
      <trkpt lat="41.83587" lon="9.21379">
        <ele>1373.31</ele>
        <time>2018-09-04T06:43:09Z</time>
      </trkpt>
      <trkpt lat="41.83581" lon="9.21379">
        <ele>1373.44</ele>
        <time>2018-09-04T06:43:19Z</time>
      </trkpt>
      <trkpt lat="41.83568" lon="9.21379">
        <ele>1371.92</ele>
        <time>2018-09-04T06:43:35Z</time>
      </trkpt>
      <trkpt lat="41.8356" lon="9.21382">
        <ele>1370.04</ele>
        <time>2018-09-04T06:43:52Z</time>
      </trkpt>
      <trkpt lat="41.83552" lon="9.21386">
        <ele>1368.21</ele>
        <time>2018-09-04T06:44:09Z</time>
      </trkpt>
      <trkpt lat="41.83549" lon="9.21388">
        <ele>1366.8</ele>
        <time>2018-09-04T06:44:15Z</time>
      </trkpt>
      <trkpt lat="41.83546" lon="9.21387">
        <ele>1365.3</ele>
        <time>2018-09-04T06:44:20Z</time>
      </trkpt>
      <trkpt lat="41.83538" lon="9.21391">
        <ele>1364.45</ele>
        <time>2018-09-04T06:44:35Z</time>
      </trkpt>
      <trkpt lat="41.8353" lon="9.21394">
        <ele>1362.72</ele>
        <time>2018-09-04T06:44:49Z</time>
      </trkpt>
      <trkpt lat="41.83522" lon="9.21391">
        <ele>1360.95</ele>
        <time>2018-09-04T06:45:06Z</time>
      </trkpt>
      <trkpt lat="41.83515" lon="9.21392">
        <ele>1359.09</ele>
        <time>2018-09-04T06:45:20Z</time>
      </trkpt>
      <trkpt lat="41.83507" lon="9.21383">
        <ele>1355.97</ele>
        <time>2018-09-04T06:45:36Z</time>
      </trkpt>
      <trkpt lat="41.835" lon="9.21382">
        <ele>1355.32</ele>
        <time>2018-09-04T06:45:49Z</time>
      </trkpt>
      <trkpt lat="41.83494" lon="9.2138">
        <ele>1354.34</ele>
        <time>2018-09-04T06:46:01Z</time>
      </trkpt>
      <trkpt lat="41.83487" lon="9.21382">
        <ele>1353.4</ele>
        <time>2018-09-04T06:46:15Z</time>
      </trkpt>
      <trkpt lat="41.83481" lon="9.21386">
        <ele>1352.58</ele>
        <time>2018-09-04T06:46:30Z</time>
      </trkpt>
      <trkpt lat="41.8348" lon="9.21389">
        <ele>1351.06</ele>
        <time>2018-09-04T06:46:35Z</time>
      </trkpt>
      <trkpt lat="41.83479" lon="9.21398">
        <ele>1349.3</ele>
        <time>2018-09-04T06:46:53Z</time>
      </trkpt>
      <trkpt lat="41.83475" lon="9.21406">
        <ele>1347.56</ele>
        <time>2018-09-04T06:47:05Z</time>
      </trkpt>
      <trkpt lat="41.83472" lon="9.21406">
        <ele>1345.72</ele>
        <time>2018-09-04T06:47:11Z</time>
      </trkpt>
      <trkpt lat="41.83462" lon="9.21403">
        <ele>1344.2</ele>
        <time>2018-09-04T06:47:27Z</time>
      </trkpt>
      <trkpt lat="41.83456" lon="9.21406">
        <ele>1343.53</ele>
        <time>2018-09-04T06:47:40Z</time>
      </trkpt>
      <trkpt lat="41.83456" lon="9.21407">
        <ele>1343.66</ele>
        <time>2018-09-04T06:48:02Z</time>
      </trkpt>
      <trkpt lat="41.83457" lon="9.21407">
        <ele>1341.82</ele>
        <time>2018-09-04T06:48:24Z</time>
      </trkpt>
      <trkpt lat="41.83457" lon="9.21403">
        <ele>1341.96</ele>
        <time>2018-09-04T06:48:48Z</time>
      </trkpt>
      <trkpt lat="41.83457" lon="9.21406">
        <ele>1342.02</ele>
        <time>2018-09-04T06:49:09Z</time>
      </trkpt>
      <trkpt lat="41.83461" lon="9.21411">
        <ele>1340.84</ele>
        <time>2018-09-04T06:49:20Z</time>
      </trkpt>
      <trkpt lat="41.83467" lon="9.21419">
        <ele>1339.2</ele>
        <time>2018-09-04T06:49:38Z</time>
      </trkpt>
      <trkpt lat="41.83471" lon="9.21423">
        <ele>1338.34</ele>
        <time>2018-09-04T06:49:54Z</time>
      </trkpt>
      <trkpt lat="41.83474" lon="9.21428">
        <ele>1336.55</ele>
        <time>2018-09-04T06:50:07Z</time>
      </trkpt>
      <trkpt lat="41.83475" lon="9.21431">
        <ele>1336.64</ele>
        <time>2018-09-04T06:50:23Z</time>
      </trkpt>
      <trkpt lat="41.83472" lon="9.21435">
        <ele>1339.04</ele>
        <time>2018-09-04T06:50:33Z</time>
      </trkpt>
      <trkpt lat="41.8347" lon="9.21443">
        <ele>1339.12</ele>
        <time>2018-09-04T06:50:47Z</time>
      </trkpt>
      <trkpt lat="41.8347" lon="9.21446">
        <ele>1339.97</ele>
        <time>2018-09-04T06:51:09Z</time>
      </trkpt>
      <trkpt lat="41.83468" lon="9.21446">
        <ele>1337.7</ele>
        <time>2018-09-04T06:51:25Z</time>
      </trkpt>
      <trkpt lat="41.83461" lon="9.21449">
        <ele>1336.88</ele>
        <time>2018-09-04T06:51:43Z</time>
      </trkpt>
      <trkpt lat="41.83451" lon="9.21453">
        <ele>1336.15</ele>
        <time>2018-09-04T06:51:58Z</time>
      </trkpt>
      <trkpt lat="41.83445" lon="9.21457">
        <ele>1336.23</ele>
        <time>2018-09-04T06:52:11Z</time>
      </trkpt>
      <trkpt lat="41.83434" lon="9.2146">
        <ele>1338.52</ele>
        <time>2018-09-04T06:52:22Z</time>
      </trkpt>
      <trkpt lat="41.83423" lon="9.21461">
        <ele>1338.58</ele>
        <time>2018-09-04T06:52:38Z</time>
      </trkpt>
      <trkpt lat="41.83423" lon="9.21461">
        <ele>1336.09</ele>
        <time>2018-09-04T06:52:42Z</time>
      </trkpt>
      <trkpt lat="41.83416" lon="9.2146">
        <ele>1336.19</ele>
        <time>2018-09-04T06:53:00Z</time>
      </trkpt>
      <trkpt lat="41.83411" lon="9.21459">
        <ele>1338.49</ele>
        <time>2018-09-04T06:53:09Z</time>
      </trkpt>
      <trkpt lat="41.83404" lon="9.2146">
        <ele>1339.75</ele>
        <time>2018-09-04T06:53:18Z</time>
      </trkpt>
      <trkpt lat="41.83394" lon="9.21464">
        <ele>1339.77</ele>
        <time>2018-09-04T06:53:35Z</time>
      </trkpt>
      <trkpt lat="41.83386" lon="9.21466">
        <ele>1339.79</ele>
        <time>2018-09-04T06:53:50Z</time>
      </trkpt>
      <trkpt lat="41.83381" lon="9.21463">
        <ele>1340.56</ele>
        <time>2018-09-04T06:54:07Z</time>
      </trkpt>
      <trkpt lat="41.83372" lon="9.21463">
        <ele>1337.87</ele>
        <time>2018-09-04T06:54:20Z</time>
      </trkpt>
      <trkpt lat="41.83364" lon="9.21459">
        <ele>1336.98</ele>
        <time>2018-09-04T06:54:36Z</time>
      </trkpt>
      <trkpt lat="41.83356" lon="9.21455">
        <ele>1336.22</ele>
        <time>2018-09-04T06:54:53Z</time>
      </trkpt>
      <trkpt lat="41.83348" lon="9.21443">
        <ele>1334.15</ele>
        <time>2018-09-04T06:55:13Z</time>
      </trkpt>
      <trkpt lat="41.83341" lon="9.21437">
        <ele>1333.09</ele>
        <time>2018-09-04T06:55:27Z</time>
      </trkpt>
      <trkpt lat="41.83334" lon="9.21433">
        <ele>1333.13</ele>
        <time>2018-09-04T06:55:43Z</time>
      </trkpt>
      <trkpt lat="41.83326" lon="9.21429">
        <ele>1333.14</ele>
        <time>2018-09-04T06:55:58Z</time>
      </trkpt>
      <trkpt lat="41.83315" lon="9.21427">
        <ele>1333.14</ele>
        <time>2018-09-04T06:56:14Z</time>
      </trkpt>
      <trkpt lat="41.83308" lon="9.21416">
        <ele>1333.09</ele>
        <time>2018-09-04T06:56:34Z</time>
      </trkpt>
      <trkpt lat="41.83304" lon="9.21416">
        <ele>1333.09</ele>
        <time>2018-09-04T06:56:43Z</time>
      </trkpt>
      <trkpt lat="41.83293" lon="9.21406">
        <ele>1331.12</ele>
        <time>2018-09-04T06:57:03Z</time>
      </trkpt>
      <trkpt lat="41.83281" lon="9.21399">
        <ele>1331.09</ele>
        <time>2018-09-04T06:57:20Z</time>
      </trkpt>
      <trkpt lat="41.83274" lon="9.21389">
        <ele>1329.21</ele>
        <time>2018-09-04T06:57:40Z</time>
      </trkpt>
      <trkpt lat="41.83266" lon="9.21378">
        <ele>1327.46</ele>
        <time>2018-09-04T06:57:59Z</time>
      </trkpt>
      <trkpt lat="41.8326" lon="9.21367">
        <ele>1325.32</ele>
        <time>2018-09-04T06:58:11Z</time>
      </trkpt>
      <trkpt lat="41.83249" lon="9.21351">
        <ele>1324.36</ele>
        <time>2018-09-04T06:58:31Z</time>
      </trkpt>
      <trkpt lat="41.83246" lon="9.21347">
        <ele>1324.36</ele>
        <time>2018-09-04T06:58:35Z</time>
      </trkpt>
      <trkpt lat="41.83233" lon="9.2134">
        <ele>1323.78</ele>
        <time>2018-09-04T06:58:51Z</time>
      </trkpt>
      <trkpt lat="41.83221" lon="9.21336">
        <ele>1326.18</ele>
        <time>2018-09-04T06:59:09Z</time>
      </trkpt>
      <trkpt lat="41.83209" lon="9.2134">
        <ele>1328.2</ele>
        <time>2018-09-04T06:59:29Z</time>
      </trkpt>
      <trkpt lat="41.832" lon="9.21337">
        <ele>1328.11</ele>
        <time>2018-09-04T06:59:48Z</time>
      </trkpt>
      <trkpt lat="41.83191" lon="9.21338">
        <ele>1330.75</ele>
        <time>2018-09-04T07:00:06Z</time>
      </trkpt>
      <trkpt lat="41.83182" lon="9.21337">
        <ele>1332.59</ele>
        <time>2018-09-04T07:00:23Z</time>
      </trkpt>
      <trkpt lat="41.83177" lon="9.21335">
        <ele>1334.94</ele>
        <time>2018-09-04T07:00:37Z</time>
      </trkpt>
      <trkpt lat="41.83172" lon="9.2133">
        <ele>1335.6</ele>
        <time>2018-09-04T07:00:53Z</time>
      </trkpt>
      <trkpt lat="41.8317" lon="9.21329">
        <ele>1335.58</ele>
        <time>2018-09-04T07:01:11Z</time>
      </trkpt>
      <trkpt lat="41.83167" lon="9.21324">
        <ele>1333.14</ele>
        <time>2018-09-04T07:01:23Z</time>
      </trkpt>
      <trkpt lat="41.83165" lon="9.21322">
        <ele>1332.94</ele>
        <time>2018-09-04T07:01:47Z</time>
      </trkpt>
      <trkpt lat="41.83168" lon="9.21321">
        <ele>1332.97</ele>
        <time>2018-09-04T07:02:03Z</time>
      </trkpt>
      <trkpt lat="41.83167" lon="9.21327">
        <ele>1332.94</ele>
        <time>2018-09-04T07:02:38Z</time>
      </trkpt>
      <trkpt lat="41.83167" lon="9.21328">
        <ele>1331.67</ele>
        <time>2018-09-04T07:02:45Z</time>
      </trkpt>
      <trkpt lat="41.83167" lon="9.21327">
        <ele>1333.16</ele>
        <time>2018-09-04T07:02:50Z</time>
      </trkpt>
      <trkpt lat="41.83165" lon="9.21322">
        <ele>1327.44</ele>
        <time>2018-09-04T07:03:07Z</time>
      </trkpt>
      <trkpt lat="41.83165" lon="9.21322">
        <ele>1333.74</ele>
        <time>2018-09-04T07:03:08Z</time>
      </trkpt>
      <trkpt lat="41.83165" lon="9.21322">
        <ele>1333.74</ele>
        <time>2018-09-04T07:03:09Z</time>
      </trkpt>
      <trkpt lat="41.83165" lon="9.21321">
        <ele>1329.72</ele>
        <time>2018-09-04T07:03:16Z</time>
      </trkpt>
      <trkpt lat="41.83165" lon="9.21322">
        <ele>1329.72</ele>
        <time>2018-09-04T07:03:17Z</time>
      </trkpt>
      <trkpt lat="41.83165" lon="9.21322">
        <ele>1332.28</ele>
        <time>2018-09-04T07:03:20Z</time>
      </trkpt>
      <trkpt lat="41.83164" lon="9.21324">
        <ele>1326.84</ele>
        <time>2018-09-04T07:03:27Z</time>
      </trkpt>
      <trkpt lat="41.83164" lon="9.21324">
        <ele>1335.05</ele>
        <time>2018-09-04T07:03:28Z</time>
      </trkpt>
      <trkpt lat="41.83165" lon="9.21326">
        <ele>1331.83</ele>
        <time>2018-09-04T07:03:37Z</time>
      </trkpt>
      <trkpt lat="41.83165" lon="9.21326">
        <ele>1330.86</ele>
        <time>2018-09-04T07:03:41Z</time>
      </trkpt>
      <trkpt lat="41.83166" lon="9.21325">
        <ele>1334.06</ele>
        <time>2018-09-04T07:03:46Z</time>
      </trkpt>
      <trkpt lat="41.83166" lon="9.21325">
        <ele>1334.06</ele>
        <time>2018-09-04T07:03:47Z</time>
      </trkpt>
      <trkpt lat="41.83167" lon="9.21324">
        <ele>1335.42</ele>
        <time>2018-09-04T07:03:50Z</time>
      </trkpt>
      <trkpt lat="41.83167" lon="9.21324">
        <ele>1332.68</ele>
        <time>2018-09-04T07:03:56Z</time>
      </trkpt>
      <trkpt lat="41.83167" lon="9.21325">
        <ele>1336.73</ele>
        <time>2018-09-04T07:03:58Z</time>
      </trkpt>
      <trkpt lat="41.83167" lon="9.21325">
        <ele>1336.73</ele>
        <time>2018-09-04T07:03:59Z</time>
      </trkpt>
      <trkpt lat="41.83167" lon="9.21326">
        <ele>1333.89</ele>
        <time>2018-09-04T07:04:02Z</time>
      </trkpt>
      <trkpt lat="41.83168" lon="9.21327">
        <ele>1335.8</ele>
        <time>2018-09-04T07:04:07Z</time>
      </trkpt>
      <trkpt lat="41.83169" lon="9.21327">
        <ele>1331.1</ele>
        <time>2018-09-04T07:04:09Z</time>
      </trkpt>
      <trkpt lat="41.83169" lon="9.21327">
        <ele>1328.08</ele>
        <time>2018-09-04T07:04:10Z</time>
      </trkpt>
      <trkpt lat="41.83169" lon="9.21327">
        <ele>1331.23</ele>
        <time>2018-09-04T07:04:11Z</time>
      </trkpt>
      <trkpt lat="41.83169" lon="9.21328">
        <ele>1334.23</ele>
        <time>2018-09-04T07:04:13Z</time>
      </trkpt>
      <trkpt lat="41.83169" lon="9.21328">
        <ele>1334.23</ele>
        <time>2018-09-04T07:04:14Z</time>
      </trkpt>
      <trkpt lat="41.83169" lon="9.21329">
        <ele>1331.84</ele>
        <time>2018-09-04T07:04:18Z</time>
      </trkpt>
      <trkpt lat="41.8317" lon="9.21329">
        <ele>1334.56</ele>
        <time>2018-09-04T07:04:22Z</time>
      </trkpt>
      <trkpt lat="41.8317" lon="9.21329">
        <ele>1339.51</ele>
        <time>2018-09-04T07:04:25Z</time>
      </trkpt>
      <trkpt lat="41.8317" lon="9.21329">
        <ele>1334.58</ele>
        <time>2018-09-04T07:04:26Z</time>
      </trkpt>
      <trkpt lat="41.83169" lon="9.21329">
        <ele>1324.62</ele>
        <time>2018-09-04T07:04:31Z</time>
      </trkpt>
      <trkpt lat="41.83169" lon="9.21329">
        <ele>1332.91</ele>
        <time>2018-09-04T07:04:32Z</time>
      </trkpt>
      <trkpt lat="41.83169" lon="9.21329">
        <ele>1343.17</ele>
        <time>2018-09-04T07:04:34Z</time>
      </trkpt>
      <trkpt lat="41.83169" lon="9.21328">
        <ele>1335.05</ele>
        <time>2018-09-04T07:04:35Z</time>
      </trkpt>
      <trkpt lat="41.83169" lon="9.21327">
        <ele>1334.16</ele>
        <time>2018-09-04T07:04:37Z</time>
      </trkpt>
      <trkpt lat="41.83168" lon="9.21327">
        <ele>1324.8</ele>
        <time>2018-09-04T07:04:39Z</time>
      </trkpt>
      <trkpt lat="41.83168" lon="9.21326">
        <ele>1333.53</ele>
        <time>2018-09-04T07:04:40Z</time>
      </trkpt>
      <trkpt lat="41.83169" lon="9.21323">
        <ele>1336.94</ele>
        <time>2018-09-04T07:04:55Z</time>
      </trkpt>
      <trkpt lat="41.83168" lon="9.21322">
        <ele>1333.47</ele>
        <time>2018-09-04T07:04:58Z</time>
      </trkpt>
      <trkpt lat="41.83168" lon="9.21322">
        <ele>1334.62</ele>
        <time>2018-09-04T07:05:05Z</time>
      </trkpt>
      <trkpt lat="41.83168" lon="9.21322">
        <ele>1332.42</ele>
        <time>2018-09-04T07:05:11Z</time>
      </trkpt>
      <trkpt lat="41.83168" lon="9.21322">
        <ele>1327.23</ele>
        <time>2018-09-04T07:05:13Z</time>
      </trkpt>
      <trkpt lat="41.83168" lon="9.21322">
        <ele>1333.57</ele>
        <time>2018-09-04T07:05:14Z</time>
      </trkpt>
      <trkpt lat="41.83168" lon="9.21323">
        <ele>1341.22</ele>
        <time>2018-09-04T07:05:15Z</time>
      </trkpt>
      <trkpt lat="41.83168" lon="9.21323">
        <ele>1334.97</ele>
        <time>2018-09-04T07:05:16Z</time>
      </trkpt>
      <trkpt lat="41.83168" lon="9.21323">
        <ele>1333.85</ele>
        <time>2018-09-04T07:05:18Z</time>
      </trkpt>
      <trkpt lat="41.83167" lon="9.21322">
        <ele>1333.78</ele>
        <time>2018-09-04T07:05:35Z</time>
      </trkpt>
      <trkpt lat="41.83167" lon="9.2132">
        <ele>1333.71</ele>
        <time>2018-09-04T07:06:01Z</time>
      </trkpt>
      <trkpt lat="41.83167" lon="9.21319">
        <ele>1333.66</ele>
        <time>2018-09-04T07:06:19Z</time>
      </trkpt>
      <trkpt lat="41.83165" lon="9.21318">
        <ele>1334.62</ele>
        <time>2018-09-04T07:06:42Z</time>
      </trkpt>
      <trkpt lat="41.83162" lon="9.21321">
        <ele>1335.85</ele>
        <time>2018-09-04T07:06:49Z</time>
      </trkpt>
      <trkpt lat="41.83155" lon="9.21323">
        <ele>1337.63</ele>
        <time>2018-09-04T07:07:11Z</time>
      </trkpt>
      <trkpt lat="41.83146" lon="9.21324">
        <ele>1338.4</ele>
        <time>2018-09-04T07:07:29Z</time>
      </trkpt>
      <trkpt lat="41.8314" lon="9.21326">
        <ele>1340.36</ele>
        <time>2018-09-04T07:07:46Z</time>
      </trkpt>
      <trkpt lat="41.83139" lon="9.21328">
        <ele>1341.92</ele>
        <time>2018-09-04T07:07:50Z</time>
      </trkpt>
      <trkpt lat="41.83127" lon="9.21328">
        <ele>1342.94</ele>
        <time>2018-09-04T07:08:10Z</time>
      </trkpt>
      <trkpt lat="41.83119" lon="9.21326">
        <ele>1343.61</ele>
        <time>2018-09-04T07:08:24Z</time>
      </trkpt>
      <trkpt lat="41.83111" lon="9.21321">
        <ele>1343.46</ele>
        <time>2018-09-04T07:08:38Z</time>
      </trkpt>
      <trkpt lat="41.83107" lon="9.21308">
        <ele>1343.56</ele>
        <time>2018-09-04T07:08:52Z</time>
      </trkpt>
      <trkpt lat="41.83107" lon="9.21303">
        <ele>1343.57</ele>
        <time>2018-09-04T07:08:57Z</time>
      </trkpt>
      <trkpt lat="41.83106" lon="9.21298">
        <ele>1344.97</ele>
        <time>2018-09-04T07:09:01Z</time>
      </trkpt>
      <trkpt lat="41.83101" lon="9.21292">
        <ele>1346.22</ele>
        <time>2018-09-04T07:09:10Z</time>
      </trkpt>
      <trkpt lat="41.83096" lon="9.21281">
        <ele>1346.89</ele>
        <time>2018-09-04T07:09:23Z</time>
      </trkpt>
      <trkpt lat="41.83087" lon="9.2127">
        <ele>1346.8</ele>
        <time>2018-09-04T07:09:35Z</time>
      </trkpt>
      <trkpt lat="41.83067" lon="9.21258">
        <ele>1348.63</ele>
        <time>2018-09-04T07:09:55Z</time>
      </trkpt>
      <trkpt lat="41.83048" lon="9.21254">
        <ele>1348.41</ele>
        <time>2018-09-04T07:10:14Z</time>
      </trkpt>
      <trkpt lat="41.83047" lon="9.21252">
        <ele>1348.43</ele>
        <time>2018-09-04T07:10:15Z</time>
      </trkpt>
      <trkpt lat="41.83044" lon="9.21248">
        <ele>1348.45</ele>
        <time>2018-09-04T07:10:22Z</time>
      </trkpt>
      <trkpt lat="41.83028" lon="9.21241">
        <ele>1348.29</ele>
        <time>2018-09-04T07:10:38Z</time>
      </trkpt>
      <trkpt lat="41.83017" lon="9.21242">
        <ele>1348.24</ele>
        <time>2018-09-04T07:10:50Z</time>
      </trkpt>
      <trkpt lat="41.83015" lon="9.21243">
        <ele>1345.24</ele>
        <time>2018-09-04T07:10:53Z</time>
      </trkpt>
      <trkpt lat="41.83014" lon="9.21243">
        <ele>1345.28</ele>
        <time>2018-09-04T07:10:54Z</time>
      </trkpt>
      <trkpt lat="41.83008" lon="9.21243">
        <ele>1345.2</ele>
        <time>2018-09-04T07:11:01Z</time>
      </trkpt>
      <trkpt lat="41.83003" lon="9.21245">
        <ele>1343.99</ele>
        <time>2018-09-04T07:11:07Z</time>
      </trkpt>
      <trkpt lat="41.82993" lon="9.2125">
        <ele>1342.98</ele>
        <time>2018-09-04T07:11:20Z</time>
      </trkpt>
      <trkpt lat="41.82991" lon="9.2125">
        <ele>1341.73</ele>
        <time>2018-09-04T07:11:25Z</time>
      </trkpt>
      <trkpt lat="41.82983" lon="9.21252">
        <ele>1340</ele>
        <time>2018-09-04T07:11:38Z</time>
      </trkpt>
      <trkpt lat="41.82977" lon="9.21252">
        <ele>1339.06</ele>
        <time>2018-09-04T07:11:50Z</time>
      </trkpt>
      <trkpt lat="41.82971" lon="9.21251">
        <ele>1337.21</ele>
        <time>2018-09-04T07:12:02Z</time>
      </trkpt>
      <trkpt lat="41.82966" lon="9.21249">
        <ele>1334.68</ele>
        <time>2018-09-04T07:12:14Z</time>
      </trkpt>
      <trkpt lat="41.82957" lon="9.21251">
        <ele>1332.71</ele>
        <time>2018-09-04T07:12:32Z</time>
      </trkpt>
      <trkpt lat="41.82955" lon="9.21253">
        <ele>1334.98</ele>
        <time>2018-09-04T07:12:41Z</time>
      </trkpt>
      <trkpt lat="41.82955" lon="9.21254">
        <ele>1332.6</ele>
        <time>2018-09-04T07:12:43Z</time>
      </trkpt>
      <trkpt lat="41.82952" lon="9.21253">
        <ele>1332.5</ele>
        <time>2018-09-04T07:12:56Z</time>
      </trkpt>
      <trkpt lat="41.82948" lon="9.21248">
        <ele>1334.95</ele>
        <time>2018-09-04T07:13:13Z</time>
      </trkpt>
      <trkpt lat="41.82945" lon="9.21238">
        <ele>1334.92</ele>
        <time>2018-09-04T07:13:29Z</time>
      </trkpt>
      <trkpt lat="41.82938" lon="9.21232">
        <ele>1335.3</ele>
        <time>2018-09-04T07:13:43Z</time>
      </trkpt>
      <trkpt lat="41.82927" lon="9.21223">
        <ele>1335.3</ele>
        <time>2018-09-04T07:14:00Z</time>
      </trkpt>
      <trkpt lat="41.82926" lon="9.21223">
        <ele>1338.2</ele>
        <time>2018-09-04T07:14:03Z</time>
      </trkpt>
      <trkpt lat="41.82919" lon="9.21219">
        <ele>1340.8</ele>
        <time>2018-09-04T07:14:17Z</time>
      </trkpt>
      <trkpt lat="41.82909" lon="9.21217">
        <ele>1343.38</ele>
        <time>2018-09-04T07:14:36Z</time>
      </trkpt>
      <trkpt lat="41.82902" lon="9.21215">
        <ele>1344.72</ele>
        <time>2018-09-04T07:14:47Z</time>
      </trkpt>
      <trkpt lat="41.829" lon="9.21213">
        <ele>1346</ele>
        <time>2018-09-04T07:14:52Z</time>
      </trkpt>
      <trkpt lat="41.82893" lon="9.21207">
        <ele>1347.67</ele>
        <time>2018-09-04T07:15:10Z</time>
      </trkpt>
      <trkpt lat="41.82877" lon="9.21198">
        <ele>1349.44</ele>
        <time>2018-09-04T07:15:33Z</time>
      </trkpt>
      <trkpt lat="41.82863" lon="9.2119">
        <ele>1350.34</ele>
        <time>2018-09-04T07:15:52Z</time>
      </trkpt>
      <trkpt lat="41.82851" lon="9.21187">
        <ele>1351.92</ele>
        <time>2018-09-04T07:16:10Z</time>
      </trkpt>
      <trkpt lat="41.82844" lon="9.2119">
        <ele>1353.35</ele>
        <time>2018-09-04T07:16:19Z</time>
      </trkpt>
      <trkpt lat="41.82835" lon="9.21186">
        <ele>1354.46</ele>
        <time>2018-09-04T07:16:29Z</time>
      </trkpt>
      <trkpt lat="41.82829" lon="9.21183">
        <ele>1354.45</ele>
        <time>2018-09-04T07:16:35Z</time>
      </trkpt>
      <trkpt lat="41.82812" lon="9.21185">
        <ele>1354.45</ele>
        <time>2018-09-04T07:16:50Z</time>
      </trkpt>
      <trkpt lat="41.82807" lon="9.21188">
        <ele>1354.52</ele>
        <time>2018-09-04T07:16:56Z</time>
      </trkpt>
      <trkpt lat="41.82796" lon="9.21199">
        <ele>1356.2</ele>
        <time>2018-09-04T07:17:12Z</time>
      </trkpt>
      <trkpt lat="41.82793" lon="9.21212">
        <ele>1357.81</ele>
        <time>2018-09-04T07:17:26Z</time>
      </trkpt>
      <trkpt lat="41.82789" lon="9.21221">
        <ele>1358.64</ele>
        <time>2018-09-04T07:17:35Z</time>
      </trkpt>
      <trkpt lat="41.82786" lon="9.21221">
        <ele>1359.66</ele>
        <time>2018-09-04T07:17:38Z</time>
      </trkpt>
      <trkpt lat="41.82777" lon="9.21229">
        <ele>1360.63</ele>
        <time>2018-09-04T07:17:51Z</time>
      </trkpt>
      <trkpt lat="41.82765" lon="9.2123">
        <ele>1361.29</ele>
        <time>2018-09-04T07:18:10Z</time>
      </trkpt>
      <trkpt lat="41.82756" lon="9.21239">
        <ele>1362.56</ele>
        <time>2018-09-04T07:18:26Z</time>
      </trkpt>
      <trkpt lat="41.82748" lon="9.21244">
        <ele>1364.45</ele>
        <time>2018-09-04T07:18:46Z</time>
      </trkpt>
      <trkpt lat="41.82743" lon="9.2125">
        <ele>1367.27</ele>
        <time>2018-09-04T07:19:01Z</time>
      </trkpt>
      <trkpt lat="41.82735" lon="9.21262">
        <ele>1369.37</ele>
        <time>2018-09-04T07:19:21Z</time>
      </trkpt>
      <trkpt lat="41.8273" lon="9.21265">
        <ele>1372.73</ele>
        <time>2018-09-04T07:19:38Z</time>
      </trkpt>
      <trkpt lat="41.82725" lon="9.21273">
        <ele>1375.15</ele>
        <time>2018-09-04T07:19:56Z</time>
      </trkpt>
      <trkpt lat="41.82722" lon="9.21279">
        <ele>1377.04</ele>
        <time>2018-09-04T07:20:15Z</time>
      </trkpt>
      <trkpt lat="41.82721" lon="9.21281">
        <ele>1379.3</ele>
        <time>2018-09-04T07:20:20Z</time>
      </trkpt>
      <trkpt lat="41.82717" lon="9.21286">
        <ele>1381.67</ele>
        <time>2018-09-04T07:20:40Z</time>
      </trkpt>
      <trkpt lat="41.82715" lon="9.21289">
        <ele>1382.19</ele>
        <time>2018-09-04T07:20:59Z</time>
      </trkpt>
      <trkpt lat="41.82715" lon="9.21288">
        <ele>1379.28</ele>
        <time>2018-09-04T07:21:02Z</time>
      </trkpt>
      <trkpt lat="41.82714" lon="9.21293">
        <ele>1383.65</ele>
        <time>2018-09-04T07:21:24Z</time>
      </trkpt>
      <trkpt lat="41.82714" lon="9.21293">
        <ele>1383.63</ele>
        <time>2018-09-04T07:21:25Z</time>
      </trkpt>
      <trkpt lat="41.82715" lon="9.21293">
        <ele>1379.22</ele>
        <time>2018-09-04T07:21:26Z</time>
      </trkpt>
      <trkpt lat="41.82715" lon="9.21293">
        <ele>1379.18</ele>
        <time>2018-09-04T07:21:27Z</time>
      </trkpt>
      <trkpt lat="41.82714" lon="9.21292">
        <ele>1389.64</ele>
        <time>2018-09-04T07:21:31Z</time>
      </trkpt>
      <trkpt lat="41.82714" lon="9.21292">
        <ele>1381.1</ele>
        <time>2018-09-04T07:21:32Z</time>
      </trkpt>
      <trkpt lat="41.82715" lon="9.21292">
        <ele>1380.01</ele>
        <time>2018-09-04T07:21:40Z</time>
      </trkpt>
      <trkpt lat="41.82715" lon="9.2129">
        <ele>1383.53</ele>
        <time>2018-09-04T07:21:43Z</time>
      </trkpt>
      <trkpt lat="41.82715" lon="9.21289">
        <ele>1378.85</ele>
        <time>2018-09-04T07:21:45Z</time>
      </trkpt>
      <trkpt lat="41.82715" lon="9.21289">
        <ele>1381.48</ele>
        <time>2018-09-04T07:21:46Z</time>
      </trkpt>
      <trkpt lat="41.82716" lon="9.21288">
        <ele>1377.64</ele>
        <time>2018-09-04T07:21:50Z</time>
      </trkpt>
      <trkpt lat="41.82716" lon="9.21287">
        <ele>1383.36</ele>
        <time>2018-09-04T07:21:51Z</time>
      </trkpt>
      <trkpt lat="41.82716" lon="9.21287">
        <ele>1380.44</ele>
        <time>2018-09-04T07:21:56Z</time>
      </trkpt>
      <trkpt lat="41.82717" lon="9.21286">
        <ele>1382.21</ele>
        <time>2018-09-04T07:22:04Z</time>
      </trkpt>
      <trkpt lat="41.82717" lon="9.21286">
        <ele>1382.1</ele>
        <time>2018-09-04T07:22:05Z</time>
      </trkpt>
      <trkpt lat="41.82717" lon="9.21288">
        <ele>1375.93</ele>
        <time>2018-09-04T07:22:08Z</time>
      </trkpt>
      <trkpt lat="41.82717" lon="9.21289">
        <ele>1376.01</ele>
        <time>2018-09-04T07:22:09Z</time>
      </trkpt>
      <trkpt lat="41.82717" lon="9.2129">
        <ele>1379.15</ele>
        <time>2018-09-04T07:22:10Z</time>
      </trkpt>
      <trkpt lat="41.82717" lon="9.21291">
        <ele>1384.71</ele>
        <time>2018-09-04T07:22:11Z</time>
      </trkpt>
      <trkpt lat="41.82717" lon="9.21292">
        <ele>1380.57</ele>
        <time>2018-09-04T07:22:12Z</time>
      </trkpt>
      <trkpt lat="41.82717" lon="9.21293">
        <ele>1384.12</ele>
        <time>2018-09-04T07:22:14Z</time>
      </trkpt>
      <trkpt lat="41.82718" lon="9.21291">
        <ele>1381.5</ele>
        <time>2018-09-04T07:22:17Z</time>
      </trkpt>
      <trkpt lat="41.82712" lon="9.2129">
        <ele>1380.33</ele>
        <time>2018-09-04T07:22:35Z</time>
      </trkpt>
      <trkpt lat="41.82714" lon="9.21289">
        <ele>1380.19</ele>
        <time>2018-09-04T07:23:02Z</time>
      </trkpt>
      <trkpt lat="41.82716" lon="9.21292">
        <ele>1382.81</ele>
        <time>2018-09-04T07:23:11Z</time>
      </trkpt>
      <trkpt lat="41.82716" lon="9.21293">
        <ele>1384.79</ele>
        <time>2018-09-04T07:23:15Z</time>
      </trkpt>
      <trkpt lat="41.82711" lon="9.21296">
        <ele>1385.84</ele>
        <time>2018-09-04T07:23:35Z</time>
      </trkpt>
      <trkpt lat="41.82702" lon="9.213">
        <ele>1386.71</ele>
        <time>2018-09-04T07:23:54Z</time>
      </trkpt>
      <trkpt lat="41.82692" lon="9.21297">
        <ele>1386.57</ele>
        <time>2018-09-04T07:24:11Z</time>
      </trkpt>
      <trkpt lat="41.82687" lon="9.21296">
        <ele>1384.27</ele>
        <time>2018-09-04T07:24:17Z</time>
      </trkpt>
      <trkpt lat="41.82677" lon="9.21296">
        <ele>1384.17</ele>
        <time>2018-09-04T07:24:35Z</time>
      </trkpt>
      <trkpt lat="41.82676" lon="9.21296">
        <ele>1383.15</ele>
        <time>2018-09-04T07:24:38Z</time>
      </trkpt>
      <trkpt lat="41.82671" lon="9.21284">
        <ele>1383.04</ele>
        <time>2018-09-04T07:24:56Z</time>
      </trkpt>
      <trkpt lat="41.8267" lon="9.21281">
        <ele>1381.38</ele>
        <time>2018-09-04T07:24:59Z</time>
      </trkpt>
      <trkpt lat="41.82663" lon="9.21268">
        <ele>1381.35</ele>
        <time>2018-09-04T07:25:17Z</time>
      </trkpt>
      <trkpt lat="41.82653" lon="9.21245">
        <ele>1380.34</ele>
        <time>2018-09-04T07:25:37Z</time>
      </trkpt>
      <trkpt lat="41.82643" lon="9.21224">
        <ele>1379.55</ele>
        <time>2018-09-04T07:25:54Z</time>
      </trkpt>
      <trkpt lat="41.82632" lon="9.21208">
        <ele>1379.51</ele>
        <time>2018-09-04T07:26:10Z</time>
      </trkpt>
      <trkpt lat="41.82615" lon="9.21198">
        <ele>1378.59</ele>
        <time>2018-09-04T07:26:29Z</time>
      </trkpt>
      <trkpt lat="41.82598" lon="9.21187">
        <ele>1378.6</ele>
        <time>2018-09-04T07:26:47Z</time>
      </trkpt>
      <trkpt lat="41.82595" lon="9.21185">
        <ele>1380.95</ele>
        <time>2018-09-04T07:26:50Z</time>
      </trkpt>
      <trkpt lat="41.82589" lon="9.21183">
        <ele>1380.94</ele>
        <time>2018-09-04T07:26:55Z</time>
      </trkpt>
      <trkpt lat="41.82572" lon="9.21176">
        <ele>1381.72</ele>
        <time>2018-09-04T07:27:11Z</time>
      </trkpt>
      <trkpt lat="41.82556" lon="9.21179">
        <ele>1381.69</ele>
        <time>2018-09-04T07:27:29Z</time>
      </trkpt>
      <trkpt lat="41.82542" lon="9.21164">
        <ele>1381.73</ele>
        <time>2018-09-04T07:27:46Z</time>
      </trkpt>
      <trkpt lat="41.82526" lon="9.21156">
        <ele>1381.74</ele>
        <time>2018-09-04T07:27:58Z</time>
      </trkpt>
      <trkpt lat="41.82512" lon="9.21148">
        <ele>1381.76</ele>
        <time>2018-09-04T07:28:12Z</time>
      </trkpt>
      <trkpt lat="41.82494" lon="9.21141">
        <ele>1379.49</ele>
        <time>2018-09-04T07:28:32Z</time>
      </trkpt>
      <trkpt lat="41.82493" lon="9.2114">
        <ele>1379.48</ele>
        <time>2018-09-04T07:28:33Z</time>
      </trkpt>
      <trkpt lat="41.82472" lon="9.21135">
        <ele>1378.31</ele>
        <time>2018-09-04T07:28:53Z</time>
      </trkpt>
      <trkpt lat="41.8247" lon="9.21133">
        <ele>1377.24</ele>
        <time>2018-09-04T07:28:55Z</time>
      </trkpt>
      <trkpt lat="41.8246" lon="9.21129">
        <ele>1377.26</ele>
        <time>2018-09-04T07:29:02Z</time>
      </trkpt>
      <trkpt lat="41.82444" lon="9.21124">
        <ele>1377.27</ele>
        <time>2018-09-04T07:29:15Z</time>
      </trkpt>
      <trkpt lat="41.82427" lon="9.21119">
        <ele>1377.24</ele>
        <time>2018-09-04T07:29:30Z</time>
      </trkpt>
      <trkpt lat="41.82413" lon="9.21113">
        <ele>1376.06</ele>
        <time>2018-09-04T07:29:47Z</time>
      </trkpt>
      <trkpt lat="41.82397" lon="9.21106">
        <ele>1375.26</ele>
        <time>2018-09-04T07:30:05Z</time>
      </trkpt>
      <trkpt lat="41.82393" lon="9.21104">
        <ele>1374.36</ele>
        <time>2018-09-04T07:30:09Z</time>
      </trkpt>
      <trkpt lat="41.82383" lon="9.21104">
        <ele>1374.33</ele>
        <time>2018-09-04T07:30:17Z</time>
      </trkpt>
      <trkpt lat="41.82379" lon="9.21103">
        <ele>1374.32</ele>
        <time>2018-09-04T07:30:20Z</time>
      </trkpt>
      <trkpt lat="41.82365" lon="9.21101">
        <ele>1373.49</ele>
        <time>2018-09-04T07:30:34Z</time>
      </trkpt>
      <trkpt lat="41.82356" lon="9.21099">
        <ele>1373.43</ele>
        <time>2018-09-04T07:30:44Z</time>
      </trkpt>
      <trkpt lat="41.82353" lon="9.211">
        <ele>1372.62</ele>
        <time>2018-09-04T07:30:46Z</time>
      </trkpt>
      <trkpt lat="41.82339" lon="9.211">
        <ele>1372.59</ele>
        <time>2018-09-04T07:30:58Z</time>
      </trkpt>
      <trkpt lat="41.82337" lon="9.211">
        <ele>1372.57</ele>
        <time>2018-09-04T07:31:00Z</time>
      </trkpt>
      <trkpt lat="41.82328" lon="9.21106">
        <ele>1372.49</ele>
        <time>2018-09-04T07:31:12Z</time>
      </trkpt>
      <trkpt lat="41.82321" lon="9.21109">
        <ele>1372.46</ele>
        <time>2018-09-04T07:31:18Z</time>
      </trkpt>
      <trkpt lat="41.82309" lon="9.21112">
        <ele>1371.24</ele>
        <time>2018-09-04T07:31:35Z</time>
      </trkpt>
      <trkpt lat="41.82303" lon="9.2111">
        <ele>1369.45</ele>
        <time>2018-09-04T07:31:54Z</time>
      </trkpt>
      <trkpt lat="41.82298" lon="9.21104">
        <ele>1371.94</ele>
        <time>2018-09-04T07:32:05Z</time>
      </trkpt>
      <trkpt lat="41.8229" lon="9.21094">
        <ele>1372.97</ele>
        <time>2018-09-04T07:32:17Z</time>
      </trkpt>
      <trkpt lat="41.8228" lon="9.21081">
        <ele>1372.89</ele>
        <time>2018-09-04T07:32:32Z</time>
      </trkpt>
      <trkpt lat="41.82268" lon="9.21063">
        <ele>1372.83</ele>
        <time>2018-09-04T07:32:47Z</time>
      </trkpt>
      <trkpt lat="41.82262" lon="9.21057">
        <ele>1372.71</ele>
        <time>2018-09-04T07:32:55Z</time>
      </trkpt>
      <trkpt lat="41.82253" lon="9.21047">
        <ele>1370.39</ele>
        <time>2018-09-04T07:33:07Z</time>
      </trkpt>
      <trkpt lat="41.8224" lon="9.21035">
        <ele>1369.54</ele>
        <time>2018-09-04T07:33:23Z</time>
      </trkpt>
      <trkpt lat="41.82223" lon="9.21027">
        <ele>1367.65</ele>
        <time>2018-09-04T07:33:40Z</time>
      </trkpt>
      <trkpt lat="41.82223" lon="9.21025">
        <ele>1367.67</ele>
        <time>2018-09-04T07:33:41Z</time>
      </trkpt>
      <trkpt lat="41.82221" lon="9.21022">
        <ele>1367.73</ele>
        <time>2018-09-04T07:33:44Z</time>
      </trkpt>
      <trkpt lat="41.82215" lon="9.21017">
        <ele>1367.74</ele>
        <time>2018-09-04T07:33:51Z</time>
      </trkpt>
      <trkpt lat="41.82205" lon="9.21009">
        <ele>1366.89</ele>
        <time>2018-09-04T07:34:05Z</time>
      </trkpt>
      <trkpt lat="41.82202" lon="9.21005">
        <ele>1364.89</ele>
        <time>2018-09-04T07:34:10Z</time>
      </trkpt>
      <trkpt lat="41.82195" lon="9.20998">
        <ele>1364.81</ele>
        <time>2018-09-04T07:34:24Z</time>
      </trkpt>
      <trkpt lat="41.82186" lon="9.20988">
        <ele>1362.42</ele>
        <time>2018-09-04T07:34:41Z</time>
      </trkpt>
      <trkpt lat="41.82185" lon="9.20988">
        <ele>1361.04</ele>
        <time>2018-09-04T07:34:43Z</time>
      </trkpt>
      <trkpt lat="41.82175" lon="9.20981">
        <ele>1359.18</ele>
        <time>2018-09-04T07:35:00Z</time>
      </trkpt>
      <trkpt lat="41.82162" lon="9.20978">
        <ele>1357.16</ele>
        <time>2018-09-04T07:35:19Z</time>
      </trkpt>
      <trkpt lat="41.82148" lon="9.20977">
        <ele>1355.55</ele>
        <time>2018-09-04T07:35:32Z</time>
      </trkpt>
      <trkpt lat="41.82131" lon="9.20981">
        <ele>1354.62</ele>
        <time>2018-09-04T07:35:49Z</time>
      </trkpt>
      <trkpt lat="41.82128" lon="9.2098">
        <ele>1353.79</ele>
        <time>2018-09-04T07:35:52Z</time>
      </trkpt>
      <trkpt lat="41.82126" lon="9.20979">
        <ele>1353.78</ele>
        <time>2018-09-04T07:35:54Z</time>
      </trkpt>
      <trkpt lat="41.82114" lon="9.20975">
        <ele>1353.05</ele>
        <time>2018-09-04T07:36:09Z</time>
      </trkpt>
      <trkpt lat="41.82104" lon="9.20981">
        <ele>1353.1</ele>
        <time>2018-09-04T07:36:25Z</time>
      </trkpt>
      <trkpt lat="41.82096" lon="9.20978">
        <ele>1351.24</ele>
        <time>2018-09-04T07:36:41Z</time>
      </trkpt>
      <trkpt lat="41.82094" lon="9.20977">
        <ele>1353.76</ele>
        <time>2018-09-04T07:36:48Z</time>
      </trkpt>
      <trkpt lat="41.82085" lon="9.20974">
        <ele>1353.83</ele>
        <time>2018-09-04T07:37:07Z</time>
      </trkpt>
      <trkpt lat="41.8208" lon="9.20969">
        <ele>1350.76</ele>
        <time>2018-09-04T07:37:15Z</time>
      </trkpt>
      <trkpt lat="41.82079" lon="9.20969">
        <ele>1350.75</ele>
        <time>2018-09-04T07:37:16Z</time>
      </trkpt>
      <trkpt lat="41.82064" lon="9.20964">
        <ele>1350.87</ele>
        <time>2018-09-04T07:37:32Z</time>
      </trkpt>
      <trkpt lat="41.82052" lon="9.20958">
        <ele>1350.05</ele>
        <time>2018-09-04T07:37:41Z</time>
      </trkpt>
      <trkpt lat="41.8204" lon="9.20948">
        <ele>1350.18</ele>
        <time>2018-09-04T07:37:57Z</time>
      </trkpt>
      <trkpt lat="41.82036" lon="9.20941">
        <ele>1349.36</ele>
        <time>2018-09-04T07:38:12Z</time>
      </trkpt>
      <trkpt lat="41.82036" lon="9.20941">
        <ele>1347.59</ele>
        <time>2018-09-04T07:38:14Z</time>
      </trkpt>
      <trkpt lat="41.82036" lon="9.20941">
        <ele>1352.05</ele>
        <time>2018-09-04T07:38:15Z</time>
      </trkpt>
      <trkpt lat="41.82036" lon="9.2094">
        <ele>1351.94</ele>
        <time>2018-09-04T07:38:16Z</time>
      </trkpt>
      <trkpt lat="41.82036" lon="9.2094">
        <ele>1348.6</ele>
        <time>2018-09-04T07:38:18Z</time>
      </trkpt>
      <trkpt lat="41.82036" lon="9.2094">
        <ele>1352.16</ele>
        <time>2018-09-04T07:38:19Z</time>
      </trkpt>
      <trkpt lat="41.82036" lon="9.2094">
        <ele>1347.95</ele>
        <time>2018-09-04T07:38:23Z</time>
      </trkpt>
      <trkpt lat="41.82036" lon="9.20939">
        <ele>1352.78</ele>
        <time>2018-09-04T07:38:24Z</time>
      </trkpt>
      <trkpt lat="41.82036" lon="9.20939">
        <ele>1349.45</ele>
        <time>2018-09-04T07:38:25Z</time>
      </trkpt>
      <trkpt lat="41.82036" lon="9.2094">
        <ele>1349.36</ele>
        <time>2018-09-04T07:38:30Z</time>
      </trkpt>
      <trkpt lat="41.82036" lon="9.2094">
        <ele>1352.66</ele>
        <time>2018-09-04T07:38:32Z</time>
      </trkpt>
      <trkpt lat="41.82036" lon="9.2094">
        <ele>1352.66</ele>
        <time>2018-09-04T07:38:33Z</time>
      </trkpt>
      <trkpt lat="41.82036" lon="9.2094">
        <ele>1349.51</ele>
        <time>2018-09-04T07:38:34Z</time>
      </trkpt>
      <trkpt lat="41.82036" lon="9.20941">
        <ele>1350.05</ele>
        <time>2018-09-04T07:38:35Z</time>
      </trkpt>
      <trkpt lat="41.82036" lon="9.2094">
        <ele>1345.29</ele>
        <time>2018-09-04T07:38:39Z</time>
      </trkpt>
      <trkpt lat="41.82036" lon="9.2094">
        <ele>1351.13</ele>
        <time>2018-09-04T07:38:40Z</time>
      </trkpt>
      <trkpt lat="41.82036" lon="9.2094">
        <ele>1351.13</ele>
        <time>2018-09-04T07:38:41Z</time>
      </trkpt>
      <trkpt lat="41.82034" lon="9.20939">
        <ele>1351.15</ele>
        <time>2018-09-04T07:39:03Z</time>
      </trkpt>
      <trkpt lat="41.82034" lon="9.20938">
        <ele>1351.09</ele>
        <time>2018-09-04T07:39:20Z</time>
      </trkpt>
      <trkpt lat="41.82034" lon="9.20941">
        <ele>1351.08</ele>
        <time>2018-09-04T07:39:47Z</time>
      </trkpt>
      <trkpt lat="41.82036" lon="9.20942">
        <ele>1351.95</ele>
        <time>2018-09-04T07:40:04Z</time>
      </trkpt>
      <trkpt lat="41.82035" lon="9.20939">
        <ele>1351.9</ele>
        <time>2018-09-04T07:40:27Z</time>
      </trkpt>
      <trkpt lat="41.82036" lon="9.2094">
        <ele>1351.84</ele>
        <time>2018-09-04T07:41:02Z</time>
      </trkpt>
      <trkpt lat="41.82036" lon="9.20943">
        <ele>1352.73</ele>
        <time>2018-09-04T07:41:29Z</time>
      </trkpt>
      <trkpt lat="41.82035" lon="9.20949">
        <ele>1352.7</ele>
        <time>2018-09-04T07:41:35Z</time>
      </trkpt>
      <trkpt lat="41.82021" lon="9.20959">
        <ele>1352.62</ele>
        <time>2018-09-04T07:41:51Z</time>
      </trkpt>
      <trkpt lat="41.8201" lon="9.20962">
        <ele>1352.51</ele>
        <time>2018-09-04T07:42:05Z</time>
      </trkpt>
      <trkpt lat="41.82006" lon="9.20962">
        <ele>1349.95</ele>
        <time>2018-09-04T07:42:11Z</time>
      </trkpt>
      <trkpt lat="41.82001" lon="9.20959">
        <ele>1348.19</ele>
        <time>2018-09-04T07:42:20Z</time>
      </trkpt>
      <trkpt lat="41.81989" lon="9.20959">
        <ele>1346.46</ele>
        <time>2018-09-04T07:42:36Z</time>
      </trkpt>
      <trkpt lat="41.81981" lon="9.20968">
        <ele>1345.37</ele>
        <time>2018-09-04T07:42:52Z</time>
      </trkpt>
      <trkpt lat="41.81968" lon="9.20969">
        <ele>1343.25</ele>
        <time>2018-09-04T07:43:09Z</time>
      </trkpt>
      <trkpt lat="41.81957" lon="9.20966">
        <ele>1341.4</ele>
        <time>2018-09-04T07:43:24Z</time>
      </trkpt>
      <trkpt lat="41.81945" lon="9.20963">
        <ele>1339.54</ele>
        <time>2018-09-04T07:43:39Z</time>
      </trkpt>
      <trkpt lat="41.81941" lon="9.20964">
        <ele>1339.53</ele>
        <time>2018-09-04T07:43:43Z</time>
      </trkpt>
      <trkpt lat="41.81934" lon="9.20965">
        <ele>1338.68</ele>
        <time>2018-09-04T07:43:50Z</time>
      </trkpt>
      <trkpt lat="41.81921" lon="9.20963">
        <ele>1338.58</ele>
        <time>2018-09-04T07:44:04Z</time>
      </trkpt>
      <trkpt lat="41.81911" lon="9.20973">
        <ele>1336.77</ele>
        <time>2018-09-04T07:44:21Z</time>
      </trkpt>
      <trkpt lat="41.81905" lon="9.20979">
        <ele>1335.87</ele>
        <time>2018-09-04T07:44:39Z</time>
      </trkpt>
      <trkpt lat="41.81901" lon="9.20976">
        <ele>1335.72</ele>
        <time>2018-09-04T07:44:54Z</time>
      </trkpt>
      <trkpt lat="41.81894" lon="9.2097">
        <ele>1334.72</ele>
        <time>2018-09-04T07:45:09Z</time>
      </trkpt>
      <trkpt lat="41.81886" lon="9.20959">
        <ele>1333.89</ele>
        <time>2018-09-04T07:45:27Z</time>
      </trkpt>
      <trkpt lat="41.81881" lon="9.20948">
        <ele>1333.81</ele>
        <time>2018-09-04T07:45:45Z</time>
      </trkpt>
      <trkpt lat="41.81873" lon="9.20933">
        <ele>1332.02</ele>
        <time>2018-09-04T07:46:07Z</time>
      </trkpt>
      <trkpt lat="41.8187" lon="9.20931">
        <ele>1332.03</ele>
        <time>2018-09-04T07:46:10Z</time>
      </trkpt>
      <trkpt lat="41.81859" lon="9.2092">
        <ele>1331.94</ele>
        <time>2018-09-04T07:46:29Z</time>
      </trkpt>
      <trkpt lat="41.81853" lon="9.20908">
        <ele>1331.09</ele>
        <time>2018-09-04T07:46:46Z</time>
      </trkpt>
      <trkpt lat="41.81848" lon="9.20899">
        <ele>1327.5</ele>
        <time>2018-09-04T07:47:01Z</time>
      </trkpt>
      <trkpt lat="41.81841" lon="9.20896">
        <ele>1327.47</ele>
        <time>2018-09-04T07:47:08Z</time>
      </trkpt>
      <trkpt lat="41.8183" lon="9.20892">
        <ele>1327.59</ele>
        <time>2018-09-04T07:47:29Z</time>
      </trkpt>
      <trkpt lat="41.81824" lon="9.20886">
        <ele>1325.19</ele>
        <time>2018-09-04T07:47:47Z</time>
      </trkpt>
      <trkpt lat="41.8182" lon="9.2088">
        <ele>1324.35</ele>
        <time>2018-09-04T07:48:03Z</time>
      </trkpt>
      <trkpt lat="41.81815" lon="9.20875">
        <ele>1321.79</ele>
        <time>2018-09-04T07:48:19Z</time>
      </trkpt>
      <trkpt lat="41.81812" lon="9.20873">
        <ele>1321.79</ele>
        <time>2018-09-04T07:48:32Z</time>
      </trkpt>
      <trkpt lat="41.8181" lon="9.20872">
        <ele>1319.74</ele>
        <time>2018-09-04T07:48:43Z</time>
      </trkpt>
      <trkpt lat="41.81813" lon="9.20863">
        <ele>1317.62</ele>
        <time>2018-09-04T07:49:00Z</time>
      </trkpt>
      <trkpt lat="41.81813" lon="9.20863">
        <ele>1316.06</ele>
        <time>2018-09-04T07:49:02Z</time>
      </trkpt>
      <trkpt lat="41.81811" lon="9.20859">
        <ele>1315.08</ele>
        <time>2018-09-04T07:49:17Z</time>
      </trkpt>
      <trkpt lat="41.81808" lon="9.20852">
        <ele>1313.14</ele>
        <time>2018-09-04T07:49:34Z</time>
      </trkpt>
      <trkpt lat="41.81809" lon="9.20838">
        <ele>1313.28</ele>
        <time>2018-09-04T07:49:50Z</time>
      </trkpt>
      <trkpt lat="41.81808" lon="9.20837">
        <ele>1315.92</ele>
        <time>2018-09-04T07:49:54Z</time>
      </trkpt>
      <trkpt lat="41.81806" lon="9.20822">
        <ele>1316.72</ele>
        <time>2018-09-04T07:50:11Z</time>
      </trkpt>
      <trkpt lat="41.81795" lon="9.2081">
        <ele>1317.94</ele>
        <time>2018-09-04T07:50:31Z</time>
      </trkpt>
      <trkpt lat="41.81792" lon="9.20798">
        <ele>1317.86</ele>
        <time>2018-09-04T07:50:49Z</time>
      </trkpt>
      <trkpt lat="41.81789" lon="9.20792">
        <ele>1315.37</ele>
        <time>2018-09-04T07:50:55Z</time>
      </trkpt>
      <trkpt lat="41.81777" lon="9.20778">
        <ele>1314.6</ele>
        <time>2018-09-04T07:51:12Z</time>
      </trkpt>
      <trkpt lat="41.81768" lon="9.20769">
        <ele>1314.58</ele>
        <time>2018-09-04T07:51:22Z</time>
      </trkpt>
      <trkpt lat="41.81763" lon="9.20765">
        <ele>1314.63</ele>
        <time>2018-09-04T07:51:26Z</time>
      </trkpt>
      <trkpt lat="41.81759" lon="9.20761">
        <ele>1314.62</ele>
        <time>2018-09-04T07:51:30Z</time>
      </trkpt>
      <trkpt lat="41.81756" lon="9.2076">
        <ele>1314.62</ele>
        <time>2018-09-04T07:51:32Z</time>
      </trkpt>
      <trkpt lat="41.81752" lon="9.20754">
        <ele>1314.64</ele>
        <time>2018-09-04T07:51:37Z</time>
      </trkpt>
      <trkpt lat="41.81747" lon="9.20751">
        <ele>1314.64</ele>
        <time>2018-09-04T07:51:42Z</time>
      </trkpt>
      <trkpt lat="41.81737" lon="9.20741">
        <ele>1313.45</ele>
        <time>2018-09-04T07:51:57Z</time>
      </trkpt>
      <trkpt lat="41.81733" lon="9.20731">
        <ele>1309.79</ele>
        <time>2018-09-04T07:52:14Z</time>
      </trkpt>
      <trkpt lat="41.8173" lon="9.20721">
        <ele>1307.96</ele>
        <time>2018-09-04T07:52:29Z</time>
      </trkpt>
      <trkpt lat="41.8172" lon="9.20725">
        <ele>1305.85</ele>
        <time>2018-09-04T07:52:48Z</time>
      </trkpt>
      <trkpt lat="41.81714" lon="9.20723">
        <ele>1302.66</ele>
        <time>2018-09-04T07:53:03Z</time>
      </trkpt>
      <trkpt lat="41.81709" lon="9.20724">
        <ele>1301.36</ele>
        <time>2018-09-04T07:53:11Z</time>
      </trkpt>
      <trkpt lat="41.81691" lon="9.20714">
        <ele>1299.61</ele>
        <time>2018-09-04T07:53:29Z</time>
      </trkpt>
      <trkpt lat="41.81678" lon="9.2071">
        <ele>1296.65</ele>
        <time>2018-09-04T07:53:46Z</time>
      </trkpt>
      <trkpt lat="41.81671" lon="9.20703">
        <ele>1293.38</ele>
        <time>2018-09-04T07:53:59Z</time>
      </trkpt>
      <trkpt lat="41.8167" lon="9.20702">
        <ele>1293.38</ele>
        <time>2018-09-04T07:54:00Z</time>
      </trkpt>
      <trkpt lat="41.81656" lon="9.2069">
        <ele>1291.73</ele>
        <time>2018-09-04T07:54:20Z</time>
      </trkpt>
      <trkpt lat="41.81648" lon="9.20687">
        <ele>1289.03</ele>
        <time>2018-09-04T07:54:37Z</time>
      </trkpt>
      <trkpt lat="41.81645" lon="9.20688">
        <ele>1289.04</ele>
        <time>2018-09-04T07:54:41Z</time>
      </trkpt>
      <trkpt lat="41.81635" lon="9.20692">
        <ele>1287</ele>
        <time>2018-09-04T07:54:56Z</time>
      </trkpt>
      <trkpt lat="41.81625" lon="9.20691">
        <ele>1282.84</ele>
        <time>2018-09-04T07:55:15Z</time>
      </trkpt>
      <trkpt lat="41.81625" lon="9.20691">
        <ele>1282.91</ele>
        <time>2018-09-04T07:55:16Z</time>
      </trkpt>
      <trkpt lat="41.81618" lon="9.20692">
        <ele>1281.09</ele>
        <time>2018-09-04T07:55:34Z</time>
      </trkpt>
      <trkpt lat="41.8161" lon="9.20688">
        <ele>1278.61</ele>
        <time>2018-09-04T07:55:53Z</time>
      </trkpt>
      <trkpt lat="41.81603" lon="9.20679">
        <ele>1278.63</ele>
        <time>2018-09-04T07:56:08Z</time>
      </trkpt>
      <trkpt lat="41.81601" lon="9.20679">
        <ele>1281.3</ele>
        <time>2018-09-04T07:56:11Z</time>
      </trkpt>
      <trkpt lat="41.81595" lon="9.20669">
        <ele>1282.33</ele>
        <time>2018-09-04T07:56:27Z</time>
      </trkpt>
      <trkpt lat="41.81581" lon="9.20663">
        <ele>1284.92</ele>
        <time>2018-09-04T07:56:48Z</time>
      </trkpt>
      <trkpt lat="41.81574" lon="9.20661">
        <ele>1286.92</ele>
        <time>2018-09-04T07:57:03Z</time>
      </trkpt>
      <trkpt lat="41.81567" lon="9.20657">
        <ele>1287.83</ele>
        <time>2018-09-04T07:57:20Z</time>
      </trkpt>
      <trkpt lat="41.81555" lon="9.20662">
        <ele>1285.05</ele>
        <time>2018-09-04T07:57:35Z</time>
      </trkpt>
      <trkpt lat="41.81545" lon="9.2067">
        <ele>1285.05</ele>
        <time>2018-09-04T07:57:52Z</time>
      </trkpt>
      <trkpt lat="41.81535" lon="9.20671">
        <ele>1284.94</ele>
        <time>2018-09-04T07:58:12Z</time>
      </trkpt>
      <trkpt lat="41.81523" lon="9.20657">
        <ele>1284.91</ele>
        <time>2018-09-04T07:58:29Z</time>
      </trkpt>
      <trkpt lat="41.81518" lon="9.20643">
        <ele>1284.92</ele>
        <time>2018-09-04T07:58:42Z</time>
      </trkpt>
      <trkpt lat="41.81513" lon="9.20624">
        <ele>1284.88</ele>
        <time>2018-09-04T07:59:00Z</time>
      </trkpt>
      <trkpt lat="41.81512" lon="9.20621">
        <ele>1287.14</ele>
        <time>2018-09-04T07:59:02Z</time>
      </trkpt>
      <trkpt lat="41.81506" lon="9.20604">
        <ele>1289.77</ele>
        <time>2018-09-04T07:59:21Z</time>
      </trkpt>
      <trkpt lat="41.81503" lon="9.20599">
        <ele>1290.98</ele>
        <time>2018-09-04T07:59:28Z</time>
      </trkpt>
      <trkpt lat="41.81489" lon="9.20585">
        <ele>1292.61</ele>
        <time>2018-09-04T07:59:49Z</time>
      </trkpt>
      <trkpt lat="41.81482" lon="9.20578">
        <ele>1292.53</ele>
        <time>2018-09-04T07:59:58Z</time>
      </trkpt>
      <trkpt lat="41.81465" lon="9.20569">
        <ele>1292.5</ele>
        <time>2018-09-04T08:00:12Z</time>
      </trkpt>
      <trkpt lat="41.81456" lon="9.20571">
        <ele>1290.24</ele>
        <time>2018-09-04T08:00:22Z</time>
      </trkpt>
      <trkpt lat="41.81437" lon="9.20572">
        <ele>1287.4</ele>
        <time>2018-09-04T08:00:41Z</time>
      </trkpt>
      <trkpt lat="41.8142" lon="9.20564">
        <ele>1286.2</ele>
        <time>2018-09-04T08:00:56Z</time>
      </trkpt>
      <trkpt lat="41.81411" lon="9.20557">
        <ele>1282.43</ele>
        <time>2018-09-04T08:01:13Z</time>
      </trkpt>
      <trkpt lat="41.81402" lon="9.20554">
        <ele>1279.81</ele>
        <time>2018-09-04T08:01:30Z</time>
      </trkpt>
      <trkpt lat="41.81393" lon="9.20553">
        <ele>1277.31</ele>
        <time>2018-09-04T08:01:47Z</time>
      </trkpt>
      <trkpt lat="41.81383" lon="9.20558">
        <ele>1275.35</ele>
        <time>2018-09-04T08:02:01Z</time>
      </trkpt>
      <trkpt lat="41.81381" lon="9.20556">
        <ele>1274.16</ele>
        <time>2018-09-04T08:02:07Z</time>
      </trkpt>
      <trkpt lat="41.81367" lon="9.20557">
        <ele>1274.14</ele>
        <time>2018-09-04T08:02:21Z</time>
      </trkpt>
      <trkpt lat="41.81357" lon="9.20556">
        <ele>1273.29</ele>
        <time>2018-09-04T08:02:34Z</time>
      </trkpt>
      <trkpt lat="41.81349" lon="9.20561">
        <ele>1272.27</ele>
        <time>2018-09-04T08:02:48Z</time>
      </trkpt>
      <trkpt lat="41.81344" lon="9.2057">
        <ele>1271.05</ele>
        <time>2018-09-04T08:02:59Z</time>
      </trkpt>
      <trkpt lat="41.81343" lon="9.20573">
        <ele>1271.04</ele>
        <time>2018-09-04T08:03:01Z</time>
      </trkpt>
      <trkpt lat="41.81338" lon="9.20585">
        <ele>1270.95</ele>
        <time>2018-09-04T08:03:15Z</time>
      </trkpt>
      <trkpt lat="41.81331" lon="9.20586">
        <ele>1270.8</ele>
        <time>2018-09-04T08:03:33Z</time>
      </trkpt>
      <trkpt lat="41.81321" lon="9.2059">
        <ele>1270.64</ele>
        <time>2018-09-04T08:03:49Z</time>
      </trkpt>
      <trkpt lat="41.81316" lon="9.20589">
        <ele>1270.59</ele>
        <time>2018-09-04T08:03:54Z</time>
      </trkpt>
      <trkpt lat="41.81304" lon="9.20587">
        <ele>1272.92</ele>
        <time>2018-09-04T08:04:09Z</time>
      </trkpt>
      <trkpt lat="41.81293" lon="9.20594">
        <ele>1274.56</ele>
        <time>2018-09-04T08:04:29Z</time>
      </trkpt>
      <trkpt lat="41.81281" lon="9.20597">
        <ele>1275.21</ele>
        <time>2018-09-04T08:04:43Z</time>
      </trkpt>
      <trkpt lat="41.8128" lon="9.20597">
        <ele>1275.19</ele>
        <time>2018-09-04T08:04:45Z</time>
      </trkpt>
      <trkpt lat="41.81276" lon="9.20602">
        <ele>1275.11</ele>
        <time>2018-09-04T08:04:58Z</time>
      </trkpt>
      <trkpt lat="41.81274" lon="9.20606">
        <ele>1272.66</ele>
        <time>2018-09-04T08:05:13Z</time>
      </trkpt>
      <trkpt lat="41.81272" lon="9.20611">
        <ele>1270.92</ele>
        <time>2018-09-04T08:05:31Z</time>
      </trkpt>
      <trkpt lat="41.81267" lon="9.20608">
        <ele>1269.8</ele>
        <time>2018-09-04T08:05:49Z</time>
      </trkpt>
      <trkpt lat="41.81262" lon="9.20604">
        <ele>1269.78</ele>
        <time>2018-09-04T08:06:08Z</time>
      </trkpt>
      <trkpt lat="41.81259" lon="9.20601">
        <ele>1272.16</ele>
        <time>2018-09-04T08:06:17Z</time>
      </trkpt>
      <trkpt lat="41.81252" lon="9.20599">
        <ele>1273.54</ele>
        <time>2018-09-04T08:06:26Z</time>
      </trkpt>
      <trkpt lat="41.81241" lon="9.20592">
        <ele>1275.22</ele>
        <time>2018-09-04T08:06:45Z</time>
      </trkpt>
      <trkpt lat="41.81231" lon="9.20586">
        <ele>1276.9</ele>
        <time>2018-09-04T08:07:04Z</time>
      </trkpt>
      <trkpt lat="41.8122" lon="9.2059">
        <ele>1277.57</ele>
        <time>2018-09-04T08:07:22Z</time>
      </trkpt>
      <trkpt lat="41.81212" lon="9.20581">
        <ele>1277.46</ele>
        <time>2018-09-04T08:07:40Z</time>
      </trkpt>
      <trkpt lat="41.81213" lon="9.20563">
        <ele>1279.17</ele>
        <time>2018-09-04T08:08:00Z</time>
      </trkpt>
      <trkpt lat="41.81214" lon="9.20552">
        <ele>1281.05</ele>
        <time>2018-09-04T08:08:17Z</time>
      </trkpt>
      <trkpt lat="41.81219" lon="9.20541">
        <ele>1281.69</ele>
        <time>2018-09-04T08:08:34Z</time>
      </trkpt>
      <trkpt lat="41.81224" lon="9.2053">
        <ele>1284.71</ele>
        <time>2018-09-04T08:08:49Z</time>
      </trkpt>
      <trkpt lat="41.81225" lon="9.2053">
        <ele>1284.69</ele>
        <time>2018-09-04T08:08:50Z</time>
      </trkpt>
      <trkpt lat="41.81234" lon="9.20518">
        <ele>1284.59</ele>
        <time>2018-09-04T08:09:07Z</time>
      </trkpt>
      <trkpt lat="41.81241" lon="9.20512">
        <ele>1282.2</ele>
        <time>2018-09-04T08:09:24Z</time>
      </trkpt>
      <trkpt lat="41.81244" lon="9.20508">
        <ele>1280.79</ele>
        <time>2018-09-04T08:09:30Z</time>
      </trkpt>
      <trkpt lat="41.81245" lon="9.20506">
        <ele>1280.79</ele>
        <time>2018-09-04T08:09:33Z</time>
      </trkpt>
      <trkpt lat="41.81249" lon="9.2049">
        <ele>1279.7</ele>
        <time>2018-09-04T08:09:54Z</time>
      </trkpt>
      <trkpt lat="41.81247" lon="9.20484">
        <ele>1282.2</ele>
        <time>2018-09-04T08:10:01Z</time>
      </trkpt>
      <trkpt lat="41.81245" lon="9.20473">
        <ele>1279.66</ele>
        <time>2018-09-04T08:10:14Z</time>
      </trkpt>
      <trkpt lat="41.81238" lon="9.20458">
        <ele>1278.02</ele>
        <time>2018-09-04T08:10:35Z</time>
      </trkpt>
      <trkpt lat="41.81232" lon="9.20442">
        <ele>1276.24</ele>
        <time>2018-09-04T08:10:52Z</time>
      </trkpt>
      <trkpt lat="41.81228" lon="9.20425">
        <ele>1275.46</ele>
        <time>2018-09-04T08:11:10Z</time>
      </trkpt>
      <trkpt lat="41.81227" lon="9.20422">
        <ele>1275.49</ele>
        <time>2018-09-04T08:11:15Z</time>
      </trkpt>
      <trkpt lat="41.81214" lon="9.20411">
        <ele>1277.88</ele>
        <time>2018-09-04T08:11:35Z</time>
      </trkpt>
      <trkpt lat="41.81213" lon="9.20411">
        <ele>1277.89</ele>
        <time>2018-09-04T08:11:36Z</time>
      </trkpt>
      <trkpt lat="41.81196" lon="9.20401">
        <ele>1277.95</ele>
        <time>2018-09-04T08:11:54Z</time>
      </trkpt>
      <trkpt lat="41.81194" lon="9.20395">
        <ele>1275.57</ele>
        <time>2018-09-04T08:12:03Z</time>
      </trkpt>
      <trkpt lat="41.81185" lon="9.20378">
        <ele>1274.87</ele>
        <time>2018-09-04T08:12:21Z</time>
      </trkpt>
      <trkpt lat="41.81175" lon="9.20364">
        <ele>1274.01</ele>
        <time>2018-09-04T08:12:39Z</time>
      </trkpt>
      <trkpt lat="41.81168" lon="9.20354">
        <ele>1274.22</ele>
        <time>2018-09-04T08:12:56Z</time>
      </trkpt>
      <trkpt lat="41.81162" lon="9.20339">
        <ele>1274.28</ele>
        <time>2018-09-04T08:13:14Z</time>
      </trkpt>
      <trkpt lat="41.81158" lon="9.20323">
        <ele>1270.72</ele>
        <time>2018-09-04T08:13:31Z</time>
      </trkpt>
      <trkpt lat="41.8115" lon="9.20304">
        <ele>1269.05</ele>
        <time>2018-09-04T08:13:51Z</time>
      </trkpt>
      <trkpt lat="41.81143" lon="9.20287">
        <ele>1267.62</ele>
        <time>2018-09-04T08:14:10Z</time>
      </trkpt>
      <trkpt lat="41.81133" lon="9.20275">
        <ele>1266.86</ele>
        <time>2018-09-04T08:14:27Z</time>
      </trkpt>
      <trkpt lat="41.81127" lon="9.20263">
        <ele>1265.16</ele>
        <time>2018-09-04T08:14:47Z</time>
      </trkpt>
      <trkpt lat="41.8112" lon="9.20249">
        <ele>1262.61</ele>
        <time>2018-09-04T08:15:04Z</time>
      </trkpt>
      <trkpt lat="41.81112" lon="9.20239">
        <ele>1261.95</ele>
        <time>2018-09-04T08:15:18Z</time>
      </trkpt>
      <trkpt lat="41.811" lon="9.20225">
        <ele>1262.18</ele>
        <time>2018-09-04T08:15:36Z</time>
      </trkpt>
      <trkpt lat="41.8109" lon="9.20218">
        <ele>1262.29</ele>
        <time>2018-09-04T08:15:53Z</time>
      </trkpt>
      <trkpt lat="41.81086" lon="9.20201">
        <ele>1261.56</ele>
        <time>2018-09-04T08:16:14Z</time>
      </trkpt>
      <trkpt lat="41.81078" lon="9.20185">
        <ele>1259.63</ele>
        <time>2018-09-04T08:16:31Z</time>
      </trkpt>
      <trkpt lat="41.8107" lon="9.20167">
        <ele>1257.73</ele>
        <time>2018-09-04T08:16:46Z</time>
      </trkpt>
      <trkpt lat="41.81068" lon="9.20161">
        <ele>1257.76</ele>
        <time>2018-09-04T08:16:50Z</time>
      </trkpt>
      <trkpt lat="41.81066" lon="9.20159">
        <ele>1257.77</ele>
        <time>2018-09-04T08:16:52Z</time>
      </trkpt>
      <trkpt lat="41.81063" lon="9.20156">
        <ele>1257.9</ele>
        <time>2018-09-04T08:17:00Z</time>
      </trkpt>
      <trkpt lat="41.81059" lon="9.20152">
        <ele>1258</ele>
        <time>2018-09-04T08:17:14Z</time>
      </trkpt>
      <trkpt lat="41.8105" lon="9.20151">
        <ele>1258.03</ele>
        <time>2018-09-04T08:17:27Z</time>
      </trkpt>
      <trkpt lat="41.8104" lon="9.20155">
        <ele>1254.11</ele>
        <time>2018-09-04T08:17:44Z</time>
      </trkpt>
      <trkpt lat="41.8103" lon="9.20149">
        <ele>1256.77</ele>
        <time>2018-09-04T08:18:03Z</time>
      </trkpt>
      <trkpt lat="41.81022" lon="9.20134">
        <ele>1256.78</ele>
        <time>2018-09-04T08:18:19Z</time>
      </trkpt>
      <trkpt lat="41.81006" lon="9.20125">
        <ele>1257.81</ele>
        <time>2018-09-04T08:18:36Z</time>
      </trkpt>
      <trkpt lat="41.80988" lon="9.20118">
        <ele>1257.75</ele>
        <time>2018-09-04T08:18:56Z</time>
      </trkpt>
      <trkpt lat="41.80981" lon="9.20112">
        <ele>1255.41</ele>
        <time>2018-09-04T08:19:05Z</time>
      </trkpt>
      <trkpt lat="41.80964" lon="9.20098">
        <ele>1254.51</ele>
        <time>2018-09-04T08:19:27Z</time>
      </trkpt>
      <trkpt lat="41.80956" lon="9.20082">
        <ele>1253.25</ele>
        <time>2018-09-04T08:19:39Z</time>
      </trkpt>
      <trkpt lat="41.80952" lon="9.20076">
        <ele>1253.28</ele>
        <time>2018-09-04T08:19:42Z</time>
      </trkpt>
      <trkpt lat="41.80938" lon="9.20059">
        <ele>1252.5</ele>
        <time>2018-09-04T08:19:55Z</time>
      </trkpt>
      <trkpt lat="41.80937" lon="9.20056">
        <ele>1251.25</ele>
        <time>2018-09-04T08:19:57Z</time>
      </trkpt>
      <trkpt lat="41.80934" lon="9.20055">
        <ele>1251.27</ele>
        <time>2018-09-04T08:20:00Z</time>
      </trkpt>
      <trkpt lat="41.80931" lon="9.20054">
        <ele>1251.22</ele>
        <time>2018-09-04T08:20:03Z</time>
      </trkpt>
      <trkpt lat="41.80922" lon="9.20058">
        <ele>1250.51</ele>
        <time>2018-09-04T08:20:12Z</time>
      </trkpt>
      <trkpt lat="41.80913" lon="9.20065">
        <ele>1250.62</ele>
        <time>2018-09-04T08:20:23Z</time>
      </trkpt>
      <trkpt lat="41.80897" lon="9.2007">
        <ele>1249.68</ele>
        <time>2018-09-04T08:20:43Z</time>
      </trkpt>
      <trkpt lat="41.80885" lon="9.20073">
        <ele>1248.02</ele>
        <time>2018-09-04T08:20:58Z</time>
      </trkpt>
      <trkpt lat="41.80875" lon="9.20073">
        <ele>1247.03</ele>
        <time>2018-09-04T08:21:10Z</time>
      </trkpt>
      <trkpt lat="41.80865" lon="9.20071">
        <ele>1245.1</ele>
        <time>2018-09-04T08:21:25Z</time>
      </trkpt>
      <trkpt lat="41.80854" lon="9.20063">
        <ele>1244.35</ele>
        <time>2018-09-04T08:21:44Z</time>
      </trkpt>
      <trkpt lat="41.80847" lon="9.20059">
        <ele>1243.47</ele>
        <time>2018-09-04T08:21:51Z</time>
      </trkpt>
      <trkpt lat="41.80835" lon="9.20055">
        <ele>1242.7</ele>
        <time>2018-09-04T08:22:06Z</time>
      </trkpt>
      <trkpt lat="41.80833" lon="9.20048">
        <ele>1240.97</ele>
        <time>2018-09-04T08:22:21Z</time>
      </trkpt>
      <trkpt lat="41.80822" lon="9.20038">
        <ele>1239.29</ele>
        <time>2018-09-04T08:22:37Z</time>
      </trkpt>
      <trkpt lat="41.8081" lon="9.2003">
        <ele>1238.35</ele>
        <time>2018-09-04T08:22:55Z</time>
      </trkpt>
      <trkpt lat="41.80795" lon="9.20024">
        <ele>1237.5</ele>
        <time>2018-09-04T08:23:10Z</time>
      </trkpt>
      <trkpt lat="41.80791" lon="9.20022">
        <ele>1235.74</ele>
        <time>2018-09-04T08:23:30Z</time>
      </trkpt>
      <trkpt lat="41.80783" lon="9.20015">
        <ele>1237.2</ele>
        <time>2018-09-04T08:23:49Z</time>
      </trkpt>
      <trkpt lat="41.80774" lon="9.20012">
        <ele>1239.88</ele>
        <time>2018-09-04T08:24:08Z</time>
      </trkpt>
      <trkpt lat="41.80771" lon="9.19995">
        <ele>1241.79</ele>
        <time>2018-09-04T08:24:27Z</time>
      </trkpt>
      <trkpt lat="41.80768" lon="9.19981">
        <ele>1244.17</ele>
        <time>2018-09-04T08:24:49Z</time>
      </trkpt>
      <trkpt lat="41.80765" lon="9.19966">
        <ele>1247.09</ele>
        <time>2018-09-04T08:25:09Z</time>
      </trkpt>
      <trkpt lat="41.8076" lon="9.19958">
        <ele>1249.06</ele>
        <time>2018-09-04T08:25:25Z</time>
      </trkpt>
      <trkpt lat="41.80751" lon="9.19954">
        <ele>1251.7</ele>
        <time>2018-09-04T08:25:46Z</time>
      </trkpt>
      <trkpt lat="41.80742" lon="9.19958">
        <ele>1254.57</ele>
        <time>2018-09-04T08:26:09Z</time>
      </trkpt>
      <trkpt lat="41.80737" lon="9.1996">
        <ele>1256.75</ele>
        <time>2018-09-04T08:26:25Z</time>
      </trkpt>
      <trkpt lat="41.80729" lon="9.19962">
        <ele>1259.59</ele>
        <time>2018-09-04T08:26:47Z</time>
      </trkpt>
      <trkpt lat="41.80725" lon="9.19968">
        <ele>1261.82</ele>
        <time>2018-09-04T08:27:06Z</time>
      </trkpt>
      <trkpt lat="41.80725" lon="9.19973">
        <ele>1264.04</ele>
        <time>2018-09-04T08:27:18Z</time>
      </trkpt>
      <trkpt lat="41.80716" lon="9.19971">
        <ele>1264.74</ele>
        <time>2018-09-04T08:27:34Z</time>
      </trkpt>
      <trkpt lat="41.80706" lon="9.19968">
        <ele>1267.86</ele>
        <time>2018-09-04T08:27:51Z</time>
      </trkpt>
      <trkpt lat="41.807" lon="9.19962">
        <ele>1267.7</ele>
        <time>2018-09-04T08:28:07Z</time>
      </trkpt>
      <trkpt lat="41.80697" lon="9.19961">
        <ele>1265.01</ele>
        <time>2018-09-04T08:28:17Z</time>
      </trkpt>
      <trkpt lat="41.80693" lon="9.19955">
        <ele>1263.04</ele>
        <time>2018-09-04T08:28:35Z</time>
      </trkpt>
      <trkpt lat="41.8069" lon="9.19953">
        <ele>1261.71</ele>
        <time>2018-09-04T08:28:43Z</time>
      </trkpt>
      <trkpt lat="41.80682" lon="9.1995">
        <ele>1259.87</ele>
        <time>2018-09-04T08:29:03Z</time>
      </trkpt>
      <trkpt lat="41.80677" lon="9.19944">
        <ele>1257.11</ele>
        <time>2018-09-04T08:29:25Z</time>
      </trkpt>
      <trkpt lat="41.80671" lon="9.19932">
        <ele>1254.51</ele>
        <time>2018-09-04T08:29:44Z</time>
      </trkpt>
      <trkpt lat="41.8067" lon="9.19922">
        <ele>1251.97</ele>
        <time>2018-09-04T08:30:04Z</time>
      </trkpt>
      <trkpt lat="41.80667" lon="9.19907">
        <ele>1248.63</ele>
        <time>2018-09-04T08:30:22Z</time>
      </trkpt>
      <trkpt lat="41.80663" lon="9.19899">
        <ele>1246.17</ele>
        <time>2018-09-04T08:30:41Z</time>
      </trkpt>
      <trkpt lat="41.80661" lon="9.19885">
        <ele>1245.09</ele>
        <time>2018-09-04T08:30:57Z</time>
      </trkpt>
      <trkpt lat="41.80661" lon="9.19877">
        <ele>1243.7</ele>
        <time>2018-09-04T08:31:03Z</time>
      </trkpt>
      <trkpt lat="41.8066" lon="9.19873">
        <ele>1243.75</ele>
        <time>2018-09-04T08:31:06Z</time>
      </trkpt>
      <trkpt lat="41.80653" lon="9.19855">
        <ele>1243.16</ele>
        <time>2018-09-04T08:31:25Z</time>
      </trkpt>
      <trkpt lat="41.80644" lon="9.19847">
        <ele>1243.24</ele>
        <time>2018-09-04T08:31:37Z</time>
      </trkpt>
      <trkpt lat="41.80639" lon="9.19845">
        <ele>1243.28</ele>
        <time>2018-09-04T08:31:41Z</time>
      </trkpt>
      <trkpt lat="41.80627" lon="9.19839">
        <ele>1242.49</ele>
        <time>2018-09-04T08:31:57Z</time>
      </trkpt>
      <trkpt lat="41.80617" lon="9.19829">
        <ele>1239.81</ele>
        <time>2018-09-04T08:32:17Z</time>
      </trkpt>
      <trkpt lat="41.80609" lon="9.19819">
        <ele>1237.85</ele>
        <time>2018-09-04T08:32:33Z</time>
      </trkpt>
      <trkpt lat="41.80608" lon="9.19815">
        <ele>1236.33</ele>
        <time>2018-09-04T08:32:37Z</time>
      </trkpt>
      <trkpt lat="41.806" lon="9.19804">
        <ele>1234.02</ele>
        <time>2018-09-04T08:32:54Z</time>
      </trkpt>
      <trkpt lat="41.80596" lon="9.19789">
        <ele>1232.46</ele>
        <time>2018-09-04T08:33:15Z</time>
      </trkpt>
      <trkpt lat="41.80593" lon="9.19785">
        <ele>1231.77</ele>
        <time>2018-09-04T08:33:38Z</time>
      </trkpt>
      <trkpt lat="41.80593" lon="9.19781">
        <ele>1231.86</ele>
        <time>2018-09-04T08:33:58Z</time>
      </trkpt>
      <trkpt lat="41.80592" lon="9.19775">
        <ele>1230.96</ele>
        <time>2018-09-04T08:34:16Z</time>
      </trkpt>
      <trkpt lat="41.80589" lon="9.19773">
        <ele>1233.34</ele>
        <time>2018-09-04T08:34:23Z</time>
      </trkpt>
      <trkpt lat="41.80583" lon="9.19765">
        <ele>1233.36</ele>
        <time>2018-09-04T08:34:38Z</time>
      </trkpt>
      <trkpt lat="41.80581" lon="9.19765">
        <ele>1231.01</ele>
        <time>2018-09-04T08:34:41Z</time>
      </trkpt>
      <trkpt lat="41.80575" lon="9.1976">
        <ele>1229</ele>
        <time>2018-09-04T08:34:58Z</time>
      </trkpt>
      <trkpt lat="41.80565" lon="9.19749">
        <ele>1226.51</ele>
        <time>2018-09-04T08:35:15Z</time>
      </trkpt>
      <trkpt lat="41.80557" lon="9.19746">
        <ele>1223.43</ele>
        <time>2018-09-04T08:35:31Z</time>
      </trkpt>
      <trkpt lat="41.80549" lon="9.19741">
        <ele>1221.34</ele>
        <time>2018-09-04T08:35:48Z</time>
      </trkpt>
      <trkpt lat="41.8054" lon="9.19736">
        <ele>1219.82</ele>
        <time>2018-09-04T08:36:06Z</time>
      </trkpt>
      <trkpt lat="41.8053" lon="9.19725">
        <ele>1217.86</ele>
        <time>2018-09-04T08:36:23Z</time>
      </trkpt>
      <trkpt lat="41.80529" lon="9.19722">
        <ele>1217.86</ele>
        <time>2018-09-04T08:36:25Z</time>
      </trkpt>
      <trkpt lat="41.80519" lon="9.19715">
        <ele>1216.4</ele>
        <time>2018-09-04T08:36:37Z</time>
      </trkpt>
      <trkpt lat="41.80508" lon="9.19708">
        <ele>1215.57</ele>
        <time>2018-09-04T08:36:54Z</time>
      </trkpt>
      <trkpt lat="41.80504" lon="9.19706">
        <ele>1213.36</ele>
        <time>2018-09-04T08:37:00Z</time>
      </trkpt>
      <trkpt lat="41.80494" lon="9.19694">
        <ele>1211.76</ele>
        <time>2018-09-04T08:37:17Z</time>
      </trkpt>
      <trkpt lat="41.80479" lon="9.19682">
        <ele>1210.13</ele>
        <time>2018-09-04T08:37:36Z</time>
      </trkpt>
      <trkpt lat="41.8047" lon="9.19676">
        <ele>1207.39</ele>
        <time>2018-09-04T08:37:51Z</time>
      </trkpt>
      <trkpt lat="41.80463" lon="9.19672">
        <ele>1205.51</ele>
        <time>2018-09-04T08:38:10Z</time>
      </trkpt>
      <trkpt lat="41.80459" lon="9.19665">
        <ele>1202.32</ele>
        <time>2018-09-04T08:38:26Z</time>
      </trkpt>
      <trkpt lat="41.8045" lon="9.19655">
        <ele>1200.49</ele>
        <time>2018-09-04T08:38:42Z</time>
      </trkpt>
      <trkpt lat="41.80441" lon="9.1964">
        <ele>1198.1</ele>
        <time>2018-09-04T08:39:00Z</time>
      </trkpt>
      <trkpt lat="41.80434" lon="9.19624">
        <ele>1196.34</ele>
        <time>2018-09-04T08:39:16Z</time>
      </trkpt>
      <trkpt lat="41.80432" lon="9.19608">
        <ele>1193.73</ele>
        <time>2018-09-04T08:39:31Z</time>
      </trkpt>
      <trkpt lat="41.80427" lon="9.19601">
        <ele>1190.99</ele>
        <time>2018-09-04T08:39:45Z</time>
      </trkpt>
      <trkpt lat="41.80422" lon="9.19599">
        <ele>1189.41</ele>
        <time>2018-09-04T08:40:08Z</time>
      </trkpt>
      <trkpt lat="41.80412" lon="9.19596">
        <ele>1186.89</ele>
        <time>2018-09-04T08:40:24Z</time>
      </trkpt>
      <trkpt lat="41.80404" lon="9.19598">
        <ele>1184.37</ele>
        <time>2018-09-04T08:40:41Z</time>
      </trkpt>
      <trkpt lat="41.80396" lon="9.19599">
        <ele>1182.49</ele>
        <time>2018-09-04T08:40:53Z</time>
      </trkpt>
      <trkpt lat="41.80385" lon="9.19602">
        <ele>1181.37</ele>
        <time>2018-09-04T08:41:08Z</time>
      </trkpt>
      <trkpt lat="41.80374" lon="9.196">
        <ele>1181.4</ele>
        <time>2018-09-04T08:41:20Z</time>
      </trkpt>
      <trkpt lat="41.80368" lon="9.19597">
        <ele>1183.86</ele>
        <time>2018-09-04T08:41:29Z</time>
      </trkpt>
      <trkpt lat="41.80362" lon="9.19593">
        <ele>1185.51</ele>
        <time>2018-09-04T08:41:44Z</time>
      </trkpt>
      <trkpt lat="41.80355" lon="9.19585">
        <ele>1187.02</ele>
        <time>2018-09-04T08:42:02Z</time>
      </trkpt>
      <trkpt lat="41.80354" lon="9.19583">
        <ele>1187.01</ele>
        <time>2018-09-04T08:42:04Z</time>
      </trkpt>
      <trkpt lat="41.80347" lon="9.19577">
        <ele>1187.01</ele>
        <time>2018-09-04T08:42:12Z</time>
      </trkpt>
      <trkpt lat="41.80336" lon="9.19571">
        <ele>1187.05</ele>
        <time>2018-09-04T08:42:24Z</time>
      </trkpt>
      <trkpt lat="41.80333" lon="9.19569">
        <ele>1184.74</ele>
        <time>2018-09-04T08:42:28Z</time>
      </trkpt>
      <trkpt lat="41.80326" lon="9.19573">
        <ele>1183.12</ele>
        <time>2018-09-04T08:42:42Z</time>
      </trkpt>
      <trkpt lat="41.8032" lon="9.1957">
        <ele>1180.55</ele>
        <time>2018-09-04T08:42:57Z</time>
      </trkpt>
      <trkpt lat="41.80314" lon="9.19565">
        <ele>1177.91</ele>
        <time>2018-09-04T08:43:12Z</time>
      </trkpt>
      <trkpt lat="41.80312" lon="9.19563">
        <ele>1176.48</ele>
        <time>2018-09-04T08:43:19Z</time>
      </trkpt>
      <trkpt lat="41.80301" lon="9.19559">
        <ele>1174.34</ele>
        <time>2018-09-04T08:43:34Z</time>
      </trkpt>
      <trkpt lat="41.80293" lon="9.19555">
        <ele>1172.47</ele>
        <time>2018-09-04T08:43:49Z</time>
      </trkpt>
      <trkpt lat="41.80294" lon="9.19548">
        <ele>1171.03</ele>
        <time>2018-09-04T08:43:58Z</time>
      </trkpt>
      <trkpt lat="41.80288" lon="9.19548">
        <ele>1170.05</ele>
        <time>2018-09-04T08:44:08Z</time>
      </trkpt>
      <trkpt lat="41.80276" lon="9.19548">
        <ele>1168.2</ele>
        <time>2018-09-04T08:44:23Z</time>
      </trkpt>
      <trkpt lat="41.80271" lon="9.19545">
        <ele>1166.34</ele>
        <time>2018-09-04T08:44:43Z</time>
      </trkpt>
      <trkpt lat="41.8027" lon="9.19543">
        <ele>1166.22</ele>
        <time>2018-09-04T08:45:02Z</time>
      </trkpt>
      <trkpt lat="41.8027" lon="9.19542">
        <ele>1166.12</ele>
        <time>2018-09-04T08:45:21Z</time>
      </trkpt>
      <trkpt lat="41.8026" lon="9.1954">
        <ele>1165.26</ele>
        <time>2018-09-04T08:45:38Z</time>
      </trkpt>
      <trkpt lat="41.80248" lon="9.1954">
        <ele>1164.41</ele>
        <time>2018-09-04T08:45:53Z</time>
      </trkpt>
      <trkpt lat="41.80246" lon="9.19539">
        <ele>1164.4</ele>
        <time>2018-09-04T08:45:56Z</time>
      </trkpt>
      <trkpt lat="41.80244" lon="9.19535">
        <ele>1164.38</ele>
        <time>2018-09-04T08:45:59Z</time>
      </trkpt>
      <trkpt lat="41.80241" lon="9.19533">
        <ele>1164.37</ele>
        <time>2018-09-04T08:46:03Z</time>
      </trkpt>
      <trkpt lat="41.80229" lon="9.19531">
        <ele>1163.3</ele>
        <time>2018-09-04T08:46:18Z</time>
      </trkpt>
      <trkpt lat="41.80221" lon="9.19526">
        <ele>1162.27</ele>
        <time>2018-09-04T08:46:33Z</time>
      </trkpt>
      <trkpt lat="41.8021" lon="9.19516">
        <ele>1161.55</ele>
        <time>2018-09-04T08:46:49Z</time>
      </trkpt>
      <trkpt lat="41.80202" lon="9.19508">
        <ele>1161.52</ele>
        <time>2018-09-04T08:47:01Z</time>
      </trkpt>
      <trkpt lat="41.80187" lon="9.19501">
        <ele>1160.51</ele>
        <time>2018-09-04T08:47:17Z</time>
      </trkpt>
      <trkpt lat="41.80177" lon="9.19495">
        <ele>1159.57</ele>
        <time>2018-09-04T08:47:29Z</time>
      </trkpt>
      <trkpt lat="41.80168" lon="9.19489">
        <ele>1159.59</ele>
        <time>2018-09-04T08:47:43Z</time>
      </trkpt>
      <trkpt lat="41.80166" lon="9.19486">
        <ele>1158.62</ele>
        <time>2018-09-04T08:47:48Z</time>
      </trkpt>
      <trkpt lat="41.80155" lon="9.19481">
        <ele>1156.89</ele>
        <time>2018-09-04T08:48:05Z</time>
      </trkpt>
      <trkpt lat="41.8015" lon="9.19475">
        <ele>1156.17</ele>
        <time>2018-09-04T08:48:14Z</time>
      </trkpt>
      <trkpt lat="41.80148" lon="9.19473">
        <ele>1154.91</ele>
        <time>2018-09-04T08:48:16Z</time>
      </trkpt>
      <trkpt lat="41.80143" lon="9.19471">
        <ele>1154.91</ele>
        <time>2018-09-04T08:48:21Z</time>
      </trkpt>
      <trkpt lat="41.80137" lon="9.19468">
        <ele>1154.92</ele>
        <time>2018-09-04T08:48:27Z</time>
      </trkpt>
      <trkpt lat="41.80124" lon="9.19458">
        <ele>1153.87</ele>
        <time>2018-09-04T08:48:40Z</time>
      </trkpt>
      <trkpt lat="41.80113" lon="9.19452">
        <ele>1153.88</ele>
        <time>2018-09-04T08:48:51Z</time>
      </trkpt>
      <trkpt lat="41.80112" lon="9.19452">
        <ele>1153.87</ele>
        <time>2018-09-04T08:48:53Z</time>
      </trkpt>
      <trkpt lat="41.80104" lon="9.1945">
        <ele>1153.86</ele>
        <time>2018-09-04T08:49:03Z</time>
      </trkpt>
      <trkpt lat="41.80099" lon="9.19449">
        <ele>1153.76</ele>
        <time>2018-09-04T08:49:08Z</time>
      </trkpt>
      <trkpt lat="41.8009" lon="9.19443">
        <ele>1153.06</ele>
        <time>2018-09-04T08:49:21Z</time>
      </trkpt>
      <trkpt lat="41.80086" lon="9.1944">
        <ele>1152.04</ele>
        <time>2018-09-04T08:49:26Z</time>
      </trkpt>
      <trkpt lat="41.80082" lon="9.19435">
        <ele>1150.43</ele>
        <time>2018-09-04T08:49:36Z</time>
      </trkpt>
      <trkpt lat="41.80073" lon="9.19429">
        <ele>1150.43</ele>
        <time>2018-09-04T08:49:46Z</time>
      </trkpt>
      <trkpt lat="41.8006" lon="9.1942">
        <ele>1150.49</ele>
        <time>2018-09-04T08:50:01Z</time>
      </trkpt>
      <trkpt lat="41.8005" lon="9.19415">
        <ele>1150.55</ele>
        <time>2018-09-04T08:50:11Z</time>
      </trkpt>
      <trkpt lat="41.80042" lon="9.1941">
        <ele>1148.97</ele>
        <time>2018-09-04T08:50:21Z</time>
      </trkpt>
      <trkpt lat="41.80041" lon="9.19408">
        <ele>1148.96</ele>
        <time>2018-09-04T08:50:23Z</time>
      </trkpt>
      <trkpt lat="41.80037" lon="9.19405">
        <ele>1148.94</ele>
        <time>2018-09-04T08:50:28Z</time>
      </trkpt>
      <trkpt lat="41.80026" lon="9.19399">
        <ele>1148.93</ele>
        <time>2018-09-04T08:50:43Z</time>
      </trkpt>
      <trkpt lat="41.80024" lon="9.19399">
        <ele>1147.12</ele>
        <time>2018-09-04T08:50:54Z</time>
      </trkpt>
      <trkpt lat="41.80019" lon="9.19395">
        <ele>1145.86</ele>
        <time>2018-09-04T08:51:08Z</time>
      </trkpt>
      <trkpt lat="41.80015" lon="9.19394">
        <ele>1144.31</ele>
        <time>2018-09-04T08:51:21Z</time>
      </trkpt>
      <trkpt lat="41.80014" lon="9.1939">
        <ele>1142.17</ele>
        <time>2018-09-04T08:51:35Z</time>
      </trkpt>
      <trkpt lat="41.80014" lon="9.19389">
        <ele>1140.76</ele>
        <time>2018-09-04T08:51:41Z</time>
      </trkpt>
      <trkpt lat="41.8001" lon="9.19389">
        <ele>1140.79</ele>
        <time>2018-09-04T08:51:55Z</time>
      </trkpt>
      <trkpt lat="41.80005" lon="9.1939">
        <ele>1137.36</ele>
        <time>2018-09-04T08:52:07Z</time>
      </trkpt>
      <trkpt lat="41.80005" lon="9.1939">
        <ele>1137.36</ele>
        <time>2018-09-04T08:52:08Z</time>
      </trkpt>
      <trkpt lat="41.8" lon="9.1939">
        <ele>1135.41</ele>
        <time>2018-09-04T08:52:21Z</time>
      </trkpt>
      <trkpt lat="41.79997" lon="9.19393">
        <ele>1134.17</ele>
        <time>2018-09-04T08:52:28Z</time>
      </trkpt>
      <trkpt lat="41.79993" lon="9.19392">
        <ele>1133</ele>
        <time>2018-09-04T08:52:44Z</time>
      </trkpt>
      <trkpt lat="41.79989" lon="9.19389">
        <ele>1131.97</ele>
        <time>2018-09-04T08:52:54Z</time>
      </trkpt>
      <trkpt lat="41.79982" lon="9.19397">
        <ele>1129.83</ele>
        <time>2018-09-04T08:53:08Z</time>
      </trkpt>
      <trkpt lat="41.79973" lon="9.194">
        <ele>1127.96</ele>
        <time>2018-09-04T08:53:20Z</time>
      </trkpt>
      <trkpt lat="41.79963" lon="9.194">
        <ele>1126.14</ele>
        <time>2018-09-04T08:53:34Z</time>
      </trkpt>
      <trkpt lat="41.79951" lon="9.19402">
        <ele>1125.2</ele>
        <time>2018-09-04T08:53:49Z</time>
      </trkpt>
      <trkpt lat="41.79941" lon="9.19408">
        <ele>1124.08</ele>
        <time>2018-09-04T08:54:03Z</time>
      </trkpt>
      <trkpt lat="41.79933" lon="9.1941">
        <ele>1124.07</ele>
        <time>2018-09-04T08:54:13Z</time>
      </trkpt>
      <trkpt lat="41.79921" lon="9.19412">
        <ele>1122.79</ele>
        <time>2018-09-04T08:54:27Z</time>
      </trkpt>
      <trkpt lat="41.79913" lon="9.19414">
        <ele>1122.84</ele>
        <time>2018-09-04T08:54:39Z</time>
      </trkpt>
      <trkpt lat="41.79912" lon="9.19414">
        <ele>1122.86</ele>
        <time>2018-09-04T08:54:40Z</time>
      </trkpt>
      <trkpt lat="41.79906" lon="9.19417">
        <ele>1122.81</ele>
        <time>2018-09-04T08:54:54Z</time>
      </trkpt>
      <trkpt lat="41.79901" lon="9.19423">
        <ele>1122.82</ele>
        <time>2018-09-04T08:55:06Z</time>
      </trkpt>
      <trkpt lat="41.7989" lon="9.19423">
        <ele>1122.72</ele>
        <time>2018-09-04T08:55:21Z</time>
      </trkpt>
      <trkpt lat="41.79885" lon="9.19425">
        <ele>1125.26</ele>
        <time>2018-09-04T08:55:29Z</time>
      </trkpt>
      <trkpt lat="41.79877" lon="9.19427">
        <ele>1125.19</ele>
        <time>2018-09-04T08:55:38Z</time>
      </trkpt>
      <trkpt lat="41.79868" lon="9.19424">
        <ele>1125.14</ele>
        <time>2018-09-04T08:55:51Z</time>
      </trkpt>
      <trkpt lat="41.79854" lon="9.19418">
        <ele>1125.1</ele>
        <time>2018-09-04T08:56:06Z</time>
      </trkpt>
      <trkpt lat="41.79849" lon="9.19414">
        <ele>1125.12</ele>
        <time>2018-09-04T08:56:11Z</time>
      </trkpt>
      <trkpt lat="41.79841" lon="9.19415">
        <ele>1125.11</ele>
        <time>2018-09-04T08:56:21Z</time>
      </trkpt>
      <trkpt lat="41.79839" lon="9.19416">
        <ele>1125.09</ele>
        <time>2018-09-04T08:56:23Z</time>
      </trkpt>
      <trkpt lat="41.79826" lon="9.19419">
        <ele>1125.07</ele>
        <time>2018-09-04T08:56:39Z</time>
      </trkpt>
      <trkpt lat="41.79815" lon="9.19424">
        <ele>1125.02</ele>
        <time>2018-09-04T08:56:55Z</time>
      </trkpt>
      <trkpt lat="41.79806" lon="9.19428">
        <ele>1125.83</ele>
        <time>2018-09-04T08:57:07Z</time>
      </trkpt>
      <trkpt lat="41.79795" lon="9.19433">
        <ele>1125.73</ele>
        <time>2018-09-04T08:57:21Z</time>
      </trkpt>
      <trkpt lat="41.79784" lon="9.19439">
        <ele>1125.72</ele>
        <time>2018-09-04T08:57:34Z</time>
      </trkpt>
      <trkpt lat="41.79772" lon="9.19442">
        <ele>1125.62</ele>
        <time>2018-09-04T08:57:48Z</time>
      </trkpt>
      <trkpt lat="41.79771" lon="9.19442">
        <ele>1125.48</ele>
        <time>2018-09-04T08:58:08Z</time>
      </trkpt>
      <trkpt lat="41.79767" lon="9.19444">
        <ele>1125.39</ele>
        <time>2018-09-04T08:58:24Z</time>
      </trkpt>
      <trkpt lat="41.79767" lon="9.19441">
        <ele>1125.32</ele>
        <time>2018-09-04T08:58:37Z</time>
      </trkpt>
      <trkpt lat="41.79767" lon="9.19441">
        <ele>1121.56</ele>
        <time>2018-09-04T08:58:40Z</time>
      </trkpt>
      <trkpt lat="41.79767" lon="9.19441">
        <ele>1121.55</ele>
        <time>2018-09-04T08:58:41Z</time>
      </trkpt>
      <trkpt lat="41.79767" lon="9.19441">
        <ele>1124.65</ele>
        <time>2018-09-04T08:58:42Z</time>
      </trkpt>
      <trkpt lat="41.79767" lon="9.1944">
        <ele>1124.64</ele>
        <time>2018-09-04T08:58:43Z</time>
      </trkpt>
      <trkpt lat="41.79767" lon="9.19441">
        <ele>1121.31</ele>
        <time>2018-09-04T08:58:44Z</time>
      </trkpt>
      <trkpt lat="41.79767" lon="9.19441">
        <ele>1124.53</ele>
        <time>2018-09-04T08:58:45Z</time>
      </trkpt>
      <trkpt lat="41.79767" lon="9.19441">
        <ele>1120.96</ele>
        <time>2018-09-04T08:58:47Z</time>
      </trkpt>
      <trkpt lat="41.79766" lon="9.19441">
        <ele>1120.95</ele>
        <time>2018-09-04T08:58:48Z</time>
      </trkpt>
      <trkpt lat="41.79766" lon="9.19441">
        <ele>1124.63</ele>
        <time>2018-09-04T08:58:49Z</time>
      </trkpt>
      <trkpt lat="41.79766" lon="9.19441">
        <ele>1125.51</ele>
        <time>2018-09-04T08:58:51Z</time>
      </trkpt>
      <trkpt lat="41.79766" lon="9.19441">
        <ele>1122.23</ele>
        <time>2018-09-04T08:58:52Z</time>
      </trkpt>
      <trkpt lat="41.79766" lon="9.1944">
        <ele>1122.22</ele>
        <time>2018-09-04T08:58:53Z</time>
      </trkpt>
      <trkpt lat="41.79767" lon="9.19441">
        <ele>1124.17</ele>
        <time>2018-09-04T08:58:56Z</time>
      </trkpt>
      <trkpt lat="41.79766" lon="9.19441">
        <ele>1125.53</ele>
        <time>2018-09-04T08:58:58Z</time>
      </trkpt>
      <trkpt lat="41.79767" lon="9.19441">
        <ele>1122.49</ele>
        <time>2018-09-04T08:58:59Z</time>
      </trkpt>
      <trkpt lat="41.79767" lon="9.19441">
        <ele>1122.48</ele>
        <time>2018-09-04T08:59:00Z</time>
      </trkpt>
      <trkpt lat="41.79767" lon="9.19441">
        <ele>1125.25</ele>
        <time>2018-09-04T08:59:02Z</time>
      </trkpt>
      <trkpt lat="41.79767" lon="9.19441">
        <ele>1122.58</ele>
        <time>2018-09-04T08:59:04Z</time>
      </trkpt>
      <trkpt lat="41.79767" lon="9.19441">
        <ele>1124.93</ele>
        <time>2018-09-04T08:59:06Z</time>
      </trkpt>
      <trkpt lat="41.79766" lon="9.1944">
        <ele>1124.77</ele>
        <time>2018-09-04T08:59:35Z</time>
      </trkpt>
      <trkpt lat="41.79767" lon="9.19441">
        <ele>1124.62</ele>
        <time>2018-09-04T09:00:03Z</time>
      </trkpt>
      <trkpt lat="41.79766" lon="9.19441">
        <ele>1124.54</ele>
        <time>2018-09-04T09:00:16Z</time>
      </trkpt>
      <trkpt lat="41.79766" lon="9.19441">
        <ele>1124.45</ele>
        <time>2018-09-04T09:00:33Z</time>
      </trkpt>
      <trkpt lat="41.79765" lon="9.19441">
        <ele>1124.38</ele>
        <time>2018-09-04T09:00:56Z</time>
      </trkpt>
      <trkpt lat="41.7976" lon="9.19446">
        <ele>1124.28</ele>
        <time>2018-09-04T09:01:04Z</time>
      </trkpt>
      <trkpt lat="41.79757" lon="9.19445">
        <ele>1124.25</ele>
        <time>2018-09-04T09:01:08Z</time>
      </trkpt>
      <trkpt lat="41.79753" lon="9.19448">
        <ele>1121.67</ele>
        <time>2018-09-04T09:01:13Z</time>
      </trkpt>
      <trkpt lat="41.79745" lon="9.19451">
        <ele>1120.02</ele>
        <time>2018-09-04T09:01:26Z</time>
      </trkpt>
      <trkpt lat="41.79738" lon="9.19448">
        <ele>1119.11</ele>
        <time>2018-09-04T09:01:39Z</time>
      </trkpt>
      <trkpt lat="41.79732" lon="9.19444">
        <ele>1116.94</ele>
        <time>2018-09-04T09:01:51Z</time>
      </trkpt>
      <trkpt lat="41.79725" lon="9.19442">
        <ele>1113.25</ele>
        <time>2018-09-04T09:02:04Z</time>
      </trkpt>
      <trkpt lat="41.79722" lon="9.1944">
        <ele>1112.36</ele>
        <time>2018-09-04T09:02:21Z</time>
      </trkpt>
      <trkpt lat="41.79722" lon="9.19438">
        <ele>1112.38</ele>
        <time>2018-09-04T09:02:40Z</time>
      </trkpt>
      <trkpt lat="41.79719" lon="9.1943">
        <ele>1109.96</ele>
        <time>2018-09-04T09:02:51Z</time>
      </trkpt>
      <trkpt lat="41.79718" lon="9.19429">
        <ele>1109.95</ele>
        <time>2018-09-04T09:02:52Z</time>
      </trkpt>
      <trkpt lat="41.79712" lon="9.19427">
        <ele>1107.75</ele>
        <time>2018-09-04T09:03:05Z</time>
      </trkpt>
      <trkpt lat="41.79709" lon="9.19428">
        <ele>1106.07</ele>
        <time>2018-09-04T09:03:10Z</time>
      </trkpt>
      <trkpt lat="41.79707" lon="9.19428">
        <ele>1106.04</ele>
        <time>2018-09-04T09:03:12Z</time>
      </trkpt>
      <trkpt lat="41.79706" lon="9.19427">
        <ele>1104.77</ele>
        <time>2018-09-04T09:03:14Z</time>
      </trkpt>
      <trkpt lat="41.79702" lon="9.19417">
        <ele>1103.85</ele>
        <time>2018-09-04T09:03:27Z</time>
      </trkpt>
      <trkpt lat="41.79702" lon="9.19412">
        <ele>1103.04</ele>
        <time>2018-09-04T09:03:39Z</time>
      </trkpt>
      <trkpt lat="41.79699" lon="9.19408">
        <ele>1100.63</ele>
        <time>2018-09-04T09:03:46Z</time>
      </trkpt>
      <trkpt lat="41.79694" lon="9.19407">
        <ele>1099.01</ele>
        <time>2018-09-04T09:03:57Z</time>
      </trkpt>
      <trkpt lat="41.79693" lon="9.19405">
        <ele>1097.61</ele>
        <time>2018-09-04T09:04:01Z</time>
      </trkpt>
      <trkpt lat="41.79693" lon="9.19397">
        <ele>1095.52</ele>
        <time>2018-09-04T09:04:12Z</time>
      </trkpt>
      <trkpt lat="41.79693" lon="9.19396">
        <ele>1095.5</ele>
        <time>2018-09-04T09:04:13Z</time>
      </trkpt>
      <trkpt lat="41.79691" lon="9.19393">
        <ele>1094.52</ele>
        <time>2018-09-04T09:04:25Z</time>
      </trkpt>
      <trkpt lat="41.79691" lon="9.19392">
        <ele>1093.1</ele>
        <time>2018-09-04T09:04:27Z</time>
      </trkpt>
      <trkpt lat="41.79687" lon="9.19386">
        <ele>1092.21</ele>
        <time>2018-09-04T09:04:39Z</time>
      </trkpt>
      <trkpt lat="41.79685" lon="9.19386">
        <ele>1089.96</ele>
        <time>2018-09-04T09:04:42Z</time>
      </trkpt>
      <trkpt lat="41.79677" lon="9.19383">
        <ele>1088.38</ele>
        <time>2018-09-04T09:04:55Z</time>
      </trkpt>
      <trkpt lat="41.79674" lon="9.1938">
        <ele>1086.22</ele>
        <time>2018-09-04T09:05:02Z</time>
      </trkpt>
      <trkpt lat="41.79665" lon="9.19378">
        <ele>1083.55</ele>
        <time>2018-09-04T09:05:16Z</time>
      </trkpt>
      <trkpt lat="41.79662" lon="9.19372">
        <ele>1081.52</ele>
        <time>2018-09-04T09:05:30Z</time>
      </trkpt>
      <trkpt lat="41.79664" lon="9.19363">
        <ele>1079.53</ele>
        <time>2018-09-04T09:05:43Z</time>
      </trkpt>
      <trkpt lat="41.7966" lon="9.19359">
        <ele>1077.76</ele>
        <time>2018-09-04T09:05:54Z</time>
      </trkpt>
      <trkpt lat="41.79656" lon="9.19357">
        <ele>1076.13</ele>
        <time>2018-09-04T09:05:59Z</time>
      </trkpt>
      <trkpt lat="41.79647" lon="9.19357">
        <ele>1075.27</ele>
        <time>2018-09-04T09:06:11Z</time>
      </trkpt>
      <trkpt lat="41.79644" lon="9.19358">
        <ele>1073.95</ele>
        <time>2018-09-04T09:06:17Z</time>
      </trkpt>
      <trkpt lat="41.7964" lon="9.19353">
        <ele>1072.23</ele>
        <time>2018-09-04T09:06:28Z</time>
      </trkpt>
      <trkpt lat="41.79634" lon="9.19357">
        <ele>1069.44</ele>
        <time>2018-09-04T09:06:41Z</time>
      </trkpt>
      <trkpt lat="41.7963" lon="9.19362">
        <ele>1067.51</ele>
        <time>2018-09-04T09:06:53Z</time>
      </trkpt>
      <trkpt lat="41.79623" lon="9.19373">
        <ele>1065.76</ele>
        <time>2018-09-04T09:07:09Z</time>
      </trkpt>
      <trkpt lat="41.79622" lon="9.19374">
        <ele>1063.86</ele>
        <time>2018-09-04T09:07:34Z</time>
      </trkpt>
      <trkpt lat="41.79619" lon="9.19383">
        <ele>1062.51</ele>
        <time>2018-09-04T09:07:48Z</time>
      </trkpt>
      <trkpt lat="41.79616" lon="9.19391">
        <ele>1061.67</ele>
        <time>2018-09-04T09:08:03Z</time>
      </trkpt>
      <trkpt lat="41.79612" lon="9.19394">
        <ele>1058.94</ele>
        <time>2018-09-04T09:08:17Z</time>
      </trkpt>
      <trkpt lat="41.79608" lon="9.19399">
        <ele>1057.25</ele>
        <time>2018-09-04T09:08:32Z</time>
      </trkpt>
      <trkpt lat="41.79603" lon="9.19406">
        <ele>1054.74</ele>
        <time>2018-09-04T09:08:44Z</time>
      </trkpt>
      <trkpt lat="41.79602" lon="9.19412">
        <ele>1053.89</ele>
        <time>2018-09-04T09:08:51Z</time>
      </trkpt>
      <trkpt lat="41.79599" lon="9.1942">
        <ele>1053.91</ele>
        <time>2018-09-04T09:08:58Z</time>
      </trkpt>
      <trkpt lat="41.79591" lon="9.19432">
        <ele>1052.99</ele>
        <time>2018-09-04T09:09:12Z</time>
      </trkpt>
      <trkpt lat="41.79583" lon="9.19449">
        <ele>1052.96</ele>
        <time>2018-09-04T09:09:25Z</time>
      </trkpt>
      <trkpt lat="41.79583" lon="9.19454">
        <ele>1052.96</ele>
        <time>2018-09-04T09:09:29Z</time>
      </trkpt>
      <trkpt lat="41.79579" lon="9.19462">
        <ele>1051.86</ele>
        <time>2018-09-04T09:09:36Z</time>
      </trkpt>
      <trkpt lat="41.7957" lon="9.19477">
        <ele>1049.86</ele>
        <time>2018-09-04T09:09:50Z</time>
      </trkpt>
      <trkpt lat="41.79565" lon="9.19489">
        <ele>1049.87</ele>
        <time>2018-09-04T09:09:58Z</time>
      </trkpt>
      <trkpt lat="41.79553" lon="9.19503">
        <ele>1049.83</ele>
        <time>2018-09-04T09:10:11Z</time>
      </trkpt>
      <trkpt lat="41.79551" lon="9.19509">
        <ele>1049.84</ele>
        <time>2018-09-04T09:10:15Z</time>
      </trkpt>
      <trkpt lat="41.79549" lon="9.19516">
        <ele>1049.84</ele>
        <time>2018-09-04T09:10:22Z</time>
      </trkpt>
      <trkpt lat="41.79548" lon="9.19522">
        <ele>1048.85</ele>
        <time>2018-09-04T09:10:28Z</time>
      </trkpt>
      <trkpt lat="41.79541" lon="9.19542">
        <ele>1048.04</ele>
        <time>2018-09-04T09:10:43Z</time>
      </trkpt>
      <trkpt lat="41.79536" lon="9.19567">
        <ele>1047.23</ele>
        <time>2018-09-04T09:11:00Z</time>
      </trkpt>
      <trkpt lat="41.79532" lon="9.19579">
        <ele>1046.28</ele>
        <time>2018-09-04T09:11:15Z</time>
      </trkpt>
      <trkpt lat="41.79528" lon="9.1959">
        <ele>1046.22</ele>
        <time>2018-09-04T09:11:37Z</time>
      </trkpt>
      <trkpt lat="41.79522" lon="9.19613">
        <ele>1044.54</ele>
        <time>2018-09-04T09:11:52Z</time>
      </trkpt>
      <trkpt lat="41.79519" lon="9.19623">
        <ele>1044.55</ele>
        <time>2018-09-04T09:11:59Z</time>
      </trkpt>
      <trkpt lat="41.79509" lon="9.19648">
        <ele>1044.55</ele>
        <time>2018-09-04T09:12:17Z</time>
      </trkpt>
      <trkpt lat="41.79508" lon="9.19654">
        <ele>1044.5</ele>
        <time>2018-09-04T09:12:31Z</time>
      </trkpt>
      <trkpt lat="41.79508" lon="9.19655">
        <ele>1044.45</ele>
        <time>2018-09-04T09:12:58Z</time>
      </trkpt>
      <trkpt lat="41.79508" lon="9.19663">
        <ele>1044.41</ele>
        <time>2018-09-04T09:13:15Z</time>
      </trkpt>
      <trkpt lat="41.79506" lon="9.19679">
        <ele>1046.93</ele>
        <time>2018-09-04T09:13:30Z</time>
      </trkpt>
      <trkpt lat="41.79507" lon="9.1969">
        <ele>1046.92</ele>
        <time>2018-09-04T09:13:38Z</time>
      </trkpt>
      <trkpt lat="41.7951" lon="9.19699">
        <ele>1046.91</ele>
        <time>2018-09-04T09:13:46Z</time>
      </trkpt>
      <trkpt lat="41.79513" lon="9.19706">
        <ele>1046.9</ele>
        <time>2018-09-04T09:13:53Z</time>
      </trkpt>
      <trkpt lat="41.79514" lon="9.19711">
        <ele>1044.56</ele>
        <time>2018-09-04T09:13:56Z</time>
      </trkpt>
      <trkpt lat="41.7952" lon="9.19732">
        <ele>1043.75</ele>
        <time>2018-09-04T09:14:09Z</time>
      </trkpt>
      <trkpt lat="41.79525" lon="9.19749">
        <ele>1043.81</ele>
        <time>2018-09-04T09:14:20Z</time>
      </trkpt>
      <trkpt lat="41.79527" lon="9.19764">
        <ele>1042.95</ele>
        <time>2018-09-04T09:14:30Z</time>
      </trkpt>
      <trkpt lat="41.79531" lon="9.19776">
        <ele>1042.96</ele>
        <time>2018-09-04T09:14:37Z</time>
      </trkpt>
      <trkpt lat="41.79537" lon="9.19784">
        <ele>1043</ele>
        <time>2018-09-04T09:14:44Z</time>
      </trkpt>
      <trkpt lat="41.79542" lon="9.19799">
        <ele>1043.08</ele>
        <time>2018-09-04T09:14:57Z</time>
      </trkpt>
      <trkpt lat="41.79546" lon="9.19808">
        <ele>1042.21</ele>
        <time>2018-09-04T09:15:06Z</time>
      </trkpt>
      <trkpt lat="41.79547" lon="9.19828">
        <ele>1041.56</ele>
        <time>2018-09-04T09:15:20Z</time>
      </trkpt>
      <trkpt lat="41.79548" lon="9.19834">
        <ele>1041.59</ele>
        <time>2018-09-04T09:15:24Z</time>
      </trkpt>
      <trkpt lat="41.79549" lon="9.1984">
        <ele>1041.62</ele>
        <time>2018-09-04T09:15:28Z</time>
      </trkpt>
      <trkpt lat="41.79552" lon="9.19846">
        <ele>1041.68</ele>
        <time>2018-09-04T09:15:33Z</time>
      </trkpt>
      <trkpt lat="41.79558" lon="9.19859">
        <ele>1041.73</ele>
        <time>2018-09-04T09:15:43Z</time>
      </trkpt>
      <trkpt lat="41.79562" lon="9.19862">
        <ele>1044.31</ele>
        <time>2018-09-04T09:15:48Z</time>
      </trkpt>
      <trkpt lat="41.79573" lon="9.19871">
        <ele>1045.27</ele>
        <time>2018-09-04T09:16:02Z</time>
      </trkpt>
      <trkpt lat="41.79575" lon="9.19879">
        <ele>1045.32</ele>
        <time>2018-09-04T09:16:12Z</time>
      </trkpt>
      <trkpt lat="41.79577" lon="9.19885">
        <ele>1045.34</ele>
        <time>2018-09-04T09:16:17Z</time>
      </trkpt>
      <trkpt lat="41.7958" lon="9.19888">
        <ele>1045.36</ele>
        <time>2018-09-04T09:16:21Z</time>
      </trkpt>
      <trkpt lat="41.79586" lon="9.19896">
        <ele>1047.06</ele>
        <time>2018-09-04T09:16:32Z</time>
      </trkpt>
      <trkpt lat="41.7959" lon="9.19906">
        <ele>1047.08</ele>
        <time>2018-09-04T09:16:41Z</time>
      </trkpt>
      <trkpt lat="41.79595" lon="9.19918">
        <ele>1047.09</ele>
        <time>2018-09-04T09:16:51Z</time>
      </trkpt>
      <trkpt lat="41.79604" lon="9.19931">
        <ele>1047.18</ele>
        <time>2018-09-04T09:17:06Z</time>
      </trkpt>
      <trkpt lat="41.79606" lon="9.19933">
        <ele>1047.2</ele>
        <time>2018-09-04T09:17:09Z</time>
      </trkpt>
      <trkpt lat="41.79608" lon="9.19938">
        <ele>1047.21</ele>
        <time>2018-09-04T09:17:12Z</time>
      </trkpt>
      <trkpt lat="41.79611" lon="9.19948">
        <ele>1044.57</ele>
        <time>2018-09-04T09:17:20Z</time>
      </trkpt>
      <trkpt lat="41.79615" lon="9.19964">
        <ele>1043.89</ele>
        <time>2018-09-04T09:17:35Z</time>
      </trkpt>
      <trkpt lat="41.79614" lon="9.19981">
        <ele>1044.1</ele>
        <time>2018-09-04T09:17:53Z</time>
      </trkpt>
      <trkpt lat="41.79613" lon="9.19992">
        <ele>1046.82</ele>
        <time>2018-09-04T09:18:04Z</time>
      </trkpt>
      <trkpt lat="41.79614" lon="9.20004">
        <ele>1047.85</ele>
        <time>2018-09-04T09:18:18Z</time>
      </trkpt>
      <trkpt lat="41.79614" lon="9.20009">
        <ele>1047.9</ele>
        <time>2018-09-04T09:18:24Z</time>
      </trkpt>
      <trkpt lat="41.79615" lon="9.20019">
        <ele>1045.64</ele>
        <time>2018-09-04T09:18:31Z</time>
      </trkpt>
      <trkpt lat="41.79612" lon="9.20031">
        <ele>1045.76</ele>
        <time>2018-09-04T09:18:44Z</time>
      </trkpt>
      <trkpt lat="41.79609" lon="9.20033">
        <ele>1045.8</ele>
        <time>2018-09-04T09:18:48Z</time>
      </trkpt>
      <trkpt lat="41.79601" lon="9.20045">
        <ele>1045.86</ele>
        <time>2018-09-04T09:19:00Z</time>
      </trkpt>
      <trkpt lat="41.796" lon="9.20047">
        <ele>1045.86</ele>
        <time>2018-09-04T09:19:02Z</time>
      </trkpt>
      <trkpt lat="41.79598" lon="9.20049">
        <ele>1048.43</ele>
        <time>2018-09-04T09:19:04Z</time>
      </trkpt>
      <trkpt lat="41.79591" lon="9.20057">
        <ele>1048.44</ele>
        <time>2018-09-04T09:19:15Z</time>
      </trkpt>
      <trkpt lat="41.79587" lon="9.20061">
        <ele>1049.31</ele>
        <time>2018-09-04T09:19:21Z</time>
      </trkpt>
      <trkpt lat="41.79584" lon="9.20066">
        <ele>1049.3</ele>
        <time>2018-09-04T09:19:26Z</time>
      </trkpt>
      <trkpt lat="41.79579" lon="9.2007">
        <ele>1050.14</ele>
        <time>2018-09-04T09:19:33Z</time>
      </trkpt>
      <trkpt lat="41.79572" lon="9.20075">
        <ele>1050.12</ele>
        <time>2018-09-04T09:19:41Z</time>
      </trkpt>
      <trkpt lat="41.79567" lon="9.20077">
        <ele>1050.11</ele>
        <time>2018-09-04T09:19:46Z</time>
      </trkpt>
      <trkpt lat="41.79555" lon="9.20087">
        <ele>1050.08</ele>
        <time>2018-09-04T09:19:59Z</time>
      </trkpt>
      <trkpt lat="41.7955" lon="9.20089">
        <ele>1050.07</ele>
        <time>2018-09-04T09:20:03Z</time>
      </trkpt>
      <trkpt lat="41.79547" lon="9.20094">
        <ele>1050.06</ele>
        <time>2018-09-04T09:20:07Z</time>
      </trkpt>
      <trkpt lat="41.79534" lon="9.20103">
        <ele>1050.02</ele>
        <time>2018-09-04T09:20:22Z</time>
      </trkpt>
      <trkpt lat="41.79526" lon="9.20108">
        <ele>1050.01</ele>
        <time>2018-09-04T09:20:30Z</time>
      </trkpt>
      <trkpt lat="41.79514" lon="9.2011">
        <ele>1049.98</ele>
        <time>2018-09-04T09:20:43Z</time>
      </trkpt>
      <trkpt lat="41.79502" lon="9.20115">
        <ele>1051.9</ele>
        <time>2018-09-04T09:20:58Z</time>
      </trkpt>
      <trkpt lat="41.79493" lon="9.20117">
        <ele>1053.44</ele>
        <time>2018-09-04T09:21:11Z</time>
      </trkpt>
      <trkpt lat="41.7949" lon="9.20122">
        <ele>1055.32</ele>
        <time>2018-09-04T09:21:25Z</time>
      </trkpt>
      <trkpt lat="41.7949" lon="9.20122">
        <ele>1055.33</ele>
        <time>2018-09-04T09:21:26Z</time>
      </trkpt>
      <trkpt lat="41.79481" lon="9.20124">
        <ele>1055.28</ele>
        <time>2018-09-04T09:21:39Z</time>
      </trkpt>
      <trkpt lat="41.7947" lon="9.20127">
        <ele>1056.11</ele>
        <time>2018-09-04T09:21:53Z</time>
      </trkpt>
      <trkpt lat="41.79469" lon="9.2013">
        <ele>1056.1</ele>
        <time>2018-09-04T09:21:57Z</time>
      </trkpt>
      <trkpt lat="41.79465" lon="9.2014">
        <ele>1056.08</ele>
        <time>2018-09-04T09:22:09Z</time>
      </trkpt>
      <trkpt lat="41.79461" lon="9.20145">
        <ele>1056.05</ele>
        <time>2018-09-04T09:22:16Z</time>
      </trkpt>
      <trkpt lat="41.79456" lon="9.20153">
        <ele>1053.76</ele>
        <time>2018-09-04T09:22:25Z</time>
      </trkpt>
      <trkpt lat="41.79452" lon="9.20171">
        <ele>1051.93</ele>
        <time>2018-09-04T09:22:41Z</time>
      </trkpt>
      <trkpt lat="41.79451" lon="9.20175">
        <ele>1051.92</ele>
        <time>2018-09-04T09:22:44Z</time>
      </trkpt>
      <trkpt lat="41.7945" lon="9.20178">
        <ele>1051.92</ele>
        <time>2018-09-04T09:22:47Z</time>
      </trkpt>
      <trkpt lat="41.79449" lon="9.20191">
        <ele>1051.07</ele>
        <time>2018-09-04T09:22:57Z</time>
      </trkpt>
      <trkpt lat="41.7945" lon="9.2021">
        <ele>1050.04</ele>
        <time>2018-09-04T09:23:13Z</time>
      </trkpt>
      <trkpt lat="41.79452" lon="9.20213">
        <ele>1050</ele>
        <time>2018-09-04T09:23:33Z</time>
      </trkpt>
      <trkpt lat="41.79453" lon="9.20213">
        <ele>1049.9</ele>
        <time>2018-09-04T09:24:11Z</time>
      </trkpt>
      <trkpt lat="41.79456" lon="9.20218">
        <ele>1049.04</ele>
        <time>2018-09-04T09:24:25Z</time>
      </trkpt>
      <trkpt lat="41.79459" lon="9.20218">
        <ele>1049.03</ele>
        <time>2018-09-04T09:24:29Z</time>
      </trkpt>
      <trkpt lat="41.79467" lon="9.2022">
        <ele>1048.06</ele>
        <time>2018-09-04T09:24:37Z</time>
      </trkpt>
      <trkpt lat="41.79473" lon="9.20223">
        <ele>1048.05</ele>
        <time>2018-09-04T09:24:44Z</time>
      </trkpt>
      <trkpt lat="41.7948" lon="9.20228">
        <ele>1050.63</ele>
        <time>2018-09-04T09:24:54Z</time>
      </trkpt>
      <trkpt lat="41.79487" lon="9.20243">
        <ele>1053.11</ele>
        <time>2018-09-04T09:25:12Z</time>
      </trkpt>
      <trkpt lat="41.79486" lon="9.20252">
        <ele>1053.96</ele>
        <time>2018-09-04T09:25:25Z</time>
      </trkpt>
      <trkpt lat="41.7949" lon="9.20258">
        <ele>1053.86</ele>
        <time>2018-09-04T09:25:41Z</time>
      </trkpt>
      <trkpt lat="41.79496" lon="9.2027">
        <ele>1054.04</ele>
        <time>2018-09-04T09:26:00Z</time>
      </trkpt>
      <trkpt lat="41.79497" lon="9.20273">
        <ele>1051.59</ele>
        <time>2018-09-04T09:26:04Z</time>
      </trkpt>
      <trkpt lat="41.79505" lon="9.20285">
        <ele>1049.45</ele>
        <time>2018-09-04T09:26:18Z</time>
      </trkpt>
      <trkpt lat="41.79515" lon="9.20292">
        <ele>1049.49</ele>
        <time>2018-09-04T09:26:30Z</time>
      </trkpt>
      <trkpt lat="41.7953" lon="9.20302">
        <ele>1048.78</ele>
        <time>2018-09-04T09:26:46Z</time>
      </trkpt>
      <trkpt lat="41.7954" lon="9.20309">
        <ele>1048.94</ele>
        <time>2018-09-04T09:26:56Z</time>
      </trkpt>
      <trkpt lat="41.79543" lon="9.20309">
        <ele>1048.88</ele>
        <time>2018-09-04T09:27:12Z</time>
      </trkpt>
      <trkpt lat="41.79551" lon="9.20313">
        <ele>1049</ele>
        <time>2018-09-04T09:27:30Z</time>
      </trkpt>
      <trkpt lat="41.79552" lon="9.20313">
        <ele>1048.93</ele>
        <time>2018-09-04T09:27:31Z</time>
      </trkpt>
      <trkpt lat="41.79557" lon="9.20319">
        <ele>1048.93</ele>
        <time>2018-09-04T09:27:38Z</time>
      </trkpt>
      <trkpt lat="41.79568" lon="9.20321">
        <ele>1051.28</ele>
        <time>2018-09-04T09:27:49Z</time>
      </trkpt>
      <trkpt lat="41.7958" lon="9.20321">
        <ele>1053.07</ele>
        <time>2018-09-04T09:28:04Z</time>
      </trkpt>
      <trkpt lat="41.79589" lon="9.20325">
        <ele>1053.77</ele>
        <time>2018-09-04T09:28:17Z</time>
      </trkpt>
      <trkpt lat="41.79591" lon="9.20326">
        <ele>1053.78</ele>
        <time>2018-09-04T09:28:19Z</time>
      </trkpt>
      <trkpt lat="41.79599" lon="9.2033">
        <ele>1053.75</ele>
        <time>2018-09-04T09:28:26Z</time>
      </trkpt>
      <trkpt lat="41.796" lon="9.20331">
        <ele>1053.73</ele>
        <time>2018-09-04T09:28:28Z</time>
      </trkpt>
      <trkpt lat="41.79605" lon="9.20336">
        <ele>1051.4</ele>
        <time>2018-09-04T09:28:33Z</time>
      </trkpt>
      <trkpt lat="41.79612" lon="9.20343">
        <ele>1051.32</ele>
        <time>2018-09-04T09:28:41Z</time>
      </trkpt>
      <trkpt lat="41.79623" lon="9.20357">
        <ele>1051.56</ele>
        <time>2018-09-04T09:28:59Z</time>
      </trkpt>
      <trkpt lat="41.79634" lon="9.20374">
        <ele>1051.34</ele>
        <time>2018-09-04T09:29:14Z</time>
      </trkpt>
      <trkpt lat="41.79643" lon="9.20383">
        <ele>1050.38</ele>
        <time>2018-09-04T09:29:27Z</time>
      </trkpt>
      <trkpt lat="41.7965" lon="9.20391">
        <ele>1049.14</ele>
        <time>2018-09-04T09:29:37Z</time>
      </trkpt>
      <trkpt lat="41.7965" lon="9.20392">
        <ele>1049.08</ele>
        <time>2018-09-04T09:29:38Z</time>
      </trkpt>
      <trkpt lat="41.79652" lon="9.20395">
        <ele>1049.1</ele>
        <time>2018-09-04T09:29:40Z</time>
      </trkpt>
      <trkpt lat="41.79659" lon="9.20404">
        <ele>1047.19</ele>
        <time>2018-09-04T09:29:52Z</time>
      </trkpt>
      <trkpt lat="41.7967" lon="9.20417">
        <ele>1044.62</ele>
        <time>2018-09-04T09:30:08Z</time>
      </trkpt>
      <trkpt lat="41.79672" lon="9.2042">
        <ele>1044.57</ele>
        <time>2018-09-04T09:30:10Z</time>
      </trkpt>
      <trkpt lat="41.79684" lon="9.20427">
        <ele>1044.02</ele>
        <time>2018-09-04T09:30:22Z</time>
      </trkpt>
      <trkpt lat="41.7969" lon="9.20435">
        <ele>1044.1</ele>
        <time>2018-09-04T09:30:38Z</time>
      </trkpt>
      <trkpt lat="41.79703" lon="9.20445">
        <ele>1041.59</ele>
        <time>2018-09-04T09:30:55Z</time>
      </trkpt>
      <trkpt lat="41.79717" lon="9.20451">
        <ele>1041.87</ele>
        <time>2018-09-04T09:31:09Z</time>
      </trkpt>
      <trkpt lat="41.79728" lon="9.20455">
        <ele>1044.65</ele>
        <time>2018-09-04T09:31:27Z</time>
      </trkpt>
      <trkpt lat="41.79742" lon="9.20459">
        <ele>1044.66</ele>
        <time>2018-09-04T09:31:44Z</time>
      </trkpt>
      <trkpt lat="41.79756" lon="9.20469">
        <ele>1044.91</ele>
        <time>2018-09-04T09:32:01Z</time>
      </trkpt>
      <trkpt lat="41.79758" lon="9.20474">
        <ele>1042.65</ele>
        <time>2018-09-04T09:32:06Z</time>
      </trkpt>
      <trkpt lat="41.79766" lon="9.20481">
        <ele>1045.26</ele>
        <time>2018-09-04T09:32:19Z</time>
      </trkpt>
      <trkpt lat="41.79778" lon="9.2049">
        <ele>1045.38</ele>
        <time>2018-09-04T09:32:34Z</time>
      </trkpt>
      <trkpt lat="41.7979" lon="9.20499">
        <ele>1045.37</ele>
        <time>2018-09-04T09:32:51Z</time>
      </trkpt>
      <trkpt lat="41.798" lon="9.20513">
        <ele>1045.75</ele>
        <time>2018-09-04T09:33:09Z</time>
      </trkpt>
      <trkpt lat="41.7981" lon="9.20517">
        <ele>1043.52</ele>
        <time>2018-09-04T09:33:25Z</time>
      </trkpt>
      <trkpt lat="41.79819" lon="9.2053">
        <ele>1041.57</ele>
        <time>2018-09-04T09:33:43Z</time>
      </trkpt>
      <trkpt lat="41.79824" lon="9.20538">
        <ele>1038.82</ele>
        <time>2018-09-04T09:34:01Z</time>
      </trkpt>
      <trkpt lat="41.79825" lon="9.20543">
        <ele>1037.04</ele>
        <time>2018-09-04T09:34:14Z</time>
      </trkpt>
      <trkpt lat="41.79831" lon="9.20547">
        <ele>1034.61</ele>
        <time>2018-09-04T09:34:33Z</time>
      </trkpt>
      <trkpt lat="41.79843" lon="9.20554">
        <ele>1033.2</ele>
        <time>2018-09-04T09:34:51Z</time>
      </trkpt>
      <trkpt lat="41.79854" lon="9.20559">
        <ele>1035.83</ele>
        <time>2018-09-04T09:35:08Z</time>
      </trkpt>
      <trkpt lat="41.79855" lon="9.20559">
        <ele>1035.78</ele>
        <time>2018-09-04T09:35:09Z</time>
      </trkpt>
      <trkpt lat="41.79855" lon="9.20557">
        <ele>1038.67</ele>
        <time>2018-09-04T09:35:30Z</time>
      </trkpt>
      <trkpt lat="41.79861" lon="9.20551">
        <ele>1041.87</ele>
        <time>2018-09-04T09:35:51Z</time>
      </trkpt>
      <trkpt lat="41.79875" lon="9.20551">
        <ele>1044.64</ele>
        <time>2018-09-04T09:36:14Z</time>
      </trkpt>
      <trkpt lat="41.79887" lon="9.20552">
        <ele>1046.55</ele>
        <time>2018-09-04T09:36:35Z</time>
      </trkpt>
      <trkpt lat="41.79892" lon="9.20559">
        <ele>1048.33</ele>
        <time>2018-09-04T09:36:51Z</time>
      </trkpt>
      <trkpt lat="41.79896" lon="9.20571">
        <ele>1048.14</ele>
        <time>2018-09-04T09:37:11Z</time>
      </trkpt>
      <trkpt lat="41.79897" lon="9.20573">
        <ele>1045.8</ele>
        <time>2018-09-04T09:37:15Z</time>
      </trkpt>
      <trkpt lat="41.79904" lon="9.20587">
        <ele>1045.87</ele>
        <time>2018-09-04T09:37:35Z</time>
      </trkpt>
      <trkpt lat="41.79906" lon="9.20591">
        <ele>1048.42</ele>
        <time>2018-09-04T09:37:41Z</time>
      </trkpt>
      <trkpt lat="41.79911" lon="9.20599">
        <ele>1049.21</ele>
        <time>2018-09-04T09:38:00Z</time>
      </trkpt>
      <trkpt lat="41.79911" lon="9.20606">
        <ele>1049.93</ele>
        <time>2018-09-04T09:38:21Z</time>
      </trkpt>
      <trkpt lat="41.79909" lon="9.20613">
        <ele>1049.79</ele>
        <time>2018-09-04T09:38:40Z</time>
      </trkpt>
      <trkpt lat="41.7991" lon="9.20623">
        <ele>1049.77</ele>
        <time>2018-09-04T09:39:01Z</time>
      </trkpt>
      <trkpt lat="41.79909" lon="9.20626">
        <ele>1049.77</ele>
        <time>2018-09-04T09:39:16Z</time>
      </trkpt>
      <trkpt lat="41.79906" lon="9.20632">
        <ele>1051.69</ele>
        <time>2018-09-04T09:39:33Z</time>
      </trkpt>
      <trkpt lat="41.79901" lon="9.20639">
        <ele>1052.59</ele>
        <time>2018-09-04T09:39:54Z</time>
      </trkpt>
      <trkpt lat="41.79903" lon="9.20646">
        <ele>1054.67</ele>
        <time>2018-09-04T09:40:09Z</time>
      </trkpt>
      <trkpt lat="41.79898" lon="9.20654">
        <ele>1056.39</ele>
        <time>2018-09-04T09:40:24Z</time>
      </trkpt>
      <trkpt lat="41.79899" lon="9.2066">
        <ele>1057.86</ele>
        <time>2018-09-04T09:40:41Z</time>
      </trkpt>
      <trkpt lat="41.79903" lon="9.20667">
        <ele>1060.2</ele>
        <time>2018-09-04T09:41:03Z</time>
      </trkpt>
      <trkpt lat="41.79905" lon="9.20672">
        <ele>1061.05</ele>
        <time>2018-09-04T09:41:19Z</time>
      </trkpt>
      <trkpt lat="41.79904" lon="9.20675">
        <ele>1061.84</ele>
        <time>2018-09-04T09:41:42Z</time>
      </trkpt>
      <trkpt lat="41.79904" lon="9.20683">
        <ele>1064.57</ele>
        <time>2018-09-04T09:41:58Z</time>
      </trkpt>
      <trkpt lat="41.79904" lon="9.20686">
        <ele>1066.38</ele>
        <time>2018-09-04T09:42:12Z</time>
      </trkpt>
      <trkpt lat="41.79901" lon="9.20687">
        <ele>1068.25</ele>
        <time>2018-09-04T09:42:28Z</time>
      </trkpt>
      <trkpt lat="41.79895" lon="9.20687">
        <ele>1069.03</ele>
        <time>2018-09-04T09:42:40Z</time>
      </trkpt>
      <trkpt lat="41.79887" lon="9.20689">
        <ele>1071.46</ele>
        <time>2018-09-04T09:42:58Z</time>
      </trkpt>
      <trkpt lat="41.7988" lon="9.2069">
        <ele>1073.46</ele>
        <time>2018-09-04T09:43:11Z</time>
      </trkpt>
      <trkpt lat="41.79873" lon="9.2069">
        <ele>1074.51</ele>
        <time>2018-09-04T09:43:24Z</time>
      </trkpt>
      <trkpt lat="41.79869" lon="9.20695">
        <ele>1076.42</ele>
        <time>2018-09-04T09:43:37Z</time>
      </trkpt>
      <trkpt lat="41.79864" lon="9.20696">
        <ele>1078</ele>
        <time>2018-09-04T09:43:49Z</time>
      </trkpt>
      <trkpt lat="41.79859" lon="9.20701">
        <ele>1079.29</ele>
        <time>2018-09-04T09:44:03Z</time>
      </trkpt>
      <trkpt lat="41.79859" lon="9.20702">
        <ele>1079.28</ele>
        <time>2018-09-04T09:44:04Z</time>
      </trkpt>
      <trkpt lat="41.79856" lon="9.20705">
        <ele>1080.39</ele>
        <time>2018-09-04T09:44:17Z</time>
      </trkpt>
      <trkpt lat="41.79854" lon="9.20708">
        <ele>1081.76</ele>
        <time>2018-09-04T09:44:24Z</time>
      </trkpt>
      <trkpt lat="41.7985" lon="9.2071">
        <ele>1081.72</ele>
        <time>2018-09-04T09:44:36Z</time>
      </trkpt>
      <trkpt lat="41.79838" lon="9.20715">
        <ele>1083.84</ele>
        <time>2018-09-04T09:44:53Z</time>
      </trkpt>
      <trkpt lat="41.79828" lon="9.2072">
        <ele>1084.68</ele>
        <time>2018-09-04T09:45:07Z</time>
      </trkpt>
      <trkpt lat="41.79819" lon="9.20721">
        <ele>1084.67</ele>
        <time>2018-09-04T09:45:19Z</time>
      </trkpt>
      <trkpt lat="41.79818" lon="9.20721">
        <ele>1084.68</ele>
        <time>2018-09-04T09:45:20Z</time>
      </trkpt>
      <trkpt lat="41.79807" lon="9.2072">
        <ele>1085.71</ele>
        <time>2018-09-04T09:45:34Z</time>
      </trkpt>
      <trkpt lat="41.79803" lon="9.20724">
        <ele>1088.35</ele>
        <time>2018-09-04T09:45:50Z</time>
      </trkpt>
      <trkpt lat="41.79797" lon="9.20722">
        <ele>1089.22</ele>
        <time>2018-09-04T09:46:05Z</time>
      </trkpt>
      <trkpt lat="41.79794" lon="9.20721">
        <ele>1089.22</ele>
        <time>2018-09-04T09:46:23Z</time>
      </trkpt>
      <trkpt lat="41.79792" lon="9.2072">
        <ele>1089.16</ele>
        <time>2018-09-04T09:46:39Z</time>
      </trkpt>
      <trkpt lat="41.79789" lon="9.20718">
        <ele>1086.68</ele>
        <time>2018-09-04T09:46:47Z</time>
      </trkpt>
      <trkpt lat="41.79782" lon="9.2072">
        <ele>1085.38</ele>
        <time>2018-09-04T09:46:59Z</time>
      </trkpt>
      <trkpt lat="41.79781" lon="9.2072">
        <ele>1084.6</ele>
        <time>2018-09-04T09:47:01Z</time>
      </trkpt>
      <trkpt lat="41.79772" lon="9.20724">
        <ele>1083.82</ele>
        <time>2018-09-04T09:47:14Z</time>
      </trkpt>
      <trkpt lat="41.79771" lon="9.20725">
        <ele>1086.19</ele>
        <time>2018-09-04T09:47:21Z</time>
      </trkpt>
      <trkpt lat="41.79766" lon="9.20726">
        <ele>1087.03</ele>
        <time>2018-09-04T09:47:34Z</time>
      </trkpt>
      <trkpt lat="41.79762" lon="9.20727">
        <ele>1087.75</ele>
        <time>2018-09-04T09:47:49Z</time>
      </trkpt>
      <trkpt lat="41.79758" lon="9.20729">
        <ele>1089.48</ele>
        <time>2018-09-04T09:48:00Z</time>
      </trkpt>
      <trkpt lat="41.79752" lon="9.20729">
        <ele>1091.06</ele>
        <time>2018-09-04T09:48:13Z</time>
      </trkpt>
      <trkpt lat="41.79749" lon="9.2073">
        <ele>1091.01</ele>
        <time>2018-09-04T09:48:28Z</time>
      </trkpt>
      <trkpt lat="41.79749" lon="9.20731">
        <ele>1091</ele>
        <time>2018-09-04T09:48:50Z</time>
      </trkpt>
      <trkpt lat="41.7975" lon="9.20733">
        <ele>1090.97</ele>
        <time>2018-09-04T09:49:17Z</time>
      </trkpt>
      <trkpt lat="41.79746" lon="9.20731">
        <ele>1090.95</ele>
        <time>2018-09-04T09:49:38Z</time>
      </trkpt>
      <trkpt lat="41.79746" lon="9.20731">
        <ele>1090.9</ele>
        <time>2018-09-04T09:50:20Z</time>
      </trkpt>
      <trkpt lat="41.79744" lon="9.20729">
        <ele>1088.54</ele>
        <time>2018-09-04T09:50:33Z</time>
      </trkpt>
      <trkpt lat="41.79738" lon="9.20728">
        <ele>1087.58</ele>
        <time>2018-09-04T09:50:48Z</time>
      </trkpt>
      <trkpt lat="41.79734" lon="9.20726">
        <ele>1085.45</ele>
        <time>2018-09-04T09:50:57Z</time>
      </trkpt>
      <trkpt lat="41.79727" lon="9.20724">
        <ele>1083.7</ele>
        <time>2018-09-04T09:51:10Z</time>
      </trkpt>
      <trkpt lat="41.79724" lon="9.20728">
        <ele>1083.75</ele>
        <time>2018-09-04T09:51:23Z</time>
      </trkpt>
      <trkpt lat="41.79722" lon="9.20733">
        <ele>1083.76</ele>
        <time>2018-09-04T09:51:37Z</time>
      </trkpt>
      <trkpt lat="41.79718" lon="9.20733">
        <ele>1082.93</ele>
        <time>2018-09-04T09:51:51Z</time>
      </trkpt>
      <trkpt lat="41.79714" lon="9.20736">
        <ele>1082.04</ele>
        <time>2018-09-04T09:52:06Z</time>
      </trkpt>
      <trkpt lat="41.79709" lon="9.20737">
        <ele>1079.61</ele>
        <time>2018-09-04T09:52:22Z</time>
      </trkpt>
      <trkpt lat="41.79708" lon="9.20738">
        <ele>1079.6</ele>
        <time>2018-09-04T09:52:23Z</time>
      </trkpt>
      <trkpt lat="41.79702" lon="9.20747">
        <ele>1078.49</ele>
        <time>2018-09-04T09:52:33Z</time>
      </trkpt>
      <trkpt lat="41.79698" lon="9.20754">
        <ele>1078.54</ele>
        <time>2018-09-04T09:52:39Z</time>
      </trkpt>
      <trkpt lat="41.79695" lon="9.20755">
        <ele>1078.52</ele>
        <time>2018-09-04T09:52:42Z</time>
      </trkpt>
      <trkpt lat="41.7969" lon="9.20758">
        <ele>1078.5</ele>
        <time>2018-09-04T09:52:53Z</time>
      </trkpt>
      <trkpt lat="41.79682" lon="9.20763">
        <ele>1077.69</ele>
        <time>2018-09-04T09:53:02Z</time>
      </trkpt>
      <trkpt lat="41.79681" lon="9.20764">
        <ele>1077.69</ele>
        <time>2018-09-04T09:53:04Z</time>
      </trkpt>
      <trkpt lat="41.79669" lon="9.20778">
        <ele>1077.69</ele>
        <time>2018-09-04T09:53:21Z</time>
      </trkpt>
      <trkpt lat="41.79662" lon="9.20784">
        <ele>1075.98</ele>
        <time>2018-09-04T09:53:32Z</time>
      </trkpt>
      <trkpt lat="41.79655" lon="9.20786">
        <ele>1074.86</ele>
        <time>2018-09-04T09:53:42Z</time>
      </trkpt>
      <trkpt lat="41.79646" lon="9.20794">
        <ele>1073.28</ele>
        <time>2018-09-04T09:53:58Z</time>
      </trkpt>
      <trkpt lat="41.7964" lon="9.208">
        <ele>1071.32</ele>
        <time>2018-09-04T09:54:10Z</time>
      </trkpt>
      <trkpt lat="41.79633" lon="9.2081">
        <ele>1069.26</ele>
        <time>2018-09-04T09:54:25Z</time>
      </trkpt>
      <trkpt lat="41.79622" lon="9.20815">
        <ele>1067.32</ele>
        <time>2018-09-04T09:54:44Z</time>
      </trkpt>
      <trkpt lat="41.79613" lon="9.20821">
        <ele>1064.01</ele>
        <time>2018-09-04T09:55:00Z</time>
      </trkpt>
      <trkpt lat="41.79605" lon="9.20831">
        <ele>1061.41</ele>
        <time>2018-09-04T09:55:20Z</time>
      </trkpt>
      <trkpt lat="41.79603" lon="9.20834">
        <ele>1060.01</ele>
        <time>2018-09-04T09:55:26Z</time>
      </trkpt>
      <trkpt lat="41.79595" lon="9.20843">
        <ele>1058.25</ele>
        <time>2018-09-04T09:55:43Z</time>
      </trkpt>
      <trkpt lat="41.79591" lon="9.20844">
        <ele>1058.38</ele>
        <time>2018-09-04T09:56:16Z</time>
      </trkpt>
      <trkpt lat="41.79588" lon="9.20852">
        <ele>1057.64</ele>
        <time>2018-09-04T09:56:45Z</time>
      </trkpt>
      <trkpt lat="41.79585" lon="9.20858">
        <ele>1053.84</ele>
        <time>2018-09-04T09:57:00Z</time>
      </trkpt>
      <trkpt lat="41.79581" lon="9.20867">
        <ele>1052.43</ele>
        <time>2018-09-04T09:57:19Z</time>
      </trkpt>
      <trkpt lat="41.79581" lon="9.20871">
        <ele>1051.76</ele>
        <time>2018-09-04T09:57:49Z</time>
      </trkpt>
      <trkpt lat="41.79577" lon="9.2088">
        <ele>1051.03</ele>
        <time>2018-09-04T09:58:03Z</time>
      </trkpt>
      <trkpt lat="41.79574" lon="9.20887">
        <ele>1048.83</ele>
        <time>2018-09-04T09:58:13Z</time>
      </trkpt>
      <trkpt lat="41.7957" lon="9.20893">
        <ele>1048.03</ele>
        <time>2018-09-04T09:58:26Z</time>
      </trkpt>
      <trkpt lat="41.79568" lon="9.20899">
        <ele>1048.09</ele>
        <time>2018-09-04T09:58:39Z</time>
      </trkpt>
      <trkpt lat="41.7956" lon="9.209">
        <ele>1046.47</ele>
        <time>2018-09-04T09:58:52Z</time>
      </trkpt>
      <trkpt lat="41.79557" lon="9.20902">
        <ele>1045.57</ele>
        <time>2018-09-04T09:59:15Z</time>
      </trkpt>
      <trkpt lat="41.79554" lon="9.20904">
        <ele>1045.59</ele>
        <time>2018-09-04T09:59:39Z</time>
      </trkpt>
      <trkpt lat="41.79553" lon="9.20903">
        <ele>1044.31</ele>
        <time>2018-09-04T09:59:43Z</time>
      </trkpt>
      <trkpt lat="41.7955" lon="9.20901">
        <ele>1041.53</ele>
        <time>2018-09-04T09:59:56Z</time>
      </trkpt>
      <trkpt lat="41.79547" lon="9.20903">
        <ele>1040.7</ele>
        <time>2018-09-04T10:00:08Z</time>
      </trkpt>
      <trkpt lat="41.79546" lon="9.20908">
        <ele>1039.09</ele>
        <time>2018-09-04T10:00:22Z</time>
      </trkpt>
      <trkpt lat="41.79551" lon="9.20918">
        <ele>1039.1</ele>
        <time>2018-09-04T10:00:32Z</time>
      </trkpt>
      <trkpt lat="41.79551" lon="9.2093">
        <ele>1038.13</ele>
        <time>2018-09-04T10:00:46Z</time>
      </trkpt>
      <trkpt lat="41.79552" lon="9.2094">
        <ele>1037.22</ele>
        <time>2018-09-04T10:01:00Z</time>
      </trkpt>
      <trkpt lat="41.7955" lon="9.20946">
        <ele>1037.2</ele>
        <time>2018-09-04T10:01:15Z</time>
      </trkpt>
      <trkpt lat="41.7955" lon="9.20948">
        <ele>1037.18</ele>
        <time>2018-09-04T10:01:33Z</time>
      </trkpt>
      <trkpt lat="41.79549" lon="9.20948">
        <ele>1039.42</ele>
        <time>2018-09-04T10:01:36Z</time>
      </trkpt>
      <trkpt lat="41.79538" lon="9.20943">
        <ele>1040.2</ele>
        <time>2018-09-04T10:01:53Z</time>
      </trkpt>
      <trkpt lat="41.79531" lon="9.20944">
        <ele>1040.19</ele>
        <time>2018-09-04T10:02:01Z</time>
      </trkpt>
      <trkpt lat="41.79518" lon="9.20954">
        <ele>1040.15</ele>
        <time>2018-09-04T10:02:16Z</time>
      </trkpt>
      <trkpt lat="41.7951" lon="9.20962">
        <ele>1041.27</ele>
        <time>2018-09-04T10:02:28Z</time>
      </trkpt>
      <trkpt lat="41.79506" lon="9.20966">
        <ele>1042.68</ele>
        <time>2018-09-04T10:02:34Z</time>
      </trkpt>
      <trkpt lat="41.79505" lon="9.20966">
        <ele>1042.68</ele>
        <time>2018-09-04T10:02:35Z</time>
      </trkpt>
      <trkpt lat="41.79493" lon="9.2097">
        <ele>1042.63</ele>
        <time>2018-09-04T10:02:48Z</time>
      </trkpt>
      <trkpt lat="41.79483" lon="9.20978">
        <ele>1042.39</ele>
        <time>2018-09-04T10:03:02Z</time>
      </trkpt>
      <trkpt lat="41.7948" lon="9.20981">
        <ele>1040.13</ele>
        <time>2018-09-04T10:03:06Z</time>
      </trkpt>
      <trkpt lat="41.79472" lon="9.20985">
        <ele>1039.28</ele>
        <time>2018-09-04T10:03:19Z</time>
      </trkpt>
      <trkpt lat="41.7946" lon="9.20984">
        <ele>1039.4</ele>
        <time>2018-09-04T10:03:38Z</time>
      </trkpt>
      <trkpt lat="41.79454" lon="9.20983">
        <ele>1039.39</ele>
        <time>2018-09-04T10:03:45Z</time>
      </trkpt>
      <trkpt lat="41.79445" lon="9.20985">
        <ele>1038.36</ele>
        <time>2018-09-04T10:03:56Z</time>
      </trkpt>
      <trkpt lat="41.7944" lon="9.2099">
        <ele>1037.48</ele>
        <time>2018-09-04T10:04:04Z</time>
      </trkpt>
      <trkpt lat="41.79431" lon="9.21004">
        <ele>1036.54</ele>
        <time>2018-09-04T10:04:19Z</time>
      </trkpt>
      <trkpt lat="41.79424" lon="9.21007">
        <ele>1033.17</ele>
        <time>2018-09-04T10:04:33Z</time>
      </trkpt>
      <trkpt lat="41.79414" lon="9.21017">
        <ele>1030.66</ele>
        <time>2018-09-04T10:04:50Z</time>
      </trkpt>
      <trkpt lat="41.79407" lon="9.21021">
        <ele>1030.74</ele>
        <time>2018-09-04T10:05:04Z</time>
      </trkpt>
      <trkpt lat="41.79401" lon="9.21027">
        <ele>1030.87</ele>
        <time>2018-09-04T10:05:15Z</time>
      </trkpt>
      <trkpt lat="41.79397" lon="9.21027">
        <ele>1029.07</ele>
        <time>2018-09-04T10:05:27Z</time>
      </trkpt>
      <trkpt lat="41.79387" lon="9.21027">
        <ele>1031.44</ele>
        <time>2018-09-04T10:05:42Z</time>
      </trkpt>
      <trkpt lat="41.79379" lon="9.21028">
        <ele>1031.52</ele>
        <time>2018-09-04T10:05:52Z</time>
      </trkpt>
      <trkpt lat="41.79368" lon="9.21031">
        <ele>1032.19</ele>
        <time>2018-09-04T10:06:04Z</time>
      </trkpt>
      <trkpt lat="41.79357" lon="9.21036">
        <ele>1033.35</ele>
        <time>2018-09-04T10:06:18Z</time>
      </trkpt>
      <trkpt lat="41.79348" lon="9.21036">
        <ele>1033.26</ele>
        <time>2018-09-04T10:06:33Z</time>
      </trkpt>
      <trkpt lat="41.79347" lon="9.21034">
        <ele>1030.75</ele>
        <time>2018-09-04T10:06:39Z</time>
      </trkpt>
      <trkpt lat="41.79339" lon="9.21031">
        <ele>1029.71</ele>
        <time>2018-09-04T10:06:51Z</time>
      </trkpt>
      <trkpt lat="41.79334" lon="9.2103">
        <ele>1028.67</ele>
        <time>2018-09-04T10:06:57Z</time>
      </trkpt>
      <trkpt lat="41.79329" lon="9.21032">
        <ele>1028.74</ele>
        <time>2018-09-04T10:07:05Z</time>
      </trkpt>
      <trkpt lat="41.79321" lon="9.21034">
        <ele>1028.73</ele>
        <time>2018-09-04T10:07:16Z</time>
      </trkpt>
      <trkpt lat="41.79311" lon="9.21035">
        <ele>1028.67</ele>
        <time>2018-09-04T10:07:31Z</time>
      </trkpt>
      <trkpt lat="41.79302" lon="9.21032">
        <ele>1028.49</ele>
        <time>2018-09-04T10:07:46Z</time>
      </trkpt>
      <trkpt lat="41.79291" lon="9.2103">
        <ele>1028.58</ele>
        <time>2018-09-04T10:08:03Z</time>
      </trkpt>
      <trkpt lat="41.7928" lon="9.21032">
        <ele>1028.35</ele>
        <time>2018-09-04T10:08:20Z</time>
      </trkpt>
      <trkpt lat="41.79274" lon="9.21034">
        <ele>1028.29</ele>
        <time>2018-09-04T10:08:34Z</time>
      </trkpt>
      <trkpt lat="41.79264" lon="9.21033">
        <ele>1026.94</ele>
        <time>2018-09-04T10:08:52Z</time>
      </trkpt>
      <trkpt lat="41.79255" lon="9.21033">
        <ele>1025.36</ele>
        <time>2018-09-04T10:09:09Z</time>
      </trkpt>
      <trkpt lat="41.79246" lon="9.21039">
        <ele>1024.47</ele>
        <time>2018-09-04T10:09:24Z</time>
      </trkpt>
      <trkpt lat="41.79239" lon="9.21041">
        <ele>1024.47</ele>
        <time>2018-09-04T10:09:38Z</time>
      </trkpt>
      <trkpt lat="41.7923" lon="9.21046">
        <ele>1024.43</ele>
        <time>2018-09-04T10:09:53Z</time>
      </trkpt>
      <trkpt lat="41.7923" lon="9.21047">
        <ele>1026.71</ele>
        <time>2018-09-04T10:09:56Z</time>
      </trkpt>
      <trkpt lat="41.79222" lon="9.21051">
        <ele>1028.49</ele>
        <time>2018-09-04T10:10:11Z</time>
      </trkpt>
      <trkpt lat="41.79216" lon="9.21058">
        <ele>1029.17</ele>
        <time>2018-09-04T10:10:27Z</time>
      </trkpt>
      <trkpt lat="41.79212" lon="9.21059">
        <ele>1030.03</ele>
        <time>2018-09-04T10:10:42Z</time>
      </trkpt>
      <trkpt lat="41.7921" lon="9.21057">
        <ele>1029.96</ele>
        <time>2018-09-04T10:11:01Z</time>
      </trkpt>
      <trkpt lat="41.79208" lon="9.21056">
        <ele>1030.74</ele>
        <time>2018-09-04T10:11:21Z</time>
      </trkpt>
      <trkpt lat="41.79204" lon="9.21057">
        <ele>1031.46</ele>
        <time>2018-09-04T10:11:40Z</time>
      </trkpt>
      <trkpt lat="41.79203" lon="9.21057">
        <ele>1032.76</ele>
        <time>2018-09-04T10:11:43Z</time>
      </trkpt>
      <trkpt lat="41.79201" lon="9.21059">
        <ele>1033.5</ele>
        <time>2018-09-04T10:11:57Z</time>
      </trkpt>
      <trkpt lat="41.79199" lon="9.21062">
        <ele>1035.24</ele>
        <time>2018-09-04T10:12:09Z</time>
      </trkpt>
      <trkpt lat="41.79195" lon="9.21062">
        <ele>1036.16</ele>
        <time>2018-09-04T10:12:23Z</time>
      </trkpt>
      <trkpt lat="41.7919" lon="9.21062">
        <ele>1038</ele>
        <time>2018-09-04T10:12:34Z</time>
      </trkpt>
      <trkpt lat="41.7919" lon="9.21068">
        <ele>1038.96</ele>
        <time>2018-09-04T10:12:44Z</time>
      </trkpt>
      <trkpt lat="41.79189" lon="9.21068">
        <ele>1040.28</ele>
        <time>2018-09-04T10:12:54Z</time>
      </trkpt>
      <trkpt lat="41.79188" lon="9.21068">
        <ele>1041.13</ele>
        <time>2018-09-04T10:13:11Z</time>
      </trkpt>
      <trkpt lat="41.79186" lon="9.2107">
        <ele>1041.22</ele>
        <time>2018-09-04T10:13:23Z</time>
      </trkpt>
      <trkpt lat="41.79183" lon="9.21071">
        <ele>1042.01</ele>
        <time>2018-09-04T10:13:37Z</time>
      </trkpt>
      <trkpt lat="41.79183" lon="9.21071">
        <ele>1041.87</ele>
        <time>2018-09-04T10:14:08Z</time>
      </trkpt>
      <trkpt lat="41.79181" lon="9.21076">
        <ele>1041.74</ele>
        <time>2018-09-04T10:14:25Z</time>
      </trkpt>
      <trkpt lat="41.79176" lon="9.2108">
        <ele>1041.74</ele>
        <time>2018-09-04T10:14:32Z</time>
      </trkpt>
      <trkpt lat="41.79174" lon="9.21084">
        <ele>1041.7</ele>
        <time>2018-09-04T10:14:36Z</time>
      </trkpt>
      <trkpt lat="41.79173" lon="9.21086">
        <ele>1039.42</ele>
        <time>2018-09-04T10:14:38Z</time>
      </trkpt>
      <trkpt lat="41.7917" lon="9.21091">
        <ele>1039.4</ele>
        <time>2018-09-04T10:14:46Z</time>
      </trkpt>
      <trkpt lat="41.79164" lon="9.21095">
        <ele>1039.36</ele>
        <time>2018-09-04T10:14:54Z</time>
      </trkpt>
      <trkpt lat="41.79154" lon="9.21105">
        <ele>1039.37</ele>
        <time>2018-09-04T10:15:10Z</time>
      </trkpt>
      <trkpt lat="41.79145" lon="9.21114">
        <ele>1039.35</ele>
        <time>2018-09-04T10:15:26Z</time>
      </trkpt>
      <trkpt lat="41.79143" lon="9.21116">
        <ele>1041.92</ele>
        <time>2018-09-04T10:15:30Z</time>
      </trkpt>
      <trkpt lat="41.79138" lon="9.21122">
        <ele>1042.9</ele>
        <time>2018-09-04T10:15:45Z</time>
      </trkpt>
      <trkpt lat="41.79134" lon="9.2113">
        <ele>1042.92</ele>
        <time>2018-09-04T10:15:58Z</time>
      </trkpt>
      <trkpt lat="41.7913" lon="9.21134">
        <ele>1044.7</ele>
        <time>2018-09-04T10:16:10Z</time>
      </trkpt>
      <trkpt lat="41.79126" lon="9.21146">
        <ele>1045.57</ele>
        <time>2018-09-04T10:16:24Z</time>
      </trkpt>
      <trkpt lat="41.79125" lon="9.21148">
        <ele>1045.56</ele>
        <time>2018-09-04T10:16:26Z</time>
      </trkpt>
      <trkpt lat="41.79125" lon="9.21152">
        <ele>1045.53</ele>
        <time>2018-09-04T10:16:29Z</time>
      </trkpt>
      <trkpt lat="41.7913" lon="9.21162">
        <ele>1045.48</ele>
        <time>2018-09-04T10:16:43Z</time>
      </trkpt>
      <trkpt lat="41.79135" lon="9.21175">
        <ele>1045.39</ele>
        <time>2018-09-04T10:16:59Z</time>
      </trkpt>
      <trkpt lat="41.7914" lon="9.2119">
        <ele>1046.24</ele>
        <time>2018-09-04T10:17:13Z</time>
      </trkpt>
      <trkpt lat="41.79143" lon="9.21202">
        <ele>1047.94</ele>
        <time>2018-09-04T10:17:32Z</time>
      </trkpt>
      <trkpt lat="41.79145" lon="9.21218">
        <ele>1048.89</ele>
        <time>2018-09-04T10:17:49Z</time>
      </trkpt>
      <trkpt lat="41.79152" lon="9.21237">
        <ele>1050.49</ele>
        <time>2018-09-04T10:18:06Z</time>
      </trkpt>
      <trkpt lat="41.79159" lon="9.21249">
        <ele>1051.27</ele>
        <time>2018-09-04T10:18:19Z</time>
      </trkpt>
      <trkpt lat="41.79166" lon="9.21265">
        <ele>1052.23</ele>
        <time>2018-09-04T10:18:36Z</time>
      </trkpt>
      <trkpt lat="41.79175" lon="9.21281">
        <ele>1052.16</ele>
        <time>2018-09-04T10:18:52Z</time>
      </trkpt>
      <trkpt lat="41.79184" lon="9.21288">
        <ele>1052.13</ele>
        <time>2018-09-04T10:19:05Z</time>
      </trkpt>
      <trkpt lat="41.7919" lon="9.21294">
        <ele>1052.08</ele>
        <time>2018-09-04T10:19:21Z</time>
      </trkpt>
      <trkpt lat="41.79195" lon="9.21301">
        <ele>1049.68</ele>
        <time>2018-09-04T10:19:29Z</time>
      </trkpt>
      <trkpt lat="41.79199" lon="9.21305">
        <ele>1049.67</ele>
        <time>2018-09-04T10:19:34Z</time>
      </trkpt>
      <trkpt lat="41.79209" lon="9.21308">
        <ele>1048.81</ele>
        <time>2018-09-04T10:19:47Z</time>
      </trkpt>
      <trkpt lat="41.79209" lon="9.21308">
        <ele>1048.8</ele>
        <time>2018-09-04T10:19:48Z</time>
      </trkpt>
      <trkpt lat="41.79214" lon="9.21312">
        <ele>1048.8</ele>
        <time>2018-09-04T10:19:56Z</time>
      </trkpt>
      <trkpt lat="41.79226" lon="9.21321">
        <ele>1048.8</ele>
        <time>2018-09-04T10:20:11Z</time>
      </trkpt>
      <trkpt lat="41.79231" lon="9.21331">
        <ele>1048.76</ele>
        <time>2018-09-04T10:20:25Z</time>
      </trkpt>
      <trkpt lat="41.79232" lon="9.21333">
        <ele>1051.1</ele>
        <time>2018-09-04T10:20:29Z</time>
      </trkpt>
      <trkpt lat="41.79235" lon="9.21341">
        <ele>1052.78</ele>
        <time>2018-09-04T10:20:46Z</time>
      </trkpt>
      <trkpt lat="41.7924" lon="9.21354">
        <ele>1053.41</ele>
        <time>2018-09-04T10:21:05Z</time>
      </trkpt>
      <trkpt lat="41.79244" lon="9.2136">
        <ele>1054.32</ele>
        <time>2018-09-04T10:21:18Z</time>
      </trkpt>
      <trkpt lat="41.79249" lon="9.21371">
        <ele>1054.27</ele>
        <time>2018-09-04T10:21:32Z</time>
      </trkpt>
      <trkpt lat="41.7925" lon="9.21375">
        <ele>1054.2</ele>
        <time>2018-09-04T10:21:38Z</time>
      </trkpt>
      <trkpt lat="41.79251" lon="9.2139">
        <ele>1054.17</ele>
        <time>2018-09-04T10:21:53Z</time>
      </trkpt>
      <trkpt lat="41.79261" lon="9.21399">
        <ele>1055.36</ele>
        <time>2018-09-04T10:22:09Z</time>
      </trkpt>
      <trkpt lat="41.79266" lon="9.21404">
        <ele>1057.19</ele>
        <time>2018-09-04T10:22:20Z</time>
      </trkpt>
      <trkpt lat="41.79272" lon="9.21406">
        <ele>1058.23</ele>
        <time>2018-09-04T10:22:32Z</time>
      </trkpt>
      <trkpt lat="41.79279" lon="9.21414">
        <ele>1059.29</ele>
        <time>2018-09-04T10:22:46Z</time>
      </trkpt>
      <trkpt lat="41.79282" lon="9.21425">
        <ele>1060.28</ele>
        <time>2018-09-04T10:23:00Z</time>
      </trkpt>
      <trkpt lat="41.79287" lon="9.21437">
        <ele>1057.88</ele>
        <time>2018-09-04T10:23:12Z</time>
      </trkpt>
      <trkpt lat="41.79294" lon="9.21449">
        <ele>1057.85</ele>
        <time>2018-09-04T10:23:26Z</time>
      </trkpt>
      <trkpt lat="41.79298" lon="9.21455">
        <ele>1060.19</ele>
        <time>2018-09-04T10:23:38Z</time>
      </trkpt>
      <trkpt lat="41.79301" lon="9.21461">
        <ele>1062.17</ele>
        <time>2018-09-04T10:23:53Z</time>
      </trkpt>
      <trkpt lat="41.79304" lon="9.21473">
        <ele>1062.04</ele>
        <time>2018-09-04T10:24:06Z</time>
      </trkpt>
      <trkpt lat="41.79308" lon="9.21482">
        <ele>1062.01</ele>
        <time>2018-09-04T10:24:19Z</time>
      </trkpt>
      <trkpt lat="41.79311" lon="9.2149">
        <ele>1062.06</ele>
        <time>2018-09-04T10:24:32Z</time>
      </trkpt>
      <trkpt lat="41.79307" lon="9.21495">
        <ele>1062.03</ele>
        <time>2018-09-04T10:24:45Z</time>
      </trkpt>
      <trkpt lat="41.79306" lon="9.21499">
        <ele>1061.93</ele>
        <time>2018-09-04T10:24:50Z</time>
      </trkpt>
      <trkpt lat="41.79303" lon="9.21505">
        <ele>1061.95</ele>
        <time>2018-09-04T10:24:56Z</time>
      </trkpt>
      <trkpt lat="41.79301" lon="9.21513">
        <ele>1061.95</ele>
        <time>2018-09-04T10:25:08Z</time>
      </trkpt>
      <trkpt lat="41.79301" lon="9.21517">
        <ele>1059.44</ele>
        <time>2018-09-04T10:25:11Z</time>
      </trkpt>
      <trkpt lat="41.79299" lon="9.21528">
        <ele>1059.39</ele>
        <time>2018-09-04T10:25:24Z</time>
      </trkpt>
      <trkpt lat="41.79295" lon="9.21538">
        <ele>1059.41</ele>
        <time>2018-09-04T10:25:38Z</time>
      </trkpt>
      <trkpt lat="41.79293" lon="9.2155">
        <ele>1059.37</ele>
        <time>2018-09-04T10:25:52Z</time>
      </trkpt>
      <trkpt lat="41.79294" lon="9.21552">
        <ele>1061.96</ele>
        <time>2018-09-04T10:25:56Z</time>
      </trkpt>
      <trkpt lat="41.79293" lon="9.21561">
        <ele>1062.76</ele>
        <time>2018-09-04T10:26:08Z</time>
      </trkpt>
      <trkpt lat="41.79297" lon="9.21572">
        <ele>1063.53</ele>
        <time>2018-09-04T10:26:22Z</time>
      </trkpt>
      <trkpt lat="41.79298" lon="9.21584">
        <ele>1064.27</ele>
        <time>2018-09-04T10:26:35Z</time>
      </trkpt>
      <trkpt lat="41.79298" lon="9.21597">
        <ele>1066.75</ele>
        <time>2018-09-04T10:26:51Z</time>
      </trkpt>
      <trkpt lat="41.79299" lon="9.21606">
        <ele>1067.54</ele>
        <time>2018-09-04T10:27:05Z</time>
      </trkpt>
      <trkpt lat="41.793" lon="9.21615">
        <ele>1070.2</ele>
        <time>2018-09-04T10:27:19Z</time>
      </trkpt>
      <trkpt lat="41.79306" lon="9.21619">
        <ele>1071.77</ele>
        <time>2018-09-04T10:27:33Z</time>
      </trkpt>
      <trkpt lat="41.79311" lon="9.21626">
        <ele>1072.53</ele>
        <time>2018-09-04T10:27:47Z</time>
      </trkpt>
      <trkpt lat="41.79314" lon="9.21633">
        <ele>1073.6</ele>
        <time>2018-09-04T10:27:59Z</time>
      </trkpt>
      <trkpt lat="41.7932" lon="9.21642">
        <ele>1074.75</ele>
        <time>2018-09-04T10:28:16Z</time>
      </trkpt>
      <trkpt lat="41.79329" lon="9.21649">
        <ele>1076.36</ele>
        <time>2018-09-04T10:28:34Z</time>
      </trkpt>
      <trkpt lat="41.79338" lon="9.21656">
        <ele>1077.28</ele>
        <time>2018-09-04T10:28:50Z</time>
      </trkpt>
      <trkpt lat="41.79345" lon="9.2166">
        <ele>1078.48</ele>
        <time>2018-09-04T10:28:59Z</time>
      </trkpt>
      <trkpt lat="41.79353" lon="9.21663">
        <ele>1079.45</ele>
        <time>2018-09-04T10:29:13Z</time>
      </trkpt>
      <trkpt lat="41.79361" lon="9.21667">
        <ele>1081.07</ele>
        <time>2018-09-04T10:29:27Z</time>
      </trkpt>
      <trkpt lat="41.79369" lon="9.21668">
        <ele>1082.03</ele>
        <time>2018-09-04T10:29:40Z</time>
      </trkpt>
      <trkpt lat="41.79375" lon="9.21673">
        <ele>1083</ele>
        <time>2018-09-04T10:29:51Z</time>
      </trkpt>
      <trkpt lat="41.7938" lon="9.21676">
        <ele>1082.98</ele>
        <time>2018-09-04T10:30:03Z</time>
      </trkpt>
      <trkpt lat="41.79387" lon="9.2168">
        <ele>1083.78</ele>
        <time>2018-09-04T10:30:15Z</time>
      </trkpt>
      <trkpt lat="41.79391" lon="9.21684">
        <ele>1084.57</ele>
        <time>2018-09-04T10:30:26Z</time>
      </trkpt>
      <trkpt lat="41.79396" lon="9.2169">
        <ele>1085.54</ele>
        <time>2018-09-04T10:30:35Z</time>
      </trkpt>
      <trkpt lat="41.79403" lon="9.21699">
        <ele>1085.49</ele>
        <time>2018-09-04T10:30:48Z</time>
      </trkpt>
      <trkpt lat="41.79408" lon="9.21706">
        <ele>1087.64</ele>
        <time>2018-09-04T10:31:00Z</time>
      </trkpt>
      <trkpt lat="41.79413" lon="9.21708">
        <ele>1087.62</ele>
        <time>2018-09-04T10:31:06Z</time>
      </trkpt>
      <trkpt lat="41.79415" lon="9.2171">
        <ele>1088.98</ele>
        <time>2018-09-04T10:31:11Z</time>
      </trkpt>
      <trkpt lat="41.7942" lon="9.21714">
        <ele>1089.71</ele>
        <time>2018-09-04T10:31:28Z</time>
      </trkpt>
      <trkpt lat="41.7942" lon="9.21715">
        <ele>1089.66</ele>
        <time>2018-09-04T10:31:44Z</time>
      </trkpt>
      <trkpt lat="41.79421" lon="9.21718">
        <ele>1089.57</ele>
        <time>2018-09-04T10:32:29Z</time>
      </trkpt>
      <trkpt lat="41.79421" lon="9.21717">
        <ele>1086.63</ele>
        <time>2018-09-04T10:32:44Z</time>
      </trkpt>
      <trkpt lat="41.79421" lon="9.21715">
        <ele>1086.54</ele>
        <time>2018-09-04T10:33:18Z</time>
      </trkpt>
      <trkpt lat="41.79421" lon="9.21715">
        <ele>1081.95</ele>
        <time>2018-09-04T10:33:23Z</time>
      </trkpt>
      <trkpt lat="41.79421" lon="9.21715">
        <ele>1091.73</ele>
        <time>2018-09-04T10:33:24Z</time>
      </trkpt>
      <trkpt lat="41.79422" lon="9.21715">
        <ele>1088.11</ele>
        <time>2018-09-04T10:33:25Z</time>
      </trkpt>
      <trkpt lat="41.79422" lon="9.21713">
        <ele>1083.44</ele>
        <time>2018-09-04T10:33:27Z</time>
      </trkpt>
      <trkpt lat="41.79422" lon="9.21713">
        <ele>1095.07</ele>
        <time>2018-09-04T10:33:28Z</time>
      </trkpt>
      <trkpt lat="41.79422" lon="9.21713">
        <ele>1088.81</ele>
        <time>2018-09-04T10:33:29Z</time>
      </trkpt>
      <trkpt lat="41.79422" lon="9.21712">
        <ele>1090.2</ele>
        <time>2018-09-04T10:33:49Z</time>
      </trkpt>
      <trkpt lat="41.79422" lon="9.21711">
        <ele>1086.54</ele>
        <time>2018-09-04T10:33:55Z</time>
      </trkpt>
      <trkpt lat="41.79422" lon="9.21711">
        <ele>1086.54</ele>
        <time>2018-09-04T10:33:56Z</time>
      </trkpt>
      <trkpt lat="41.79422" lon="9.21711">
        <ele>1089.16</ele>
        <time>2018-09-04T10:33:59Z</time>
      </trkpt>
      <trkpt lat="41.79424" lon="9.21709">
        <ele>1089.96</ele>
        <time>2018-09-04T10:34:11Z</time>
      </trkpt>
      <trkpt lat="41.79422" lon="9.21712">
        <ele>1090.02</ele>
        <time>2018-09-04T10:34:13Z</time>
      </trkpt>
      <trkpt lat="41.7942" lon="9.21714">
        <ele>1087.62</ele>
        <time>2018-09-04T10:34:19Z</time>
      </trkpt>
      <trkpt lat="41.79419" lon="9.21718">
        <ele>1086.81</ele>
        <time>2018-09-04T10:34:57Z</time>
      </trkpt>
      <trkpt lat="41.79418" lon="9.21717">
        <ele>1089.22</ele>
        <time>2018-09-04T10:35:33Z</time>
      </trkpt>
      <trkpt lat="41.79419" lon="9.21716">
        <ele>1089.18</ele>
        <time>2018-09-04T10:35:52Z</time>
      </trkpt>
      <trkpt lat="41.7942" lon="9.21717">
        <ele>1089.16</ele>
        <time>2018-09-04T10:36:07Z</time>
      </trkpt>
      <trkpt lat="41.7942" lon="9.21716">
        <ele>1089.13</ele>
        <time>2018-09-04T10:36:27Z</time>
      </trkpt>
      <trkpt lat="41.79421" lon="9.21716">
        <ele>1089.09</ele>
        <time>2018-09-04T10:36:50Z</time>
      </trkpt>
      <trkpt lat="41.79426" lon="9.21719">
        <ele>1089.06</ele>
        <time>2018-09-04T10:37:06Z</time>
      </trkpt>
      <trkpt lat="41.79431" lon="9.21721">
        <ele>1086.44</ele>
        <time>2018-09-04T10:37:13Z</time>
      </trkpt>
      <trkpt lat="41.79434" lon="9.21722">
        <ele>1086.45</ele>
        <time>2018-09-04T10:37:16Z</time>
      </trkpt>
      <trkpt lat="41.79443" lon="9.21723">
        <ele>1085.67</ele>
        <time>2018-09-04T10:37:30Z</time>
      </trkpt>
      <trkpt lat="41.79446" lon="9.21726">
        <ele>1087.94</ele>
        <time>2018-09-04T10:37:39Z</time>
      </trkpt>
      <trkpt lat="41.79446" lon="9.21727">
        <ele>1087.94</ele>
        <time>2018-09-04T10:37:40Z</time>
      </trkpt>
      <trkpt lat="41.79457" lon="9.21734">
        <ele>1087.9</ele>
        <time>2018-09-04T10:37:55Z</time>
      </trkpt>
      <trkpt lat="41.79459" lon="9.21735">
        <ele>1087.9</ele>
        <time>2018-09-04T10:37:58Z</time>
      </trkpt>
      <trkpt lat="41.79467" lon="9.21739">
        <ele>1087.9</ele>
        <time>2018-09-04T10:38:11Z</time>
      </trkpt>
      <trkpt lat="41.7947" lon="9.21744">
        <ele>1087.78</ele>
        <time>2018-09-04T10:38:23Z</time>
      </trkpt>
      <trkpt lat="41.79472" lon="9.21745">
        <ele>1087.82</ele>
        <time>2018-09-04T10:38:34Z</time>
      </trkpt>
      <trkpt lat="41.79475" lon="9.21747">
        <ele>1085.1</ele>
        <time>2018-09-04T10:38:43Z</time>
      </trkpt>
      <trkpt lat="41.79478" lon="9.21755">
        <ele>1085.08</ele>
        <time>2018-09-04T10:38:55Z</time>
      </trkpt>
      <trkpt lat="41.79478" lon="9.21756">
        <ele>1087.42</ele>
        <time>2018-09-04T10:38:57Z</time>
      </trkpt>
      <trkpt lat="41.79479" lon="9.21761">
        <ele>1088.28</ele>
        <time>2018-09-04T10:39:04Z</time>
      </trkpt>
      <trkpt lat="41.79474" lon="9.21768">
        <ele>1088.15</ele>
        <time>2018-09-04T10:39:18Z</time>
      </trkpt>
      <trkpt lat="41.79475" lon="9.21778">
        <ele>1088.23</ele>
        <time>2018-09-04T10:39:32Z</time>
      </trkpt>
      <trkpt lat="41.79477" lon="9.21787">
        <ele>1089.06</ele>
        <time>2018-09-04T10:39:46Z</time>
      </trkpt>
      <trkpt lat="41.79476" lon="9.2179">
        <ele>1088.97</ele>
        <time>2018-09-04T10:39:51Z</time>
      </trkpt>
      <trkpt lat="41.79475" lon="9.21793">
        <ele>1086.61</ele>
        <time>2018-09-04T10:39:53Z</time>
      </trkpt>
      <trkpt lat="41.79476" lon="9.21806">
        <ele>1085.72</ele>
        <time>2018-09-04T10:40:08Z</time>
      </trkpt>
      <trkpt lat="41.79475" lon="9.21809">
        <ele>1088.08</ele>
        <time>2018-09-04T10:40:14Z</time>
      </trkpt>
      <trkpt lat="41.79474" lon="9.21816">
        <ele>1088.07</ele>
        <time>2018-09-04T10:40:27Z</time>
      </trkpt>
      <trkpt lat="41.79476" lon="9.21822">
        <ele>1088.99</ele>
        <time>2018-09-04T10:40:40Z</time>
      </trkpt>
      <trkpt lat="41.79476" lon="9.21824">
        <ele>1090.72</ele>
        <time>2018-09-04T10:40:46Z</time>
      </trkpt>
      <trkpt lat="41.79479" lon="9.21825">
        <ele>1094.91</ele>
        <time>2018-09-04T10:40:55Z</time>
      </trkpt>
      <trkpt lat="41.79479" lon="9.21826">
        <ele>1094.88</ele>
        <time>2018-09-04T10:40:56Z</time>
      </trkpt>
      <trkpt lat="41.7948" lon="9.21827">
        <ele>1097.43</ele>
        <time>2018-09-04T10:41:00Z</time>
      </trkpt>
      <trkpt lat="41.79483" lon="9.21829">
        <ele>1099.26</ele>
        <time>2018-09-04T10:41:13Z</time>
      </trkpt>
      <trkpt lat="41.79489" lon="9.2183">
        <ele>1099.22</ele>
        <time>2018-09-04T10:41:28Z</time>
      </trkpt>
      <trkpt lat="41.79492" lon="9.21835">
        <ele>1101.23</ele>
        <time>2018-09-04T10:41:40Z</time>
      </trkpt>
      <trkpt lat="41.79496" lon="9.21841">
        <ele>1103.07</ele>
        <time>2018-09-04T10:41:54Z</time>
      </trkpt>
      <trkpt lat="41.795" lon="9.21844">
        <ele>1103.92</ele>
        <time>2018-09-04T10:42:07Z</time>
      </trkpt>
      <trkpt lat="41.79502" lon="9.21849">
        <ele>1105.1</ele>
        <time>2018-09-04T10:42:17Z</time>
      </trkpt>
      <trkpt lat="41.79504" lon="9.21853">
        <ele>1105.83</ele>
        <time>2018-09-04T10:42:32Z</time>
      </trkpt>
      <trkpt lat="41.79506" lon="9.21854">
        <ele>1107.09</ele>
        <time>2018-09-04T10:42:39Z</time>
      </trkpt>
      <trkpt lat="41.79508" lon="9.21859">
        <ele>1108.25</ele>
        <time>2018-09-04T10:42:51Z</time>
      </trkpt>
      <trkpt lat="41.7951" lon="9.2186">
        <ele>1110.07</ele>
        <time>2018-09-04T10:43:05Z</time>
      </trkpt>
      <trkpt lat="41.79511" lon="9.21865">
        <ele>1110.07</ele>
        <time>2018-09-04T10:43:16Z</time>
      </trkpt>
      <trkpt lat="41.79514" lon="9.21868">
        <ele>1111.29</ele>
        <time>2018-09-04T10:43:26Z</time>
      </trkpt>
      <trkpt lat="41.79516" lon="9.21872">
        <ele>1111.23</ele>
        <time>2018-09-04T10:43:36Z</time>
      </trkpt>
      <trkpt lat="41.79517" lon="9.21876">
        <ele>1113.37</ele>
        <time>2018-09-04T10:43:44Z</time>
      </trkpt>
      <trkpt lat="41.7952" lon="9.21877">
        <ele>1114.42</ele>
        <time>2018-09-04T10:43:58Z</time>
      </trkpt>
      <trkpt lat="41.79523" lon="9.21878">
        <ele>1114.37</ele>
        <time>2018-09-04T10:44:10Z</time>
      </trkpt>
      <trkpt lat="41.79527" lon="9.21881">
        <ele>1116.37</ele>
        <time>2018-09-04T10:44:23Z</time>
      </trkpt>
      <trkpt lat="41.79531" lon="9.21891">
        <ele>1116.3</ele>
        <time>2018-09-04T10:44:35Z</time>
      </trkpt>
      <trkpt lat="41.79533" lon="9.21893">
        <ele>1117.93</ele>
        <time>2018-09-04T10:44:39Z</time>
      </trkpt>
      <trkpt lat="41.79537" lon="9.21898">
        <ele>1118.81</ele>
        <time>2018-09-04T10:44:53Z</time>
      </trkpt>
      <trkpt lat="41.79542" lon="9.21903">
        <ele>1120.45</ele>
        <time>2018-09-04T10:45:09Z</time>
      </trkpt>
      <trkpt lat="41.79547" lon="9.21907">
        <ele>1122.84</ele>
        <time>2018-09-04T10:45:23Z</time>
      </trkpt>
      <trkpt lat="41.79553" lon="9.21911">
        <ele>1123.66</ele>
        <time>2018-09-04T10:45:38Z</time>
      </trkpt>
      <trkpt lat="41.79555" lon="9.21914">
        <ele>1124.62</ele>
        <time>2018-09-04T10:45:49Z</time>
      </trkpt>
      <trkpt lat="41.79558" lon="9.21922">
        <ele>1125.58</ele>
        <time>2018-09-04T10:46:03Z</time>
      </trkpt>
      <trkpt lat="41.79559" lon="9.21923">
        <ele>1127.8</ele>
        <time>2018-09-04T10:46:06Z</time>
      </trkpt>
      <trkpt lat="41.79563" lon="9.21924">
        <ele>1128.64</ele>
        <time>2018-09-04T10:46:22Z</time>
      </trkpt>
      <trkpt lat="41.79568" lon="9.2193">
        <ele>1131.01</ele>
        <time>2018-09-04T10:46:37Z</time>
      </trkpt>
      <trkpt lat="41.79569" lon="9.21934">
        <ele>1132.46</ele>
        <time>2018-09-04T10:46:44Z</time>
      </trkpt>
      <trkpt lat="41.79573" lon="9.21937">
        <ele>1133.2</ele>
        <time>2018-09-04T10:46:57Z</time>
      </trkpt>
      <trkpt lat="41.79576" lon="9.21941">
        <ele>1133.13</ele>
        <time>2018-09-04T10:47:10Z</time>
      </trkpt>
      <trkpt lat="41.79577" lon="9.21942">
        <ele>1134.81</ele>
        <time>2018-09-04T10:47:13Z</time>
      </trkpt>
      <trkpt lat="41.79578" lon="9.21942">
        <ele>1136.08</ele>
        <time>2018-09-04T10:47:18Z</time>
      </trkpt>
      <trkpt lat="41.7958" lon="9.21944">
        <ele>1136.06</ele>
        <time>2018-09-04T10:47:37Z</time>
      </trkpt>
      <trkpt lat="41.79583" lon="9.21947">
        <ele>1139.15</ele>
        <time>2018-09-04T10:47:50Z</time>
      </trkpt>
      <trkpt lat="41.79584" lon="9.21947">
        <ele>1139.17</ele>
        <time>2018-09-04T10:47:51Z</time>
      </trkpt>
      <trkpt lat="41.79584" lon="9.21954">
        <ele>1139.91</ele>
        <time>2018-09-04T10:48:05Z</time>
      </trkpt>
      <trkpt lat="41.79588" lon="9.21958">
        <ele>1140.66</ele>
        <time>2018-09-04T10:48:16Z</time>
      </trkpt>
      <trkpt lat="41.79592" lon="9.21964">
        <ele>1142.53</ele>
        <time>2018-09-04T10:48:29Z</time>
      </trkpt>
      <trkpt lat="41.79592" lon="9.21964">
        <ele>1142.45</ele>
        <time>2018-09-04T10:48:30Z</time>
      </trkpt>
      <trkpt lat="41.79594" lon="9.21968">
        <ele>1142.38</ele>
        <time>2018-09-04T10:48:43Z</time>
      </trkpt>
      <trkpt lat="41.79595" lon="9.21967">
        <ele>1142.35</ele>
        <time>2018-09-04T10:49:00Z</time>
      </trkpt>
      <trkpt lat="41.79595" lon="9.2197">
        <ele>1143.45</ele>
        <time>2018-09-04T10:49:14Z</time>
      </trkpt>
      <trkpt lat="41.79597" lon="9.21974">
        <ele>1141.81</ele>
        <time>2018-09-04T10:49:21Z</time>
      </trkpt>
      <trkpt lat="41.79597" lon="9.21982">
        <ele>1144.37</ele>
        <time>2018-09-04T10:49:31Z</time>
      </trkpt>
      <trkpt lat="41.79597" lon="9.21986">
        <ele>1145.9</ele>
        <time>2018-09-04T10:49:37Z</time>
      </trkpt>
      <trkpt lat="41.79597" lon="9.21988">
        <ele>1147.26</ele>
        <time>2018-09-04T10:49:39Z</time>
      </trkpt>
      <trkpt lat="41.79599" lon="9.21991">
        <ele>1147.99</ele>
        <time>2018-09-04T10:49:51Z</time>
      </trkpt>
      <trkpt lat="41.79601" lon="9.21991">
        <ele>1147.97</ele>
        <time>2018-09-04T10:50:03Z</time>
      </trkpt>
      <trkpt lat="41.79605" lon="9.21994">
        <ele>1149.78</ele>
        <time>2018-09-04T10:50:16Z</time>
      </trkpt>
      <trkpt lat="41.79607" lon="9.21997">
        <ele>1152.75</ele>
        <time>2018-09-04T10:50:28Z</time>
      </trkpt>
      <trkpt lat="41.79608" lon="9.21999">
        <ele>1155.76</ele>
        <time>2018-09-04T10:50:36Z</time>
      </trkpt>
      <trkpt lat="41.79609" lon="9.22002">
        <ele>1157.3</ele>
        <time>2018-09-04T10:50:44Z</time>
      </trkpt>
      <trkpt lat="41.79614" lon="9.22007">
        <ele>1158</ele>
        <time>2018-09-04T10:50:57Z</time>
      </trkpt>
      <trkpt lat="41.79619" lon="9.22011">
        <ele>1157.9</ele>
        <time>2018-09-04T10:51:09Z</time>
      </trkpt>
      <trkpt lat="41.79621" lon="9.22015">
        <ele>1159</ele>
        <time>2018-09-04T10:51:23Z</time>
      </trkpt>
      <trkpt lat="41.79626" lon="9.22023">
        <ele>1158.96</ele>
        <time>2018-09-04T10:51:36Z</time>
      </trkpt>
      <trkpt lat="41.79634" lon="9.22034">
        <ele>1158.87</ele>
        <time>2018-09-04T10:51:51Z</time>
      </trkpt>
      <trkpt lat="41.79638" lon="9.22043">
        <ele>1158.89</ele>
        <time>2018-09-04T10:52:02Z</time>
      </trkpt>
      <trkpt lat="41.79641" lon="9.22054">
        <ele>1159.9</ele>
        <time>2018-09-04T10:52:14Z</time>
      </trkpt>
      <trkpt lat="41.79645" lon="9.22058">
        <ele>1160.63</ele>
        <time>2018-09-04T10:52:28Z</time>
      </trkpt>
      <trkpt lat="41.79648" lon="9.22062">
        <ele>1157.89</ele>
        <time>2018-09-04T10:52:40Z</time>
      </trkpt>
      <trkpt lat="41.79649" lon="9.22066">
        <ele>1160.11</ele>
        <time>2018-09-04T10:52:45Z</time>
      </trkpt>
      <trkpt lat="41.7965" lon="9.22067">
        <ele>1160.1</ele>
        <time>2018-09-04T10:52:46Z</time>
      </trkpt>
      <trkpt lat="41.79652" lon="9.22077">
        <ele>1160.19</ele>
        <time>2018-09-04T10:53:00Z</time>
      </trkpt>
      <trkpt lat="41.79655" lon="9.22078">
        <ele>1162.38</ele>
        <time>2018-09-04T10:53:11Z</time>
      </trkpt>
      <trkpt lat="41.7966" lon="9.22081">
        <ele>1163.25</ele>
        <time>2018-09-04T10:53:25Z</time>
      </trkpt>
      <trkpt lat="41.79661" lon="9.22082">
        <ele>1164.48</ele>
        <time>2018-09-04T10:53:28Z</time>
      </trkpt>
      <trkpt lat="41.79663" lon="9.22087">
        <ele>1166.72</ele>
        <time>2018-09-04T10:53:42Z</time>
      </trkpt>
      <trkpt lat="41.79665" lon="9.2209">
        <ele>1169.62</ele>
        <time>2018-09-04T10:53:55Z</time>
      </trkpt>
      <trkpt lat="41.79667" lon="9.22094">
        <ele>1171.12</ele>
        <time>2018-09-04T10:54:11Z</time>
      </trkpt>
      <trkpt lat="41.79668" lon="9.22094">
        <ele>1171.13</ele>
        <time>2018-09-04T10:54:12Z</time>
      </trkpt>
      <trkpt lat="41.79669" lon="9.22094">
        <ele>1172.35</ele>
        <time>2018-09-04T10:54:16Z</time>
      </trkpt>
      <trkpt lat="41.79669" lon="9.22095">
        <ele>1169.85</ele>
        <time>2018-09-04T10:54:19Z</time>
      </trkpt>
      <trkpt lat="41.79671" lon="9.221">
        <ele>1172.41</ele>
        <time>2018-09-04T10:54:32Z</time>
      </trkpt>
      <trkpt lat="41.79675" lon="9.22104">
        <ele>1175.46</ele>
        <time>2018-09-04T10:54:43Z</time>
      </trkpt>
      <trkpt lat="41.7968" lon="9.22109">
        <ele>1176.7</ele>
        <time>2018-09-04T10:54:59Z</time>
      </trkpt>
      <trkpt lat="41.79681" lon="9.22113">
        <ele>1177.51</ele>
        <time>2018-09-04T10:55:12Z</time>
      </trkpt>
      <trkpt lat="41.79684" lon="9.22121">
        <ele>1178.27</ele>
        <time>2018-09-04T10:55:26Z</time>
      </trkpt>
      <trkpt lat="41.79687" lon="9.22128">
        <ele>1179.04</ele>
        <time>2018-09-04T10:55:41Z</time>
      </trkpt>
      <trkpt lat="41.7969" lon="9.22136">
        <ele>1179.86</ele>
        <time>2018-09-04T10:55:57Z</time>
      </trkpt>
      <trkpt lat="41.79694" lon="9.22142">
        <ele>1181.01</ele>
        <time>2018-09-04T10:56:12Z</time>
      </trkpt>
      <trkpt lat="41.79695" lon="9.22142">
        <ele>1183.04</ele>
        <time>2018-09-04T10:56:20Z</time>
      </trkpt>
      <trkpt lat="41.79693" lon="9.22149">
        <ele>1183.78</ele>
        <time>2018-09-04T10:56:36Z</time>
      </trkpt>
      <trkpt lat="41.79693" lon="9.22158">
        <ele>1185.79</ele>
        <time>2018-09-04T10:56:54Z</time>
      </trkpt>
      <trkpt lat="41.79696" lon="9.2217">
        <ele>1187.7</ele>
        <time>2018-09-04T10:57:13Z</time>
      </trkpt>
      <trkpt lat="41.79697" lon="9.22171">
        <ele>1187.7</ele>
        <time>2018-09-04T10:57:14Z</time>
      </trkpt>
      <trkpt lat="41.797" lon="9.22182">
        <ele>1190.7</ele>
        <time>2018-09-04T10:57:31Z</time>
      </trkpt>
      <trkpt lat="41.79702" lon="9.22191">
        <ele>1192.47</ele>
        <time>2018-09-04T10:57:49Z</time>
      </trkpt>
      <trkpt lat="41.79706" lon="9.22194">
        <ele>1194.59</ele>
        <time>2018-09-04T10:58:06Z</time>
      </trkpt>
      <trkpt lat="41.79707" lon="9.22194">
        <ele>1194.56</ele>
        <time>2018-09-04T10:58:07Z</time>
      </trkpt>
      <trkpt lat="41.79717" lon="9.22188">
        <ele>1195.74</ele>
        <time>2018-09-04T10:58:23Z</time>
      </trkpt>
      <trkpt lat="41.79716" lon="9.22192">
        <ele>1196.45</ele>
        <time>2018-09-04T10:58:39Z</time>
      </trkpt>
      <trkpt lat="41.79717" lon="9.22198">
        <ele>1197.35</ele>
        <time>2018-09-04T10:59:01Z</time>
      </trkpt>
      <trkpt lat="41.79719" lon="9.22202">
        <ele>1199.92</ele>
        <time>2018-09-04T10:59:08Z</time>
      </trkpt>
      <trkpt lat="41.79722" lon="9.22212">
        <ele>1201.54</ele>
        <time>2018-09-04T10:59:25Z</time>
      </trkpt>
      <trkpt lat="41.7972" lon="9.22215">
        <ele>1203.46</ele>
        <time>2018-09-04T10:59:44Z</time>
      </trkpt>
      <trkpt lat="41.7972" lon="9.22218">
        <ele>1201.14</ele>
        <time>2018-09-04T10:59:50Z</time>
      </trkpt>
      <trkpt lat="41.79721" lon="9.22225">
        <ele>1203.47</ele>
        <time>2018-09-04T11:00:01Z</time>
      </trkpt>
      <trkpt lat="41.79716" lon="9.2224">
        <ele>1205.61</ele>
        <time>2018-09-04T11:00:19Z</time>
      </trkpt>
      <trkpt lat="41.79714" lon="9.22248">
        <ele>1203.26</ele>
        <time>2018-09-04T11:00:32Z</time>
      </trkpt>
      <trkpt lat="41.7971" lon="9.22258">
        <ele>1203.25</ele>
        <time>2018-09-04T11:00:41Z</time>
      </trkpt>
      <trkpt lat="41.79702" lon="9.22276">
        <ele>1203.27</ele>
        <time>2018-09-04T11:00:57Z</time>
      </trkpt>
      <trkpt lat="41.79694" lon="9.22295">
        <ele>1203.26</ele>
        <time>2018-09-04T11:01:13Z</time>
      </trkpt>
      <trkpt lat="41.79689" lon="9.22313">
        <ele>1203.29</ele>
        <time>2018-09-04T11:01:28Z</time>
      </trkpt>
      <trkpt lat="41.79684" lon="9.22321">
        <ele>1205.69</ele>
        <time>2018-09-04T11:01:36Z</time>
      </trkpt>
      <trkpt lat="41.79678" lon="9.22335">
        <ele>1206.83</ele>
        <time>2018-09-04T11:01:50Z</time>
      </trkpt>
      <trkpt lat="41.79672" lon="9.22349">
        <ele>1208.78</ele>
        <time>2018-09-04T11:02:05Z</time>
      </trkpt>
      <trkpt lat="41.79659" lon="9.22361">
        <ele>1208.73</ele>
        <time>2018-09-04T11:02:21Z</time>
      </trkpt>
      <trkpt lat="41.79653" lon="9.22368">
        <ele>1208.77</ele>
        <time>2018-09-04T11:02:29Z</time>
      </trkpt>
      <trkpt lat="41.7964" lon="9.22382">
        <ele>1208.78</ele>
        <time>2018-09-04T11:02:42Z</time>
      </trkpt>
      <trkpt lat="41.79638" lon="9.22386">
        <ele>1208.76</ele>
        <time>2018-09-04T11:02:45Z</time>
      </trkpt>
      <trkpt lat="41.79624" lon="9.22407">
        <ele>1209.87</ele>
        <time>2018-09-04T11:03:06Z</time>
      </trkpt>
      <trkpt lat="41.79608" lon="9.22427">
        <ele>1211.1</ele>
        <time>2018-09-04T11:03:28Z</time>
      </trkpt>
      <trkpt lat="41.79592" lon="9.22431">
        <ele>1213.43</ele>
        <time>2018-09-04T11:03:47Z</time>
      </trkpt>
      <trkpt lat="41.79582" lon="9.2243">
        <ele>1213.38</ele>
        <time>2018-09-04T11:04:03Z</time>
      </trkpt>
      <trkpt lat="41.79581" lon="9.22427">
        <ele>1213.36</ele>
        <time>2018-09-04T11:04:09Z</time>
      </trkpt>
      <trkpt lat="41.79578" lon="9.22404">
        <ele>1213.42</ele>
        <time>2018-09-04T11:04:29Z</time>
      </trkpt>
      <trkpt lat="41.79575" lon="9.2239">
        <ele>1211.17</ele>
        <time>2018-09-04T11:04:40Z</time>
      </trkpt>
      <trkpt lat="41.79568" lon="9.22361">
        <ele>1210.21</ele>
        <time>2018-09-04T11:05:03Z</time>
      </trkpt>
      <trkpt lat="41.7956" lon="9.22355">
        <ele>1209.26</ele>
        <time>2018-09-04T11:05:16Z</time>
      </trkpt>
      <trkpt lat="41.79555" lon="9.22355">
        <ele>1209.3</ele>
        <time>2018-09-04T11:05:32Z</time>
      </trkpt>
      <trkpt lat="41.79555" lon="9.22355">
        <ele>1209.34</ele>
        <time>2018-09-04T11:06:09Z</time>
      </trkpt>
      <trkpt lat="41.79555" lon="9.22355">
        <ele>1211.6</ele>
        <time>2018-09-04T11:06:24Z</time>
      </trkpt>
      <trkpt lat="41.79555" lon="9.22355">
        <ele>1209.22</ele>
        <time>2018-09-04T11:06:28Z</time>
      </trkpt>
      <trkpt lat="41.79555" lon="9.22354">
        <ele>1208.48</ele>
        <time>2018-09-04T11:07:06Z</time>
      </trkpt>
      <trkpt lat="41.79556" lon="9.22353">
        <ele>1208.55</ele>
        <time>2018-09-04T11:07:50Z</time>
      </trkpt>
      <trkpt lat="41.79556" lon="9.22352">
        <ele>1207.26</ele>
        <time>2018-09-04T11:08:01Z</time>
      </trkpt>
      <trkpt lat="41.79556" lon="9.22353">
        <ele>1203.65</ele>
        <time>2018-09-04T11:08:02Z</time>
      </trkpt>
      <trkpt lat="41.79556" lon="9.22353">
        <ele>1208.84</ele>
        <time>2018-09-04T11:08:03Z</time>
      </trkpt>
      <trkpt lat="41.79556" lon="9.22353">
        <ele>1208.85</ele>
        <time>2018-09-04T11:08:04Z</time>
      </trkpt>
      <trkpt lat="41.79555" lon="9.22351">
        <ele>1210.74</ele>
        <time>2018-09-04T11:08:21Z</time>
      </trkpt>
      <trkpt lat="41.79556" lon="9.22351">
        <ele>1208.39</ele>
        <time>2018-09-04T11:08:32Z</time>
      </trkpt>
      <trkpt lat="41.79554" lon="9.22351">
        <ele>1208.44</ele>
        <time>2018-09-04T11:09:21Z</time>
      </trkpt>
      <trkpt lat="41.79555" lon="9.22352">
        <ele>1208.49</ele>
        <time>2018-09-04T11:10:23Z</time>
      </trkpt>
      <trkpt lat="41.79556" lon="9.22352">
        <ele>1208.5</ele>
        <time>2018-09-04T11:11:25Z</time>
      </trkpt>
      <trkpt lat="41.79556" lon="9.22352">
        <ele>1208.47</ele>
        <time>2018-09-04T11:12:29Z</time>
      </trkpt>
      <trkpt lat="41.79556" lon="9.22352">
        <ele>1208.46</ele>
        <time>2018-09-04T11:13:19Z</time>
      </trkpt>
      <trkpt lat="41.79557" lon="9.22352">
        <ele>1208.44</ele>
        <time>2018-09-04T11:14:15Z</time>
      </trkpt>
      <trkpt lat="41.79556" lon="9.22353">
        <ele>1208.44</ele>
        <time>2018-09-04T11:15:15Z</time>
      </trkpt>
      <trkpt lat="41.79554" lon="9.22352">
        <ele>1207.74</ele>
        <time>2018-09-04T11:16:26Z</time>
      </trkpt>
      <trkpt lat="41.79554" lon="9.22352">
        <ele>1207.83</ele>
        <time>2018-09-04T11:17:39Z</time>
      </trkpt>
      <trkpt lat="41.79555" lon="9.22352">
        <ele>1207.92</ele>
        <time>2018-09-04T11:18:44Z</time>
      </trkpt>
      <trkpt lat="41.79554" lon="9.22351">
        <ele>1207.15</ele>
        <time>2018-09-04T11:19:41Z</time>
      </trkpt>
      <trkpt lat="41.79555" lon="9.22352">
        <ele>1207.21</ele>
        <time>2018-09-04T11:20:25Z</time>
      </trkpt>
      <trkpt lat="41.79556" lon="9.22351">
        <ele>1209.16</ele>
        <time>2018-09-04T11:21:10Z</time>
      </trkpt>
      <trkpt lat="41.79556" lon="9.22351">
        <ele>1207.79</ele>
        <time>2018-09-04T11:21:13Z</time>
      </trkpt>
      <trkpt lat="41.79556" lon="9.22351">
        <ele>1207.86</ele>
        <time>2018-09-04T11:22:16Z</time>
      </trkpt>
      <trkpt lat="41.79555" lon="9.22353">
        <ele>1207.9</ele>
        <time>2018-09-04T11:23:03Z</time>
      </trkpt>
      <trkpt lat="41.79556" lon="9.22356">
        <ele>1207.95</ele>
        <time>2018-09-04T11:23:40Z</time>
      </trkpt>
      <trkpt lat="41.79555" lon="9.22355">
        <ele>1209.94</ele>
        <time>2018-09-04T11:23:59Z</time>
      </trkpt>
      <trkpt lat="41.79555" lon="9.22355">
        <ele>1207.73</ele>
        <time>2018-09-04T11:24:13Z</time>
      </trkpt>
      <trkpt lat="41.79554" lon="9.22356">
        <ele>1206.15</ele>
        <time>2018-09-04T11:24:35Z</time>
      </trkpt>
      <trkpt lat="41.79554" lon="9.22356">
        <ele>1208.98</ele>
        <time>2018-09-04T11:24:38Z</time>
      </trkpt>
      <trkpt lat="41.79556" lon="9.22358">
        <ele>1209.03</ele>
        <time>2018-09-04T11:25:03Z</time>
      </trkpt>
      <trkpt lat="41.7956" lon="9.22359">
        <ele>1209.01</ele>
        <time>2018-09-04T11:25:12Z</time>
      </trkpt>
      <trkpt lat="41.79569" lon="9.22385">
        <ele>1209.14</ele>
        <time>2018-09-04T11:25:32Z</time>
      </trkpt>
      <trkpt lat="41.79571" lon="9.22394">
        <ele>1210.43</ele>
        <time>2018-09-04T11:25:39Z</time>
      </trkpt>
      <trkpt lat="41.79572" lon="9.22405">
        <ele>1210.39</ele>
        <time>2018-09-04T11:25:48Z</time>
      </trkpt>
      <trkpt lat="41.7957" lon="9.22408">
        <ele>1211.64</ele>
        <time>2018-09-04T11:25:51Z</time>
      </trkpt>
      <trkpt lat="41.79567" lon="9.22424">
        <ele>1208.8</ele>
        <time>2018-09-04T11:26:07Z</time>
      </trkpt>
      <trkpt lat="41.79567" lon="9.22424">
        <ele>1212.1</ele>
        <time>2018-09-04T11:26:08Z</time>
      </trkpt>
      <trkpt lat="41.79566" lon="9.22424">
        <ele>1207.71</ele>
        <time>2018-09-04T11:26:09Z</time>
      </trkpt>
      <trkpt lat="41.79566" lon="9.22424">
        <ele>1214.22</ele>
        <time>2018-09-04T11:26:10Z</time>
      </trkpt>
      <trkpt lat="41.79566" lon="9.22424">
        <ele>1218.38</ele>
        <time>2018-09-04T11:26:11Z</time>
      </trkpt>
      <trkpt lat="41.79566" lon="9.22424">
        <ele>1209.72</ele>
        <time>2018-09-04T11:26:12Z</time>
      </trkpt>
      <trkpt lat="41.79566" lon="9.22424">
        <ele>1212.97</ele>
        <time>2018-09-04T11:26:13Z</time>
      </trkpt>
      <trkpt lat="41.79566" lon="9.22424">
        <ele>1217.86</ele>
        <time>2018-09-04T11:26:14Z</time>
      </trkpt>
      <trkpt lat="41.79567" lon="9.22424">
        <ele>1212.65</ele>
        <time>2018-09-04T11:26:15Z</time>
      </trkpt>
      <trkpt lat="41.79567" lon="9.22424">
        <ele>1211.13</ele>
        <time>2018-09-04T11:26:17Z</time>
      </trkpt>
      <trkpt lat="41.79566" lon="9.22425">
        <ele>1207.85</ele>
        <time>2018-09-04T11:26:19Z</time>
      </trkpt>
      <trkpt lat="41.79566" lon="9.22425">
        <ele>1211.66</ele>
        <time>2018-09-04T11:26:20Z</time>
      </trkpt>
      <trkpt lat="41.79566" lon="9.22426">
        <ele>1207.84</ele>
        <time>2018-09-04T11:26:21Z</time>
      </trkpt>
      <trkpt lat="41.79565" lon="9.22427">
        <ele>1214.14</ele>
        <time>2018-09-04T11:26:23Z</time>
      </trkpt>
      <trkpt lat="41.79565" lon="9.22428">
        <ele>1213.88</ele>
        <time>2018-09-04T11:26:24Z</time>
      </trkpt>
      <trkpt lat="41.79565" lon="9.22429">
        <ele>1209.57</ele>
        <time>2018-09-04T11:26:28Z</time>
      </trkpt>
      <trkpt lat="41.79565" lon="9.22429">
        <ele>1213.48</ele>
        <time>2018-09-04T11:26:29Z</time>
      </trkpt>
      <trkpt lat="41.79565" lon="9.22428">
        <ele>1217.43</ele>
        <time>2018-09-04T11:26:31Z</time>
      </trkpt>
      <trkpt lat="41.79565" lon="9.22428">
        <ele>1207.96</ele>
        <time>2018-09-04T11:26:32Z</time>
      </trkpt>
      <trkpt lat="41.79565" lon="9.22428">
        <ele>1214.53</ele>
        <time>2018-09-04T11:26:33Z</time>
      </trkpt>
      <trkpt lat="41.79565" lon="9.22428">
        <ele>1212.16</ele>
        <time>2018-09-04T11:26:37Z</time>
      </trkpt>
      <trkpt lat="41.79565" lon="9.22428">
        <ele>1212.05</ele>
        <time>2018-09-04T11:26:41Z</time>
      </trkpt>
      <trkpt lat="41.79567" lon="9.22434">
        <ele>1211.04</ele>
        <time>2018-09-04T11:26:45Z</time>
      </trkpt>
      <trkpt lat="41.79568" lon="9.22442">
        <ele>1213.57</ele>
        <time>2018-09-04T11:26:51Z</time>
      </trkpt>
      <trkpt lat="41.79572" lon="9.22464">
        <ele>1213.56</ele>
        <time>2018-09-04T11:27:07Z</time>
      </trkpt>
      <trkpt lat="41.79573" lon="9.22481">
        <ele>1214.37</ele>
        <time>2018-09-04T11:27:19Z</time>
      </trkpt>
      <trkpt lat="41.79576" lon="9.22487">
        <ele>1210.65</ele>
        <time>2018-09-04T11:27:24Z</time>
      </trkpt>
      <trkpt lat="41.79577" lon="9.22487">
        <ele>1210.65</ele>
        <time>2018-09-04T11:27:25Z</time>
      </trkpt>
      <trkpt lat="41.79591" lon="9.22482">
        <ele>1213.5</ele>
        <time>2018-09-04T11:27:40Z</time>
      </trkpt>
      <trkpt lat="41.79593" lon="9.22481">
        <ele>1211.23</ele>
        <time>2018-09-04T11:27:42Z</time>
      </trkpt>
      <trkpt lat="41.79595" lon="9.2248">
        <ele>1211.3</ele>
        <time>2018-09-04T11:27:44Z</time>
      </trkpt>
      <trkpt lat="41.79608" lon="9.22482">
        <ele>1211.33</ele>
        <time>2018-09-04T11:28:02Z</time>
      </trkpt>
      <trkpt lat="41.79607" lon="9.22482">
        <ele>1213.75</ele>
        <time>2018-09-04T11:28:07Z</time>
      </trkpt>
      <trkpt lat="41.7961" lon="9.22482">
        <ele>1213.74</ele>
        <time>2018-09-04T11:28:21Z</time>
      </trkpt>
      <trkpt lat="41.7961" lon="9.22481">
        <ele>1213.74</ele>
        <time>2018-09-04T11:28:35Z</time>
      </trkpt>
      <trkpt lat="41.79608" lon="9.22482">
        <ele>1213.74</ele>
        <time>2018-09-04T11:28:53Z</time>
      </trkpt>
      <trkpt lat="41.79605" lon="9.22483">
        <ele>1210.72</ele>
        <time>2018-09-04T11:28:56Z</time>
      </trkpt>
      <trkpt lat="41.79604" lon="9.22483">
        <ele>1210.75</ele>
        <time>2018-09-04T11:28:57Z</time>
      </trkpt>
      <trkpt lat="41.796" lon="9.22483">
        <ele>1210.74</ele>
        <time>2018-09-04T11:29:01Z</time>
      </trkpt>
      <trkpt lat="41.79593" lon="9.2248">
        <ele>1210.7</ele>
        <time>2018-09-04T11:29:08Z</time>
      </trkpt>
      <trkpt lat="41.7959" lon="9.2249">
        <ele>1210.71</ele>
        <time>2018-09-04T11:29:18Z</time>
      </trkpt>
      <trkpt lat="41.7959" lon="9.22513">
        <ele>1209.89</ele>
        <time>2018-09-04T11:29:33Z</time>
      </trkpt>
      <trkpt lat="41.79592" lon="9.2253">
        <ele>1207.6</ele>
        <time>2018-09-04T11:29:43Z</time>
      </trkpt>
      <trkpt lat="41.79593" lon="9.22533">
        <ele>1207.67</ele>
        <time>2018-09-04T11:29:45Z</time>
      </trkpt>
      <trkpt lat="41.79593" lon="9.22542">
        <ele>1207.6</ele>
        <time>2018-09-04T11:29:51Z</time>
      </trkpt>
      <trkpt lat="41.79594" lon="9.22558">
        <ele>1207.67</ele>
        <time>2018-09-04T11:30:06Z</time>
      </trkpt>
      <trkpt lat="41.79595" lon="9.22561">
        <ele>1207.68</ele>
        <time>2018-09-04T11:30:08Z</time>
      </trkpt>
      <trkpt lat="41.79594" lon="9.22569">
        <ele>1206.56</ele>
        <time>2018-09-04T11:30:19Z</time>
      </trkpt>
      <trkpt lat="41.79593" lon="9.22598">
        <ele>1204.32</ele>
        <time>2018-09-04T11:30:39Z</time>
      </trkpt>
      <trkpt lat="41.79594" lon="9.22607">
        <ele>1202.61</ele>
        <time>2018-09-04T11:30:53Z</time>
      </trkpt>
      <trkpt lat="41.79593" lon="9.22621">
        <ele>1201.75</ele>
        <time>2018-09-04T11:31:17Z</time>
      </trkpt>
      <trkpt lat="41.79591" lon="9.2264">
        <ele>1197.3</ele>
        <time>2018-09-04T11:31:30Z</time>
      </trkpt>
      <trkpt lat="41.79591" lon="9.22642">
        <ele>1201.14</ele>
        <time>2018-09-04T11:31:31Z</time>
      </trkpt>
      <trkpt lat="41.79591" lon="9.22645">
        <ele>1201.22</ele>
        <time>2018-09-04T11:31:35Z</time>
      </trkpt>
      <trkpt lat="41.79589" lon="9.22652">
        <ele>1201.17</ele>
        <time>2018-09-04T11:31:40Z</time>
      </trkpt>
      <trkpt lat="41.79588" lon="9.22655">
        <ele>1198.62</ele>
        <time>2018-09-04T11:31:42Z</time>
      </trkpt>
      <trkpt lat="41.7958" lon="9.22677">
        <ele>1197.5</ele>
        <time>2018-09-04T11:31:58Z</time>
      </trkpt>
      <trkpt lat="41.79577" lon="9.22685">
        <ele>1196.64</ele>
        <time>2018-09-04T11:32:04Z</time>
      </trkpt>
      <trkpt lat="41.79571" lon="9.22694">
        <ele>1195.2</ele>
        <time>2018-09-04T11:32:13Z</time>
      </trkpt>
      <trkpt lat="41.79569" lon="9.22698">
        <ele>1195.22</ele>
        <time>2018-09-04T11:32:16Z</time>
      </trkpt>
      <trkpt lat="41.79566" lon="9.22704">
        <ele>1195.18</ele>
        <time>2018-09-04T11:32:20Z</time>
      </trkpt>
      <trkpt lat="41.79561" lon="9.22709">
        <ele>1193.96</ele>
        <time>2018-09-04T11:32:26Z</time>
      </trkpt>
      <trkpt lat="41.79557" lon="9.22718">
        <ele>1192.56</ele>
        <time>2018-09-04T11:32:32Z</time>
      </trkpt>
      <trkpt lat="41.79547" lon="9.22738">
        <ele>1191.87</ele>
        <time>2018-09-04T11:32:46Z</time>
      </trkpt>
      <trkpt lat="41.79536" lon="9.22761">
        <ele>1189.63</ele>
        <time>2018-09-04T11:33:01Z</time>
      </trkpt>
      <trkpt lat="41.79524" lon="9.22781">
        <ele>1187.68</ele>
        <time>2018-09-04T11:33:16Z</time>
      </trkpt>
      <trkpt lat="41.7952" lon="9.22788">
        <ele>1188.24</ele>
        <time>2018-09-04T11:33:21Z</time>
      </trkpt>
      <trkpt lat="41.79519" lon="9.22799">
        <ele>1185.51</ele>
        <time>2018-09-04T11:33:27Z</time>
      </trkpt>
      <trkpt lat="41.7952" lon="9.22826">
        <ele>1185.49</ele>
        <time>2018-09-04T11:33:41Z</time>
      </trkpt>
      <trkpt lat="41.79528" lon="9.22839">
        <ele>1182.74</ele>
        <time>2018-09-04T11:33:51Z</time>
      </trkpt>
      <trkpt lat="41.79531" lon="9.22851">
        <ele>1179.47</ele>
        <time>2018-09-04T11:34:01Z</time>
      </trkpt>
      <trkpt lat="41.79533" lon="9.22857">
        <ele>1177.68</ele>
        <time>2018-09-04T11:34:08Z</time>
      </trkpt>
      <trkpt lat="41.79537" lon="9.22859">
        <ele>1176.72</ele>
        <time>2018-09-04T11:34:18Z</time>
      </trkpt>
      <trkpt lat="41.79539" lon="9.2286">
        <ele>1174.91</ele>
        <time>2018-09-04T11:34:30Z</time>
      </trkpt>
      <trkpt lat="41.79538" lon="9.22861">
        <ele>1173.29</ele>
        <time>2018-09-04T11:34:32Z</time>
      </trkpt>
      <trkpt lat="41.79538" lon="9.22863">
        <ele>1173.37</ele>
        <time>2018-09-04T11:34:35Z</time>
      </trkpt>
      <trkpt lat="41.79542" lon="9.22871">
        <ele>1173.55</ele>
        <time>2018-09-04T11:34:51Z</time>
      </trkpt>
      <trkpt lat="41.79543" lon="9.22867">
        <ele>1173.68</ele>
        <time>2018-09-04T11:35:13Z</time>
      </trkpt>
      <trkpt lat="41.79541" lon="9.22868">
        <ele>1176.25</ele>
        <time>2018-09-04T11:35:29Z</time>
      </trkpt>
      <trkpt lat="41.79541" lon="9.22867">
        <ele>1180.29</ele>
        <time>2018-09-04T11:35:32Z</time>
      </trkpt>
      <trkpt lat="41.79541" lon="9.22867">
        <ele>1174.66</ele>
        <time>2018-09-04T11:35:33Z</time>
      </trkpt>
      <trkpt lat="41.79541" lon="9.22867">
        <ele>1174.66</ele>
        <time>2018-09-04T11:35:34Z</time>
      </trkpt>
      <trkpt lat="41.79541" lon="9.22868">
        <ele>1174.7</ele>
        <time>2018-09-04T11:35:47Z</time>
      </trkpt>
      <trkpt lat="41.79541" lon="9.22867">
        <ele>1173.46</ele>
        <time>2018-09-04T11:35:49Z</time>
      </trkpt>
      <trkpt lat="41.79541" lon="9.22867">
        <ele>1176.06</ele>
        <time>2018-09-04T11:35:51Z</time>
      </trkpt>
      <trkpt lat="41.79541" lon="9.22866">
        <ele>1173.75</ele>
        <time>2018-09-04T11:35:54Z</time>
      </trkpt>
      <trkpt lat="41.79541" lon="9.22866">
        <ele>1175.02</ele>
        <time>2018-09-04T11:35:58Z</time>
      </trkpt>
      <trkpt lat="41.79541" lon="9.22866">
        <ele>1171.34</ele>
        <time>2018-09-04T11:36:14Z</time>
      </trkpt>
      <trkpt lat="41.79541" lon="9.22866">
        <ele>1176.14</ele>
        <time>2018-09-04T11:36:15Z</time>
      </trkpt>
      <trkpt lat="41.79539" lon="9.22865">
        <ele>1173.91</ele>
        <time>2018-09-04T11:36:34Z</time>
      </trkpt>
      <trkpt lat="41.79537" lon="9.22862">
        <ele>1173.81</ele>
        <time>2018-09-04T11:36:57Z</time>
      </trkpt>
      <trkpt lat="41.79538" lon="9.22866">
        <ele>1173.94</ele>
        <time>2018-09-04T11:37:25Z</time>
      </trkpt>
      <trkpt lat="41.79539" lon="9.22867">
        <ele>1174.03</ele>
        <time>2018-09-04T11:37:52Z</time>
      </trkpt>
      <trkpt lat="41.79539" lon="9.22868">
        <ele>1174.11</ele>
        <time>2018-09-04T11:38:19Z</time>
      </trkpt>
      <trkpt lat="41.79538" lon="9.22868">
        <ele>1174.2</ele>
        <time>2018-09-04T11:38:45Z</time>
      </trkpt>
      <trkpt lat="41.79537" lon="9.22867">
        <ele>1176.26</ele>
        <time>2018-09-04T11:39:04Z</time>
      </trkpt>
      <trkpt lat="41.79539" lon="9.22865">
        <ele>1176.34</ele>
        <time>2018-09-04T11:39:28Z</time>
      </trkpt>
      <trkpt lat="41.79539" lon="9.22868">
        <ele>1176.45</ele>
        <time>2018-09-04T11:40:02Z</time>
      </trkpt>
      <trkpt lat="41.79539" lon="9.22868">
        <ele>1174.04</ele>
        <time>2018-09-04T11:40:08Z</time>
      </trkpt>
      <trkpt lat="41.79535" lon="9.22864">
        <ele>1174.05</ele>
        <time>2018-09-04T11:40:11Z</time>
      </trkpt>
      <trkpt lat="41.79532" lon="9.2286">
        <ele>1167.66</ele>
        <time>2018-09-04T11:40:26Z</time>
      </trkpt>
      <trkpt lat="41.79532" lon="9.2286">
        <ele>1173.34</ele>
        <time>2018-09-04T11:40:27Z</time>
      </trkpt>
      <trkpt lat="41.79533" lon="9.22861">
        <ele>1175.95</ele>
        <time>2018-09-04T11:40:29Z</time>
      </trkpt>
      <trkpt lat="41.79533" lon="9.2286">
        <ele>1177.74</ele>
        <time>2018-09-04T11:40:31Z</time>
      </trkpt>
      <trkpt lat="41.79533" lon="9.22861">
        <ele>1175.39</ele>
        <time>2018-09-04T11:40:37Z</time>
      </trkpt>
      <trkpt lat="41.79533" lon="9.22861">
        <ele>1175.39</ele>
        <time>2018-09-04T11:40:38Z</time>
      </trkpt>
      <trkpt lat="41.79533" lon="9.22864">
        <ele>1175.46</ele>
        <time>2018-09-04T11:41:01Z</time>
      </trkpt>
      <trkpt lat="41.79535" lon="9.22861">
        <ele>1174.83</ele>
        <time>2018-09-04T11:41:32Z</time>
      </trkpt>
      <trkpt lat="41.79541" lon="9.22862">
        <ele>1175.01</ele>
        <time>2018-09-04T11:42:05Z</time>
      </trkpt>
      <trkpt lat="41.79539" lon="9.2286">
        <ele>1168.54</ele>
        <time>2018-09-04T11:42:31Z</time>
      </trkpt>
      <trkpt lat="41.79539" lon="9.2286">
        <ele>1178.04</ele>
        <time>2018-09-04T11:42:32Z</time>
      </trkpt>
      <trkpt lat="41.79538" lon="9.22859">
        <ele>1178.04</ele>
        <time>2018-09-04T11:42:33Z</time>
      </trkpt>
      <trkpt lat="41.79537" lon="9.22858">
        <ele>1175.66</ele>
        <time>2018-09-04T11:42:35Z</time>
      </trkpt>
      <trkpt lat="41.79535" lon="9.22857">
        <ele>1175.67</ele>
        <time>2018-09-04T11:42:39Z</time>
      </trkpt>
      <trkpt lat="41.79537" lon="9.22858">
        <ele>1178.24</ele>
        <time>2018-09-04T11:42:49Z</time>
      </trkpt>
      <trkpt lat="41.79539" lon="9.22859">
        <ele>1178.28</ele>
        <time>2018-09-04T11:42:53Z</time>
      </trkpt>
      <trkpt lat="41.79542" lon="9.22862">
        <ele>1175.23</ele>
        <time>2018-09-04T11:43:05Z</time>
      </trkpt>
      <trkpt lat="41.79542" lon="9.22861">
        <ele>1175.23</ele>
        <time>2018-09-04T11:43:06Z</time>
      </trkpt>
      <trkpt lat="41.79538" lon="9.22858">
        <ele>1175.34</ele>
        <time>2018-09-04T11:43:31Z</time>
      </trkpt>
      <trkpt lat="41.79535" lon="9.22855">
        <ele>1175.38</ele>
        <time>2018-09-04T11:43:35Z</time>
      </trkpt>
      <trkpt lat="41.79524" lon="9.22849">
        <ele>1178.39</ele>
        <time>2018-09-04T11:43:58Z</time>
      </trkpt>
      <trkpt lat="41.79525" lon="9.2285">
        <ele>1171.99</ele>
        <time>2018-09-04T11:43:59Z</time>
      </trkpt>
      <trkpt lat="41.79525" lon="9.2285">
        <ele>1178.75</ele>
        <time>2018-09-04T11:44:00Z</time>
      </trkpt>
      <trkpt lat="41.79529" lon="9.22851">
        <ele>1178.88</ele>
        <time>2018-09-04T11:44:22Z</time>
      </trkpt>
      <trkpt lat="41.79526" lon="9.22849">
        <ele>1176.59</ele>
        <time>2018-09-04T11:44:32Z</time>
      </trkpt>
      <trkpt lat="41.79529" lon="9.2285">
        <ele>1176.73</ele>
        <time>2018-09-04T11:45:00Z</time>
      </trkpt>
      <trkpt lat="41.79533" lon="9.22854">
        <ele>1174.88</ele>
        <time>2018-09-04T11:45:24Z</time>
      </trkpt>
      <trkpt lat="41.79533" lon="9.22854">
        <ele>1181.75</ele>
        <time>2018-09-04T11:45:25Z</time>
      </trkpt>
      <trkpt lat="41.79532" lon="9.22854">
        <ele>1178.38</ele>
        <time>2018-09-04T11:45:26Z</time>
      </trkpt>
      <trkpt lat="41.79533" lon="9.22854">
        <ele>1178.41</ele>
        <time>2018-09-04T11:45:50Z</time>
      </trkpt>
      <trkpt lat="41.79525" lon="9.22848">
        <ele>1178.48</ele>
        <time>2018-09-04T11:45:54Z</time>
      </trkpt>
      <trkpt lat="41.79526" lon="9.22844">
        <ele>1179.94</ele>
        <time>2018-09-04T11:46:11Z</time>
      </trkpt>
      <trkpt lat="41.79527" lon="9.22843">
        <ele>1180.05</ele>
        <time>2018-09-04T11:46:39Z</time>
      </trkpt>
      <trkpt lat="41.79526" lon="9.22838">
        <ele>1180.16</ele>
        <time>2018-09-04T11:47:02Z</time>
      </trkpt>
      <trkpt lat="41.79521" lon="9.22841">
        <ele>1180.25</ele>
        <time>2018-09-04T11:47:28Z</time>
      </trkpt>
      <trkpt lat="41.79523" lon="9.22843">
        <ele>1178.01</ele>
        <time>2018-09-04T11:47:31Z</time>
      </trkpt>
      <trkpt lat="41.79525" lon="9.22846">
        <ele>1180.38</ele>
        <time>2018-09-04T11:47:36Z</time>
      </trkpt>
      <trkpt lat="41.79532" lon="9.22854">
        <ele>1180.48</ele>
        <time>2018-09-04T11:48:07Z</time>
      </trkpt>
      <trkpt lat="41.79528" lon="9.22849">
        <ele>1180.53</ele>
        <time>2018-09-04T11:48:29Z</time>
      </trkpt>
      <trkpt lat="41.79535" lon="9.22857">
        <ele>1180.6</ele>
        <time>2018-09-04T11:49:03Z</time>
      </trkpt>
      <trkpt lat="41.7953" lon="9.22854">
        <ele>1181.45</ele>
        <time>2018-09-04T11:49:38Z</time>
      </trkpt>
      <trkpt lat="41.79534" lon="9.22858">
        <ele>1181.52</ele>
        <time>2018-09-04T11:50:10Z</time>
      </trkpt>
      <trkpt lat="41.79532" lon="9.22859">
        <ele>1181.55</ele>
        <time>2018-09-04T11:51:04Z</time>
      </trkpt>
      <trkpt lat="41.79536" lon="9.22865">
        <ele>1182.37</ele>
        <time>2018-09-04T11:51:40Z</time>
      </trkpt>
      <trkpt lat="41.79538" lon="9.22866">
        <ele>1182.37</ele>
        <time>2018-09-04T11:52:13Z</time>
      </trkpt>
      <trkpt lat="41.79534" lon="9.22862">
        <ele>1182.37</ele>
        <time>2018-09-04T11:52:45Z</time>
      </trkpt>
      <trkpt lat="41.79532" lon="9.22858">
        <ele>1182.35</ele>
        <time>2018-09-04T11:53:20Z</time>
      </trkpt>
      <trkpt lat="41.79536" lon="9.22861">
        <ele>1182.32</ele>
        <time>2018-09-04T11:53:53Z</time>
      </trkpt>
      <trkpt lat="41.79539" lon="9.22864">
        <ele>1183.04</ele>
        <time>2018-09-04T11:54:28Z</time>
      </trkpt>
      <trkpt lat="41.79538" lon="9.22864">
        <ele>1182.98</ele>
        <time>2018-09-04T11:54:59Z</time>
      </trkpt>
      <trkpt lat="41.79532" lon="9.22861">
        <ele>1182.94</ele>
        <time>2018-09-04T11:55:30Z</time>
      </trkpt>
      <trkpt lat="41.79528" lon="9.22857">
        <ele>1182.92</ele>
        <time>2018-09-04T11:56:05Z</time>
      </trkpt>
      <trkpt lat="41.79532" lon="9.2286">
        <ele>1182.84</ele>
        <time>2018-09-04T11:56:38Z</time>
      </trkpt>
      <trkpt lat="41.79536" lon="9.2286">
        <ele>1182.85</ele>
        <time>2018-09-04T11:57:19Z</time>
      </trkpt>
      <trkpt lat="41.79535" lon="9.22861">
        <ele>1182.84</ele>
        <time>2018-09-04T11:58:03Z</time>
      </trkpt>
      <trkpt lat="41.79536" lon="9.22863">
        <ele>1182.81</ele>
        <time>2018-09-04T11:58:39Z</time>
      </trkpt>
      <trkpt lat="41.79537" lon="9.22865">
        <ele>1182.73</ele>
        <time>2018-09-04T11:59:17Z</time>
      </trkpt>
      <trkpt lat="41.79537" lon="9.22863">
        <ele>1182.67</ele>
        <time>2018-09-04T11:59:57Z</time>
      </trkpt>
      <trkpt lat="41.79536" lon="9.2286">
        <ele>1182.58</ele>
        <time>2018-09-04T12:00:36Z</time>
      </trkpt>
      <trkpt lat="41.79534" lon="9.22858">
        <ele>1182.44</ele>
        <time>2018-09-04T12:01:13Z</time>
      </trkpt>
      <trkpt lat="41.79534" lon="9.22858">
        <ele>1180.16</ele>
        <time>2018-09-04T12:01:15Z</time>
      </trkpt>
      <trkpt lat="41.79539" lon="9.22863">
        <ele>1180.16</ele>
        <time>2018-09-04T12:01:58Z</time>
      </trkpt>
      <trkpt lat="41.79538" lon="9.22862">
        <ele>1180.16</ele>
        <time>2018-09-04T12:02:10Z</time>
      </trkpt>
      <trkpt lat="41.79541" lon="9.22865">
        <ele>1179.37</ele>
        <time>2018-09-04T12:02:43Z</time>
      </trkpt>
      <trkpt lat="41.79538" lon="9.22863">
        <ele>1178.43</ele>
        <time>2018-09-04T12:03:26Z</time>
      </trkpt>
      <trkpt lat="41.79541" lon="9.22866">
        <ele>1178.52</ele>
        <time>2018-09-04T12:04:04Z</time>
      </trkpt>
      <trkpt lat="41.79538" lon="9.22867">
        <ele>1178.66</ele>
        <time>2018-09-04T12:04:46Z</time>
      </trkpt>
      <trkpt lat="41.79535" lon="9.22862">
        <ele>1177.13</ele>
        <time>2018-09-04T12:05:29Z</time>
      </trkpt>
      <trkpt lat="41.79535" lon="9.22862">
        <ele>1177.31</ele>
        <time>2018-09-04T12:06:09Z</time>
      </trkpt>
      <trkpt lat="41.79535" lon="9.2286">
        <ele>1177.53</ele>
        <time>2018-09-04T12:06:53Z</time>
      </trkpt>
      <trkpt lat="41.79538" lon="9.22861">
        <ele>1177.73</ele>
        <time>2018-09-04T12:07:31Z</time>
      </trkpt>
      <trkpt lat="41.79538" lon="9.22864">
        <ele>1177.99</ele>
        <time>2018-09-04T12:08:15Z</time>
      </trkpt>
      <trkpt lat="41.79538" lon="9.22865">
        <ele>1178.18</ele>
        <time>2018-09-04T12:08:52Z</time>
      </trkpt>
      <trkpt lat="41.79536" lon="9.22861">
        <ele>1178.41</ele>
        <time>2018-09-04T12:09:33Z</time>
      </trkpt>
      <trkpt lat="41.79536" lon="9.22864">
        <ele>1178.72</ele>
        <time>2018-09-04T12:10:19Z</time>
      </trkpt>
      <trkpt lat="41.79536" lon="9.22863">
        <ele>1178.3</ele>
        <time>2018-09-04T12:11:08Z</time>
      </trkpt>
      <trkpt lat="41.79537" lon="9.22863">
        <ele>1178.68</ele>
        <time>2018-09-04T12:11:56Z</time>
      </trkpt>
      <trkpt lat="41.79538" lon="9.22864">
        <ele>1179.02</ele>
        <time>2018-09-04T12:12:36Z</time>
      </trkpt>
      <trkpt lat="41.7954" lon="9.22867">
        <ele>1179.3</ele>
        <time>2018-09-04T12:13:21Z</time>
      </trkpt>
      <trkpt lat="41.7954" lon="9.22869">
        <ele>1179.55</ele>
        <time>2018-09-04T12:14:12Z</time>
      </trkpt>
      <trkpt lat="41.79537" lon="9.22867">
        <ele>1178.98</ele>
        <time>2018-09-04T12:15:00Z</time>
      </trkpt>
      <trkpt lat="41.79539" lon="9.22868">
        <ele>1179.38</ele>
        <time>2018-09-04T12:16:01Z</time>
      </trkpt>
      <trkpt lat="41.79536" lon="9.22862">
        <ele>1179.72</ele>
        <time>2018-09-04T12:16:54Z</time>
      </trkpt>
      <trkpt lat="41.79537" lon="9.22864">
        <ele>1179.19</ele>
        <time>2018-09-04T12:17:42Z</time>
      </trkpt>
      <trkpt lat="41.79536" lon="9.22864">
        <ele>1181.8</ele>
        <time>2018-09-04T12:18:11Z</time>
      </trkpt>
      <trkpt lat="41.79537" lon="9.22866">
        <ele>1182.01</ele>
        <time>2018-09-04T12:19:02Z</time>
      </trkpt>
      <trkpt lat="41.79536" lon="9.22866">
        <ele>1183.09</ele>
        <time>2018-09-04T12:20:09Z</time>
      </trkpt>
      <trkpt lat="41.79533" lon="9.22864">
        <ele>1183.37</ele>
        <time>2018-09-04T12:21:22Z</time>
      </trkpt>
      <trkpt lat="41.79535" lon="9.22868">
        <ele>1183.73</ele>
        <time>2018-09-04T12:22:34Z</time>
      </trkpt>
      <trkpt lat="41.79539" lon="9.2287">
        <ele>1183.94</ele>
        <time>2018-09-04T12:23:40Z</time>
      </trkpt>
      <trkpt lat="41.79539" lon="9.22867">
        <ele>1184.11</ele>
        <time>2018-09-04T12:24:43Z</time>
      </trkpt>
      <trkpt lat="41.79537" lon="9.22864">
        <ele>1184.24</ele>
        <time>2018-09-04T12:25:38Z</time>
      </trkpt>
      <trkpt lat="41.79537" lon="9.22867">
        <ele>1185.23</ele>
        <time>2018-09-04T12:26:23Z</time>
      </trkpt>
      <trkpt lat="41.79538" lon="9.22869">
        <ele>1186.92</ele>
        <time>2018-09-04T12:27:05Z</time>
      </trkpt>
      <trkpt lat="41.79538" lon="9.22872">
        <ele>1186.97</ele>
        <time>2018-09-04T12:28:00Z</time>
      </trkpt>
      <trkpt lat="41.79538" lon="9.22872">
        <ele>1189.55</ele>
        <time>2018-09-04T12:28:44Z</time>
      </trkpt>
      <trkpt lat="41.79539" lon="9.22872">
        <ele>1190.25</ele>
        <time>2018-09-04T12:29:33Z</time>
      </trkpt>
      <trkpt lat="41.7954" lon="9.22871">
        <ele>1190.94</ele>
        <time>2018-09-04T12:30:16Z</time>
      </trkpt>
      <trkpt lat="41.7954" lon="9.2287">
        <ele>1190.8</ele>
        <time>2018-09-04T12:31:02Z</time>
      </trkpt>
      <trkpt lat="41.79539" lon="9.22872">
        <ele>1191.44</ele>
        <time>2018-09-04T12:31:50Z</time>
      </trkpt>
      <trkpt lat="41.7954" lon="9.22872">
        <ele>1191.3</ele>
        <time>2018-09-04T12:32:50Z</time>
      </trkpt>
      <trkpt lat="41.79541" lon="9.22872">
        <ele>1191.21</ele>
        <time>2018-09-04T12:33:34Z</time>
      </trkpt>
      <trkpt lat="41.79538" lon="9.2287">
        <ele>1191.89</ele>
        <time>2018-09-04T12:34:33Z</time>
      </trkpt>
      <trkpt lat="41.79539" lon="9.22871">
        <ele>1192.57</ele>
        <time>2018-09-04T12:35:38Z</time>
      </trkpt>
      <trkpt lat="41.79538" lon="9.22871">
        <ele>1190.06</ele>
        <time>2018-09-04T12:36:38Z</time>
      </trkpt>
      <trkpt lat="41.79536" lon="9.22868">
        <ele>1189.8</ele>
        <time>2018-09-04T12:37:53Z</time>
      </trkpt>
      <trkpt lat="41.79537" lon="9.22869">
        <ele>1189.61</ele>
        <time>2018-09-04T12:38:56Z</time>
      </trkpt>
      <trkpt lat="41.79537" lon="9.2287">
        <ele>1191.83</ele>
        <time>2018-09-04T12:39:25Z</time>
      </trkpt>
      <trkpt lat="41.79538" lon="9.2287">
        <ele>1191.52</ele>
        <time>2018-09-04T12:40:32Z</time>
      </trkpt>
      <trkpt lat="41.79537" lon="9.22871">
        <ele>1191.33</ele>
        <time>2018-09-04T12:41:12Z</time>
      </trkpt>
      <trkpt lat="41.79537" lon="9.22868">
        <ele>1191.04</ele>
        <time>2018-09-04T12:42:15Z</time>
      </trkpt>
      <trkpt lat="41.79537" lon="9.22867">
        <ele>1190.72</ele>
        <time>2018-09-04T12:43:16Z</time>
      </trkpt>
      <trkpt lat="41.79538" lon="9.22867">
        <ele>1191.57</ele>
        <time>2018-09-04T12:44:19Z</time>
      </trkpt>
      <trkpt lat="41.79537" lon="9.22867">
        <ele>1188.98</ele>
        <time>2018-09-04T12:44:44Z</time>
      </trkpt>
      <trkpt lat="41.79538" lon="9.22869">
        <ele>1187.52</ele>
        <time>2018-09-04T12:45:57Z</time>
      </trkpt>
      <trkpt lat="41.79538" lon="9.22868">
        <ele>1189.75</ele>
        <time>2018-09-04T12:46:25Z</time>
      </trkpt>
      <trkpt lat="41.79538" lon="9.22869">
        <ele>1187.03</ele>
        <time>2018-09-04T12:46:33Z</time>
      </trkpt>
      <trkpt lat="41.79537" lon="9.22868">
        <ele>1189.34</ele>
        <time>2018-09-04T12:46:57Z</time>
      </trkpt>
      <trkpt lat="41.79538" lon="9.22868">
        <ele>1188.87</ele>
        <time>2018-09-04T12:48:21Z</time>
      </trkpt>
      <trkpt lat="41.79539" lon="9.22868">
        <ele>1188.45</ele>
        <time>2018-09-04T12:49:34Z</time>
      </trkpt>
      <trkpt lat="41.79539" lon="9.22869">
        <ele>1188.14</ele>
        <time>2018-09-04T12:50:36Z</time>
      </trkpt>
      <trkpt lat="41.79539" lon="9.22867">
        <ele>1185.74</ele>
        <time>2018-09-04T12:51:02Z</time>
      </trkpt>
      <trkpt lat="41.79539" lon="9.22869">
        <ele>1185.48</ele>
        <time>2018-09-04T12:52:07Z</time>
      </trkpt>
      <trkpt lat="41.79539" lon="9.2287">
        <ele>1185.2</ele>
        <time>2018-09-04T12:53:27Z</time>
      </trkpt>
      <trkpt lat="41.79538" lon="9.22869">
        <ele>1184.98</ele>
        <time>2018-09-04T12:54:35Z</time>
      </trkpt>
      <trkpt lat="41.79536" lon="9.22868">
        <ele>1184.73</ele>
        <time>2018-09-04T12:55:50Z</time>
      </trkpt>
      <trkpt lat="41.79536" lon="9.22868">
        <ele>1184.48</ele>
        <time>2018-09-04T12:57:09Z</time>
      </trkpt>
      <trkpt lat="41.79536" lon="9.22868">
        <ele>1184.31</ele>
        <time>2018-09-04T12:58:25Z</time>
      </trkpt>
      <trkpt lat="41.79538" lon="9.22868">
        <ele>1183.32</ele>
        <time>2018-09-04T12:59:33Z</time>
      </trkpt>
      <trkpt lat="41.79535" lon="9.22867">
        <ele>1183.22</ele>
        <time>2018-09-04T13:00:45Z</time>
      </trkpt>
      <trkpt lat="41.79538" lon="9.22866">
        <ele>1183.19</ele>
        <time>2018-09-04T13:01:54Z</time>
      </trkpt>
      <trkpt lat="41.79538" lon="9.22867">
        <ele>1182.3</ele>
        <time>2018-09-04T13:02:56Z</time>
      </trkpt>
      <trkpt lat="41.79538" lon="9.22869">
        <ele>1182.24</ele>
        <time>2018-09-04T13:04:06Z</time>
      </trkpt>
      <trkpt lat="41.79539" lon="9.2287">
        <ele>1182.17</ele>
        <time>2018-09-04T13:05:05Z</time>
      </trkpt>
      <trkpt lat="41.79538" lon="9.22868">
        <ele>1181.19</ele>
        <time>2018-09-04T13:06:02Z</time>
      </trkpt>
      <trkpt lat="41.79538" lon="9.22869">
        <ele>1181.13</ele>
        <time>2018-09-04T13:06:58Z</time>
      </trkpt>
      <trkpt lat="41.79539" lon="9.22868">
        <ele>1179.54</ele>
        <time>2018-09-04T13:08:02Z</time>
      </trkpt>
      <trkpt lat="41.79539" lon="9.22867">
        <ele>1179.5</ele>
        <time>2018-09-04T13:09:08Z</time>
      </trkpt>
      <trkpt lat="41.79538" lon="9.22866">
        <ele>1179.47</ele>
        <time>2018-09-04T13:10:12Z</time>
      </trkpt>
      <trkpt lat="41.79538" lon="9.22868">
        <ele>1178.69</ele>
        <time>2018-09-04T13:11:15Z</time>
      </trkpt>
      <trkpt lat="41.79537" lon="9.22868">
        <ele>1178.72</ele>
        <time>2018-09-04T13:12:23Z</time>
      </trkpt>
      <trkpt lat="41.79537" lon="9.22868">
        <ele>1178.8</ele>
        <time>2018-09-04T13:13:27Z</time>
      </trkpt>
      <trkpt lat="41.79536" lon="9.22867">
        <ele>1178.93</ele>
        <time>2018-09-04T13:14:31Z</time>
      </trkpt>
      <trkpt lat="41.79536" lon="9.22867">
        <ele>1179.1</ele>
        <time>2018-09-04T13:15:40Z</time>
      </trkpt>
      <trkpt lat="41.79537" lon="9.22868">
        <ele>1179.3</ele>
        <time>2018-09-04T13:16:43Z</time>
      </trkpt>
      <trkpt lat="41.79536" lon="9.22866">
        <ele>1179.48</ele>
        <time>2018-09-04T13:17:50Z</time>
      </trkpt>
      <trkpt lat="41.79535" lon="9.22867">
        <ele>1178.91</ele>
        <time>2018-09-04T13:18:53Z</time>
      </trkpt>
      <trkpt lat="41.79535" lon="9.22864">
        <ele>1179.13</ele>
        <time>2018-09-04T13:19:52Z</time>
      </trkpt>
      <trkpt lat="41.79537" lon="9.22865">
        <ele>1179.34</ele>
        <time>2018-09-04T13:20:55Z</time>
      </trkpt>
      <trkpt lat="41.79537" lon="9.22866">
        <ele>1179.54</ele>
        <time>2018-09-04T13:22:04Z</time>
      </trkpt>
      <trkpt lat="41.79537" lon="9.22866">
        <ele>1182.16</ele>
        <time>2018-09-04T13:22:25Z</time>
      </trkpt>
      <trkpt lat="41.79537" lon="9.22868">
        <ele>1182.27</ele>
        <time>2018-09-04T13:23:19Z</time>
      </trkpt>
      <trkpt lat="41.79537" lon="9.22867">
        <ele>1182.36</ele>
        <time>2018-09-04T13:24:11Z</time>
      </trkpt>
      <trkpt lat="41.79536" lon="9.22868">
        <ele>1182.44</ele>
        <time>2018-09-04T13:25:06Z</time>
      </trkpt>
      <trkpt lat="41.79537" lon="9.22869">
        <ele>1182.5</ele>
        <time>2018-09-04T13:25:57Z</time>
      </trkpt>
      <trkpt lat="41.79535" lon="9.22865">
        <ele>1182.58</ele>
        <time>2018-09-04T13:26:47Z</time>
      </trkpt>
      <trkpt lat="41.79535" lon="9.22865">
        <ele>1180.26</ele>
        <time>2018-09-04T13:26:56Z</time>
      </trkpt>
      <trkpt lat="41.79534" lon="9.22866">
        <ele>1182.89</ele>
        <time>2018-09-04T13:27:03Z</time>
      </trkpt>
      <trkpt lat="41.79535" lon="9.22864">
        <ele>1181.3</ele>
        <time>2018-09-04T13:27:42Z</time>
      </trkpt>
      <trkpt lat="41.79535" lon="9.22864">
        <ele>1183.65</ele>
        <time>2018-09-04T13:27:53Z</time>
      </trkpt>
      <trkpt lat="41.79535" lon="9.22865">
        <ele>1181.46</ele>
        <time>2018-09-04T13:28:27Z</time>
      </trkpt>
      <trkpt lat="41.79535" lon="9.22865">
        <ele>1184.05</ele>
        <time>2018-09-04T13:28:35Z</time>
      </trkpt>
      <trkpt lat="41.79534" lon="9.22864">
        <ele>1182.32</ele>
        <time>2018-09-04T13:28:45Z</time>
      </trkpt>
      <trkpt lat="41.79534" lon="9.22863">
        <ele>1183.75</ele>
        <time>2018-09-04T13:28:55Z</time>
      </trkpt>
      <trkpt lat="41.79535" lon="9.22863">
        <ele>1181.24</ele>
        <time>2018-09-04T13:29:01Z</time>
      </trkpt>
      <trkpt lat="41.79535" lon="9.22863">
        <ele>1183.87</ele>
        <time>2018-09-04T13:29:07Z</time>
      </trkpt>
      <trkpt lat="41.79535" lon="9.22862">
        <ele>1181.1</ele>
        <time>2018-09-04T13:29:12Z</time>
      </trkpt>
      <trkpt lat="41.79535" lon="9.22863">
        <ele>1183.54</ele>
        <time>2018-09-04T13:29:31Z</time>
      </trkpt>
      <trkpt lat="41.79534" lon="9.22863">
        <ele>1184.67</ele>
        <time>2018-09-04T13:30:21Z</time>
      </trkpt>
      <trkpt lat="41.79533" lon="9.22864">
        <ele>1182.39</ele>
        <time>2018-09-04T13:30:32Z</time>
      </trkpt>
      <trkpt lat="41.79534" lon="9.22865">
        <ele>1184.68</ele>
        <time>2018-09-04T13:30:52Z</time>
      </trkpt>
      <trkpt lat="41.79534" lon="9.22866">
        <ele>1183.39</ele>
        <time>2018-09-04T13:31:02Z</time>
      </trkpt>
      <trkpt lat="41.79535" lon="9.22864">
        <ele>1179.71</ele>
        <time>2018-09-04T13:31:21Z</time>
      </trkpt>
      <trkpt lat="41.79534" lon="9.22864">
        <ele>1182.4</ele>
        <time>2018-09-04T13:31:49Z</time>
      </trkpt>
      <trkpt lat="41.79534" lon="9.22865">
        <ele>1181.62</ele>
        <time>2018-09-04T13:32:08Z</time>
      </trkpt>
      <trkpt lat="41.79534" lon="9.22864">
        <ele>1184.21</ele>
        <time>2018-09-04T13:32:18Z</time>
      </trkpt>
      <trkpt lat="41.79534" lon="9.22864">
        <ele>1181.75</ele>
        <time>2018-09-04T13:32:28Z</time>
      </trkpt>
      <trkpt lat="41.79534" lon="9.22863">
        <ele>1184.06</ele>
        <time>2018-09-04T13:32:34Z</time>
      </trkpt>
      <trkpt lat="41.79534" lon="9.22863">
        <ele>1181.71</ele>
        <time>2018-09-04T13:32:41Z</time>
      </trkpt>
      <trkpt lat="41.79535" lon="9.22866">
        <ele>1183.09</ele>
        <time>2018-09-04T13:32:58Z</time>
      </trkpt>
      <trkpt lat="41.79534" lon="9.22865">
        <ele>1184.85</ele>
        <time>2018-09-04T13:33:43Z</time>
      </trkpt>
      <trkpt lat="41.79535" lon="9.22864">
        <ele>1182.22</ele>
        <time>2018-09-04T13:33:55Z</time>
      </trkpt>
      <trkpt lat="41.79535" lon="9.22864">
        <ele>1183.68</ele>
        <time>2018-09-04T13:34:18Z</time>
      </trkpt>
      <trkpt lat="41.79535" lon="9.22863">
        <ele>1185.77</ele>
        <time>2018-09-04T13:34:39Z</time>
      </trkpt>
      <trkpt lat="41.79536" lon="9.22863">
        <ele>1183.86</ele>
        <time>2018-09-04T13:34:53Z</time>
      </trkpt>
      <trkpt lat="41.79535" lon="9.22865">
        <ele>1182.88</ele>
        <time>2018-09-04T13:35:25Z</time>
      </trkpt>
      <trkpt lat="41.79534" lon="9.22866">
        <ele>1185.32</ele>
        <time>2018-09-04T13:35:39Z</time>
      </trkpt>
      <trkpt lat="41.79534" lon="9.22865">
        <ele>1183.03</ele>
        <time>2018-09-04T13:35:47Z</time>
      </trkpt>
      <trkpt lat="41.79534" lon="9.22865">
        <ele>1185.71</ele>
        <time>2018-09-04T13:35:50Z</time>
      </trkpt>
      <trkpt lat="41.79534" lon="9.22864">
        <ele>1185.62</ele>
        <time>2018-09-04T13:36:34Z</time>
      </trkpt>
      <trkpt lat="41.79537" lon="9.22863">
        <ele>1185.58</ele>
        <time>2018-09-04T13:37:11Z</time>
      </trkpt>
      <trkpt lat="41.79537" lon="9.22864">
        <ele>1183.17</ele>
        <time>2018-09-04T13:37:16Z</time>
      </trkpt>
      <trkpt lat="41.79537" lon="9.22864">
        <ele>1186.13</ele>
        <time>2018-09-04T13:37:26Z</time>
      </trkpt>
      <trkpt lat="41.79537" lon="9.22864">
        <ele>1183.43</ele>
        <time>2018-09-04T13:37:34Z</time>
      </trkpt>
      <trkpt lat="41.79538" lon="9.22864">
        <ele>1185.07</ele>
        <time>2018-09-04T13:37:47Z</time>
      </trkpt>
      <trkpt lat="41.79538" lon="9.22866">
        <ele>1183.59</ele>
        <time>2018-09-04T13:38:01Z</time>
      </trkpt>
      <trkpt lat="41.79538" lon="9.22866">
        <ele>1187.11</ele>
        <time>2018-09-04T13:38:06Z</time>
      </trkpt>
      <trkpt lat="41.79538" lon="9.22866">
        <ele>1187.1</ele>
        <time>2018-09-04T13:38:07Z</time>
      </trkpt>
      <trkpt lat="41.79536" lon="9.22866">
        <ele>1184.64</ele>
        <time>2018-09-04T13:38:22Z</time>
      </trkpt>
      <trkpt lat="41.79533" lon="9.2286">
        <ele>1182.54</ele>
        <time>2018-09-04T13:38:36Z</time>
      </trkpt>
      <trkpt lat="41.79532" lon="9.2286">
        <ele>1185.23</ele>
        <time>2018-09-04T13:38:47Z</time>
      </trkpt>
      <trkpt lat="41.79533" lon="9.22862">
        <ele>1186.17</ele>
        <time>2018-09-04T13:39:32Z</time>
      </trkpt>
      <trkpt lat="41.79535" lon="9.22863">
        <ele>1187.62</ele>
        <time>2018-09-04T13:39:52Z</time>
      </trkpt>
      <trkpt lat="41.79535" lon="9.22864">
        <ele>1187.68</ele>
        <time>2018-09-04T13:40:34Z</time>
      </trkpt>
      <trkpt lat="41.79534" lon="9.22864">
        <ele>1185.25</ele>
        <time>2018-09-04T13:40:53Z</time>
      </trkpt>
      <trkpt lat="41.79531" lon="9.22861">
        <ele>1184.44</ele>
        <time>2018-09-04T13:41:23Z</time>
      </trkpt>
      <trkpt lat="41.79531" lon="9.22861">
        <ele>1186.83</ele>
        <time>2018-09-04T13:41:25Z</time>
      </trkpt>
      <trkpt lat="41.79533" lon="9.2286">
        <ele>1186.74</ele>
        <time>2018-09-04T13:41:55Z</time>
      </trkpt>
      <trkpt lat="41.79533" lon="9.2286">
        <ele>1184.28</ele>
        <time>2018-09-04T13:41:57Z</time>
      </trkpt>
      <trkpt lat="41.79534" lon="9.22861">
        <ele>1186.78</ele>
        <time>2018-09-04T13:42:10Z</time>
      </trkpt>
      <trkpt lat="41.79531" lon="9.22859">
        <ele>1186.94</ele>
        <time>2018-09-04T13:43:03Z</time>
      </trkpt>
      <trkpt lat="41.79531" lon="9.22863">
        <ele>1188.36</ele>
        <time>2018-09-04T13:43:34Z</time>
      </trkpt>
      <trkpt lat="41.79531" lon="9.22861">
        <ele>1185.73</ele>
        <time>2018-09-04T13:43:53Z</time>
      </trkpt>
      <trkpt lat="41.7953" lon="9.2286">
        <ele>1188.24</ele>
        <time>2018-09-04T13:44:07Z</time>
      </trkpt>
      <trkpt lat="41.7953" lon="9.22862">
        <ele>1185.94</ele>
        <time>2018-09-04T13:44:40Z</time>
      </trkpt>
      <trkpt lat="41.79531" lon="9.22863">
        <ele>1187.88</ele>
        <time>2018-09-04T13:44:54Z</time>
      </trkpt>
      <trkpt lat="41.79532" lon="9.22863">
        <ele>1185.17</ele>
        <time>2018-09-04T13:45:04Z</time>
      </trkpt>
      <trkpt lat="41.79533" lon="9.22865">
        <ele>1187.53</ele>
        <time>2018-09-04T13:45:19Z</time>
      </trkpt>
      <trkpt lat="41.7953" lon="9.22863">
        <ele>1185.22</ele>
        <time>2018-09-04T13:46:03Z</time>
      </trkpt>
      <trkpt lat="41.79531" lon="9.22863">
        <ele>1186.83</ele>
        <time>2018-09-04T13:46:42Z</time>
      </trkpt>
      <trkpt lat="41.7953" lon="9.22861">
        <ele>1184.95</ele>
        <time>2018-09-04T13:47:15Z</time>
      </trkpt>
      <trkpt lat="41.7953" lon="9.22861">
        <ele>1187.51</ele>
        <time>2018-09-04T13:47:20Z</time>
      </trkpt>
      <trkpt lat="41.79528" lon="9.22859">
        <ele>1185.38</ele>
        <time>2018-09-04T13:47:34Z</time>
      </trkpt>
      <trkpt lat="41.79527" lon="9.22859">
        <ele>1186.98</ele>
        <time>2018-09-04T13:47:42Z</time>
      </trkpt>
      <trkpt lat="41.79529" lon="9.22859">
        <ele>1186.29</ele>
        <time>2018-09-04T13:47:55Z</time>
      </trkpt>
      <trkpt lat="41.79528" lon="9.22857">
        <ele>1185.46</ele>
        <time>2018-09-04T13:48:34Z</time>
      </trkpt>
      <trkpt lat="41.79529" lon="9.22859">
        <ele>1185.47</ele>
        <time>2018-09-04T13:49:20Z</time>
      </trkpt>
      <trkpt lat="41.79531" lon="9.22861">
        <ele>1188.22</ele>
        <time>2018-09-04T13:49:55Z</time>
      </trkpt>
      <trkpt lat="41.79532" lon="9.22862">
        <ele>1185.44</ele>
        <time>2018-09-04T13:50:05Z</time>
      </trkpt>
      <trkpt lat="41.79531" lon="9.22863">
        <ele>1188.1</ele>
        <time>2018-09-04T13:50:24Z</time>
      </trkpt>
      <trkpt lat="41.79532" lon="9.22864">
        <ele>1188.12</ele>
        <time>2018-09-04T13:51:00Z</time>
      </trkpt>
      <trkpt lat="41.79531" lon="9.22862">
        <ele>1188.14</ele>
        <time>2018-09-04T13:51:24Z</time>
      </trkpt>
      <trkpt lat="41.79533" lon="9.22864">
        <ele>1188.2</ele>
        <time>2018-09-04T13:51:50Z</time>
      </trkpt>
      <trkpt lat="41.79534" lon="9.22865">
        <ele>1187.42</ele>
        <time>2018-09-04T13:52:06Z</time>
      </trkpt>
      <trkpt lat="41.79536" lon="9.22865">
        <ele>1189.61</ele>
        <time>2018-09-04T13:52:26Z</time>
      </trkpt>
      <trkpt lat="41.79536" lon="9.22864">
        <ele>1187.1</ele>
        <time>2018-09-04T13:52:31Z</time>
      </trkpt>
      <trkpt lat="41.79533" lon="9.22865">
        <ele>1187.11</ele>
        <time>2018-09-04T13:53:05Z</time>
      </trkpt>
      <trkpt lat="41.79534" lon="9.22864">
        <ele>1189.65</ele>
        <time>2018-09-04T13:53:26Z</time>
      </trkpt>
      <trkpt lat="41.79538" lon="9.22864">
        <ele>1189.58</ele>
        <time>2018-09-04T13:54:01Z</time>
      </trkpt>
      <trkpt lat="41.79539" lon="9.22863">
        <ele>1189.52</ele>
        <time>2018-09-04T13:54:40Z</time>
      </trkpt>
      <trkpt lat="41.79538" lon="9.22863">
        <ele>1190.22</ele>
        <time>2018-09-04T13:55:24Z</time>
      </trkpt>
      <trkpt lat="41.79538" lon="9.22864">
        <ele>1187.88</ele>
        <time>2018-09-04T13:55:28Z</time>
      </trkpt>
      <trkpt lat="41.79538" lon="9.22864">
        <ele>1190.17</ele>
        <time>2018-09-04T13:55:35Z</time>
      </trkpt>
      <trkpt lat="41.7954" lon="9.22863">
        <ele>1188.43</ele>
        <time>2018-09-04T13:55:56Z</time>
      </trkpt>
      <trkpt lat="41.79539" lon="9.22864">
        <ele>1189.42</ele>
        <time>2018-09-04T13:56:24Z</time>
      </trkpt>
      <trkpt lat="41.79539" lon="9.22866">
        <ele>1190.14</ele>
        <time>2018-09-04T13:57:12Z</time>
      </trkpt>
      <trkpt lat="41.79538" lon="9.22868">
        <ele>1189.08</ele>
        <time>2018-09-04T13:57:48Z</time>
      </trkpt>
      <trkpt lat="41.79539" lon="9.22868">
        <ele>1188.97</ele>
        <time>2018-09-04T13:58:21Z</time>
      </trkpt>
      <trkpt lat="41.79536" lon="9.22864">
        <ele>1188.87</ele>
        <time>2018-09-04T13:58:48Z</time>
      </trkpt>
      <trkpt lat="41.79537" lon="9.22857">
        <ele>1188.76</ele>
        <time>2018-09-04T13:59:31Z</time>
      </trkpt>
      <trkpt lat="41.79535" lon="9.22853">
        <ele>1190.96</ele>
        <time>2018-09-04T14:00:00Z</time>
      </trkpt>
      <trkpt lat="41.79535" lon="9.22855">
        <ele>1188.57</ele>
        <time>2018-09-04T14:00:25Z</time>
      </trkpt>
      <trkpt lat="41.79535" lon="9.22858">
        <ele>1190.97</ele>
        <time>2018-09-04T14:00:55Z</time>
      </trkpt>
      <trkpt lat="41.79535" lon="9.22858">
        <ele>1188.5</ele>
        <time>2018-09-04T14:01:27Z</time>
      </trkpt>
      <trkpt lat="41.79534" lon="9.22858">
        <ele>1190.21</ele>
        <time>2018-09-04T14:01:48Z</time>
      </trkpt>
      <trkpt lat="41.79534" lon="9.22858">
        <ele>1191.57</ele>
        <time>2018-09-04T14:01:50Z</time>
      </trkpt>
      <trkpt lat="41.79536" lon="9.22859">
        <ele>1188.91</ele>
        <time>2018-09-04T14:02:10Z</time>
      </trkpt>
      <trkpt lat="41.79535" lon="9.22858">
        <ele>1191.03</ele>
        <time>2018-09-04T14:02:42Z</time>
      </trkpt>
      <trkpt lat="41.79537" lon="9.22862">
        <ele>1188.31</ele>
        <time>2018-09-04T14:03:07Z</time>
      </trkpt>
      <trkpt lat="41.79536" lon="9.22864">
        <ele>1190.85</ele>
        <time>2018-09-04T14:03:16Z</time>
      </trkpt>
      <trkpt lat="41.79536" lon="9.22866">
        <ele>1188.47</ele>
        <time>2018-09-04T14:03:28Z</time>
      </trkpt>
      <trkpt lat="41.79534" lon="9.22862">
        <ele>1190.95</ele>
        <time>2018-09-04T14:03:45Z</time>
      </trkpt>
      <trkpt lat="41.79533" lon="9.22861">
        <ele>1187.93</ele>
        <time>2018-09-04T14:04:05Z</time>
      </trkpt>
      <trkpt lat="41.79533" lon="9.22861">
        <ele>1187.93</ele>
        <time>2018-09-04T14:04:06Z</time>
      </trkpt>
      <trkpt lat="41.79533" lon="9.22862">
        <ele>1190.66</ele>
        <time>2018-09-04T14:04:08Z</time>
      </trkpt>
      <trkpt lat="41.79533" lon="9.22862">
        <ele>1185.62</ele>
        <time>2018-09-04T14:04:09Z</time>
      </trkpt>
      <trkpt lat="41.79533" lon="9.22862">
        <ele>1190.75</ele>
        <time>2018-09-04T14:04:10Z</time>
      </trkpt>
      <trkpt lat="41.79533" lon="9.22861">
        <ele>1189.3</ele>
        <time>2018-09-04T14:04:16Z</time>
      </trkpt>
      <trkpt lat="41.79533" lon="9.22861">
        <ele>1192.37</ele>
        <time>2018-09-04T14:04:17Z</time>
      </trkpt>
      <trkpt lat="41.79533" lon="9.22861">
        <ele>1191.84</ele>
        <time>2018-09-04T14:04:21Z</time>
      </trkpt>
      <trkpt lat="41.79533" lon="9.22861">
        <ele>1188.46</ele>
        <time>2018-09-04T14:04:27Z</time>
      </trkpt>
      <trkpt lat="41.79533" lon="9.22861">
        <ele>1195.14</ele>
        <time>2018-09-04T14:04:28Z</time>
      </trkpt>
      <trkpt lat="41.79533" lon="9.22861">
        <ele>1188.61</ele>
        <time>2018-09-04T14:04:29Z</time>
      </trkpt>
      <trkpt lat="41.79533" lon="9.22861">
        <ele>1191.87</ele>
        <time>2018-09-04T14:04:30Z</time>
      </trkpt>
      <trkpt lat="41.79533" lon="9.22862">
        <ele>1185.29</ele>
        <time>2018-09-04T14:04:34Z</time>
      </trkpt>
      <trkpt lat="41.79532" lon="9.22862">
        <ele>1188.76</ele>
        <time>2018-09-04T14:04:35Z</time>
      </trkpt>
      <trkpt lat="41.79532" lon="9.22862">
        <ele>1185.71</ele>
        <time>2018-09-04T14:04:37Z</time>
      </trkpt>
      <trkpt lat="41.79532" lon="9.22862">
        <ele>1189.45</ele>
        <time>2018-09-04T14:04:38Z</time>
      </trkpt>
      <trkpt lat="41.79532" lon="9.22862">
        <ele>1180.85</ele>
        <time>2018-09-04T14:04:39Z</time>
      </trkpt>
      <trkpt lat="41.79532" lon="9.22862">
        <ele>1195.18</ele>
        <time>2018-09-04T14:04:40Z</time>
      </trkpt>
      <trkpt lat="41.79532" lon="9.22862">
        <ele>1188.94</ele>
        <time>2018-09-04T14:04:41Z</time>
      </trkpt>
      <trkpt lat="41.79532" lon="9.22863">
        <ele>1192.69</ele>
        <time>2018-09-04T14:04:46Z</time>
      </trkpt>
      <trkpt lat="41.79532" lon="9.22864">
        <ele>1189.82</ele>
        <time>2018-09-04T14:04:47Z</time>
      </trkpt>
      <trkpt lat="41.79533" lon="9.22864">
        <ele>1193.91</ele>
        <time>2018-09-04T14:04:50Z</time>
      </trkpt>
      <trkpt lat="41.79533" lon="9.22864">
        <ele>1191.57</ele>
        <time>2018-09-04T14:04:51Z</time>
      </trkpt>
      <trkpt lat="41.79533" lon="9.22864">
        <ele>1189.73</ele>
        <time>2018-09-04T14:04:54Z</time>
      </trkpt>
      <trkpt lat="41.79533" lon="9.22864">
        <ele>1184.05</ele>
        <time>2018-09-04T14:04:56Z</time>
      </trkpt>
      <trkpt lat="41.79533" lon="9.22864">
        <ele>1191.26</ele>
        <time>2018-09-04T14:04:57Z</time>
      </trkpt>
      <trkpt lat="41.79533" lon="9.22864">
        <ele>1191.26</ele>
        <time>2018-09-04T14:04:58Z</time>
      </trkpt>
      <trkpt lat="41.79533" lon="9.22864">
        <ele>1187.62</ele>
        <time>2018-09-04T14:04:59Z</time>
      </trkpt>
      <trkpt lat="41.79534" lon="9.22864">
        <ele>1187.65</ele>
        <time>2018-09-04T14:05:00Z</time>
      </trkpt>
      <trkpt lat="41.79534" lon="9.22864">
        <ele>1190.89</ele>
        <time>2018-09-04T14:05:02Z</time>
      </trkpt>
      <trkpt lat="41.79534" lon="9.22864">
        <ele>1190.86</ele>
        <time>2018-09-04T14:05:03Z</time>
      </trkpt>
      <trkpt lat="41.79534" lon="9.22863">
        <ele>1188.81</ele>
        <time>2018-09-04T14:05:08Z</time>
      </trkpt>
      <trkpt lat="41.79536" lon="9.22862">
        <ele>1191.42</ele>
        <time>2018-09-04T14:05:15Z</time>
      </trkpt>
      <trkpt lat="41.79535" lon="9.22862">
        <ele>1192.78</ele>
        <time>2018-09-04T14:05:20Z</time>
      </trkpt>
      <trkpt lat="41.79535" lon="9.22863">
        <ele>1190.21</ele>
        <time>2018-09-04T14:05:26Z</time>
      </trkpt>
      <trkpt lat="41.79534" lon="9.22863">
        <ele>1187.43</ele>
        <time>2018-09-04T14:05:44Z</time>
      </trkpt>
      <trkpt lat="41.79534" lon="9.22862">
        <ele>1190.25</ele>
        <time>2018-09-04T14:06:01Z</time>
      </trkpt>
      <trkpt lat="41.79534" lon="9.22862">
        <ele>1191.93</ele>
        <time>2018-09-04T14:06:04Z</time>
      </trkpt>
      <trkpt lat="41.79535" lon="9.22863">
        <ele>1190.5</ele>
        <time>2018-09-04T14:06:12Z</time>
      </trkpt>
      <trkpt lat="41.79536" lon="9.22863">
        <ele>1193.01</ele>
        <time>2018-09-04T14:06:18Z</time>
      </trkpt>
      <trkpt lat="41.79536" lon="9.22863">
        <ele>1189.82</ele>
        <time>2018-09-04T14:06:21Z</time>
      </trkpt>
      <trkpt lat="41.79536" lon="9.22863">
        <ele>1188.82</ele>
        <time>2018-09-04T14:06:23Z</time>
      </trkpt>
      <trkpt lat="41.79536" lon="9.22864">
        <ele>1192.23</ele>
        <time>2018-09-04T14:06:29Z</time>
      </trkpt>
      <trkpt lat="41.79536" lon="9.22864">
        <ele>1192.23</ele>
        <time>2018-09-04T14:06:30Z</time>
      </trkpt>
      <trkpt lat="41.79536" lon="9.22865">
        <ele>1189.88</ele>
        <time>2018-09-04T14:06:36Z</time>
      </trkpt>
      <trkpt lat="41.79536" lon="9.22866">
        <ele>1192.54</ele>
        <time>2018-09-04T14:06:39Z</time>
      </trkpt>
      <trkpt lat="41.79537" lon="9.22868">
        <ele>1192.49</ele>
        <time>2018-09-04T14:06:55Z</time>
      </trkpt>
      <trkpt lat="41.79536" lon="9.22868">
        <ele>1192.39</ele>
        <time>2018-09-04T14:07:17Z</time>
      </trkpt>
      <trkpt lat="41.79538" lon="9.22864">
        <ele>1193.5</ele>
        <time>2018-09-04T14:07:34Z</time>
      </trkpt>
      <trkpt lat="41.79538" lon="9.22864">
        <ele>1190.89</ele>
        <time>2018-09-04T14:07:37Z</time>
      </trkpt>
      <trkpt lat="41.79542" lon="9.22858">
        <ele>1189.97</ele>
        <time>2018-09-04T14:07:50Z</time>
      </trkpt>
      <trkpt lat="41.79544" lon="9.22854">
        <ele>1189.94</ele>
        <time>2018-09-04T14:07:55Z</time>
      </trkpt>
      <trkpt lat="41.79545" lon="9.22851">
        <ele>1189.1</ele>
        <time>2018-09-04T14:08:12Z</time>
      </trkpt>
      <trkpt lat="41.79543" lon="9.22859">
        <ele>1191.73</ele>
        <time>2018-09-04T14:08:19Z</time>
      </trkpt>
      <trkpt lat="41.79539" lon="9.22865">
        <ele>1189.22</ele>
        <time>2018-09-04T14:08:29Z</time>
      </trkpt>
      <trkpt lat="41.79537" lon="9.22867">
        <ele>1193.39</ele>
        <time>2018-09-04T14:08:36Z</time>
      </trkpt>
      <trkpt lat="41.79536" lon="9.22868">
        <ele>1194.17</ele>
        <time>2018-09-04T14:08:38Z</time>
      </trkpt>
      <trkpt lat="41.7953" lon="9.22872">
        <ele>1191.21</ele>
        <time>2018-09-04T14:08:47Z</time>
      </trkpt>
      <trkpt lat="41.79527" lon="9.22873">
        <ele>1191.23</ele>
        <time>2018-09-04T14:08:51Z</time>
      </trkpt>
      <trkpt lat="41.79512" lon="9.2288">
        <ele>1191.19</ele>
        <time>2018-09-04T14:09:08Z</time>
      </trkpt>
      <trkpt lat="41.79511" lon="9.22881">
        <ele>1193.81</ele>
        <time>2018-09-04T14:09:10Z</time>
      </trkpt>
      <trkpt lat="41.79507" lon="9.22883">
        <ele>1195.02</ele>
        <time>2018-09-04T14:09:15Z</time>
      </trkpt>
      <trkpt lat="41.79494" lon="9.22881">
        <ele>1196.14</ele>
        <time>2018-09-04T14:09:31Z</time>
      </trkpt>
      <trkpt lat="41.7949" lon="9.22876">
        <ele>1194.56</ele>
        <time>2018-09-04T14:09:40Z</time>
      </trkpt>
      <trkpt lat="41.79478" lon="9.22882">
        <ele>1194.51</ele>
        <time>2018-09-04T14:09:55Z</time>
      </trkpt>
      <trkpt lat="41.79476" lon="9.22884">
        <ele>1197.26</ele>
        <time>2018-09-04T14:09:57Z</time>
      </trkpt>
      <trkpt lat="41.79472" lon="9.229">
        <ele>1194.33</ele>
        <time>2018-09-04T14:10:09Z</time>
      </trkpt>
      <trkpt lat="41.79472" lon="9.22906">
        <ele>1193.41</ele>
        <time>2018-09-04T14:10:14Z</time>
      </trkpt>
      <trkpt lat="41.79472" lon="9.22912">
        <ele>1196.08</ele>
        <time>2018-09-04T14:10:18Z</time>
      </trkpt>
      <trkpt lat="41.79472" lon="9.22913">
        <ele>1196.05</ele>
        <time>2018-09-04T14:10:19Z</time>
      </trkpt>
      <trkpt lat="41.79471" lon="9.22927">
        <ele>1192.7</ele>
        <time>2018-09-04T14:10:27Z</time>
      </trkpt>
      <trkpt lat="41.79471" lon="9.22928">
        <ele>1192.7</ele>
        <time>2018-09-04T14:10:28Z</time>
      </trkpt>
      <trkpt lat="41.79472" lon="9.22935">
        <ele>1195.75</ele>
        <time>2018-09-04T14:10:33Z</time>
      </trkpt>
      <trkpt lat="41.79472" lon="9.22936">
        <ele>1195.74</ele>
        <time>2018-09-04T14:10:34Z</time>
      </trkpt>
      <trkpt lat="41.79473" lon="9.22946">
        <ele>1193.34</ele>
        <time>2018-09-04T14:10:41Z</time>
      </trkpt>
      <trkpt lat="41.79471" lon="9.22957">
        <ele>1195.67</ele>
        <time>2018-09-04T14:10:50Z</time>
      </trkpt>
      <trkpt lat="41.79462" lon="9.22971">
        <ele>1193.84</ele>
        <time>2018-09-04T14:11:05Z</time>
      </trkpt>
      <trkpt lat="41.79461" lon="9.22972">
        <ele>1192.57</ele>
        <time>2018-09-04T14:11:07Z</time>
      </trkpt>
      <trkpt lat="41.79461" lon="9.22976">
        <ele>1195.15</ele>
        <time>2018-09-04T14:11:16Z</time>
      </trkpt>
      <trkpt lat="41.79457" lon="9.22978">
        <ele>1195.1</ele>
        <time>2018-09-04T14:11:31Z</time>
      </trkpt>
      <trkpt lat="41.79444" lon="9.22975">
        <ele>1192.65</ele>
        <time>2018-09-04T14:11:45Z</time>
      </trkpt>
      <trkpt lat="41.79442" lon="9.22974">
        <ele>1192.64</ele>
        <time>2018-09-04T14:11:47Z</time>
      </trkpt>
      <trkpt lat="41.79441" lon="9.22972">
        <ele>1195.42</ele>
        <time>2018-09-04T14:11:49Z</time>
      </trkpt>
      <trkpt lat="41.79437" lon="9.22968">
        <ele>1192.82</ele>
        <time>2018-09-04T14:11:54Z</time>
      </trkpt>
      <trkpt lat="41.79424" lon="9.22963">
        <ele>1192.75</ele>
        <time>2018-09-04T14:12:07Z</time>
      </trkpt>
      <trkpt lat="41.79411" lon="9.22972">
        <ele>1192.71</ele>
        <time>2018-09-04T14:12:25Z</time>
      </trkpt>
      <trkpt lat="41.79408" lon="9.22976">
        <ele>1192.67</ele>
        <time>2018-09-04T14:12:30Z</time>
      </trkpt>
      <trkpt lat="41.79402" lon="9.22984">
        <ele>1192.64</ele>
        <time>2018-09-04T14:12:37Z</time>
      </trkpt>
      <trkpt lat="41.79399" lon="9.22987">
        <ele>1192.64</ele>
        <time>2018-09-04T14:12:40Z</time>
      </trkpt>
      <trkpt lat="41.79389" lon="9.22997">
        <ele>1192.59</ele>
        <time>2018-09-04T14:12:54Z</time>
      </trkpt>
      <trkpt lat="41.79388" lon="9.22998">
        <ele>1192.58</ele>
        <time>2018-09-04T14:12:56Z</time>
      </trkpt>
      <trkpt lat="41.79372" lon="9.2301">
        <ele>1191.62</ele>
        <time>2018-09-04T14:13:13Z</time>
      </trkpt>
      <trkpt lat="41.79358" lon="9.23019">
        <ele>1191.56</ele>
        <time>2018-09-04T14:13:28Z</time>
      </trkpt>
      <trkpt lat="41.79349" lon="9.23026">
        <ele>1190.67</ele>
        <time>2018-09-04T14:13:37Z</time>
      </trkpt>
      <trkpt lat="41.7934" lon="9.23031">
        <ele>1193.46</ele>
        <time>2018-09-04T14:13:45Z</time>
      </trkpt>
      <trkpt lat="41.7932" lon="9.23043">
        <ele>1194.18</ele>
        <time>2018-09-04T14:14:07Z</time>
      </trkpt>
      <trkpt lat="41.79304" lon="9.23052">
        <ele>1194.08</ele>
        <time>2018-09-04T14:14:23Z</time>
      </trkpt>
      <trkpt lat="41.79288" lon="9.23053">
        <ele>1194.84</ele>
        <time>2018-09-04T14:14:38Z</time>
      </trkpt>
      <trkpt lat="41.79277" lon="9.23051">
        <ele>1195.75</ele>
        <time>2018-09-04T14:14:50Z</time>
      </trkpt>
      <trkpt lat="41.79273" lon="9.23052">
        <ele>1193.25</ele>
        <time>2018-09-04T14:14:55Z</time>
      </trkpt>
      <trkpt lat="41.79262" lon="9.2305">
        <ele>1191.2</ele>
        <time>2018-09-04T14:15:06Z</time>
      </trkpt>
      <trkpt lat="41.79259" lon="9.23049">
        <ele>1191.24</ele>
        <time>2018-09-04T14:15:10Z</time>
      </trkpt>
      <trkpt lat="41.79241" lon="9.23046">
        <ele>1191.33</ele>
        <time>2018-09-04T14:15:25Z</time>
      </trkpt>
      <trkpt lat="41.79222" lon="9.23048">
        <ele>1191.2</ele>
        <time>2018-09-04T14:15:40Z</time>
      </trkpt>
      <trkpt lat="41.79205" lon="9.23054">
        <ele>1190.35</ele>
        <time>2018-09-04T14:15:58Z</time>
      </trkpt>
      <trkpt lat="41.79193" lon="9.23065">
        <ele>1189.27</ele>
        <time>2018-09-04T14:16:11Z</time>
      </trkpt>
      <trkpt lat="41.79191" lon="9.23073">
        <ele>1189.4</ele>
        <time>2018-09-04T14:16:17Z</time>
      </trkpt>
      <trkpt lat="41.79191" lon="9.23092">
        <ele>1189.19</ele>
        <time>2018-09-04T14:16:32Z</time>
      </trkpt>
      <trkpt lat="41.79194" lon="9.2311">
        <ele>1189.13</ele>
        <time>2018-09-04T14:16:45Z</time>
      </trkpt>
      <trkpt lat="41.79193" lon="9.23135">
        <ele>1187.93</ele>
        <time>2018-09-04T14:17:02Z</time>
      </trkpt>
      <trkpt lat="41.79192" lon="9.23139">
        <ele>1187.91</ele>
        <time>2018-09-04T14:17:05Z</time>
      </trkpt>
      <trkpt lat="41.79184" lon="9.23156">
        <ele>1187.91</ele>
        <time>2018-09-04T14:17:19Z</time>
      </trkpt>
      <trkpt lat="41.79182" lon="9.23158">
        <ele>1187.85</ele>
        <time>2018-09-04T14:17:21Z</time>
      </trkpt>
      <trkpt lat="41.79176" lon="9.23179">
        <ele>1187.79</ele>
        <time>2018-09-04T14:17:38Z</time>
      </trkpt>
      <trkpt lat="41.79174" lon="9.23182">
        <ele>1190.15</ele>
        <time>2018-09-04T14:17:41Z</time>
      </trkpt>
      <trkpt lat="41.79168" lon="9.2319">
        <ele>1190.04</ele>
        <time>2018-09-04T14:17:48Z</time>
      </trkpt>
      <trkpt lat="41.79166" lon="9.23192">
        <ele>1187.27</ele>
        <time>2018-09-04T14:17:50Z</time>
      </trkpt>
      <trkpt lat="41.79153" lon="9.23208">
        <ele>1186.33</ele>
        <time>2018-09-04T14:18:07Z</time>
      </trkpt>
      <trkpt lat="41.79143" lon="9.23221">
        <ele>1186.31</ele>
        <time>2018-09-04T14:18:22Z</time>
      </trkpt>
      <trkpt lat="41.7913" lon="9.23238">
        <ele>1186.39</ele>
        <time>2018-09-04T14:18:39Z</time>
      </trkpt>
      <trkpt lat="41.79115" lon="9.23245">
        <ele>1186.32</ele>
        <time>2018-09-04T14:18:55Z</time>
      </trkpt>
      <trkpt lat="41.79112" lon="9.23247">
        <ele>1185.02</ele>
        <time>2018-09-04T14:18:59Z</time>
      </trkpt>
      <trkpt lat="41.79098" lon="9.23243">
        <ele>1183.53</ele>
        <time>2018-09-04T14:19:14Z</time>
      </trkpt>
      <trkpt lat="41.79086" lon="9.23246">
        <ele>1182.65</ele>
        <time>2018-09-04T14:19:29Z</time>
      </trkpt>
      <trkpt lat="41.79085" lon="9.23269">
        <ele>1180.37</ele>
        <time>2018-09-04T14:19:49Z</time>
      </trkpt>
      <trkpt lat="41.79086" lon="9.23277">
        <ele>1180.49</ele>
        <time>2018-09-04T14:19:56Z</time>
      </trkpt>
      <trkpt lat="41.79086" lon="9.23282">
        <ele>1179.43</ele>
        <time>2018-09-04T14:19:59Z</time>
      </trkpt>
      <trkpt lat="41.79088" lon="9.233">
        <ele>1178.6</ele>
        <time>2018-09-04T14:20:16Z</time>
      </trkpt>
      <trkpt lat="41.79075" lon="9.23313">
        <ele>1178.39</ele>
        <time>2018-09-04T14:20:33Z</time>
      </trkpt>
      <trkpt lat="41.79071" lon="9.23326">
        <ele>1178.33</ele>
        <time>2018-09-04T14:20:45Z</time>
      </trkpt>
      <trkpt lat="41.7907" lon="9.23348">
        <ele>1180.8</ele>
        <time>2018-09-04T14:20:59Z</time>
      </trkpt>
      <trkpt lat="41.79075" lon="9.23367">
        <ele>1181.48</ele>
        <time>2018-09-04T14:21:13Z</time>
      </trkpt>
      <trkpt lat="41.79075" lon="9.2337">
        <ele>1183.09</ele>
        <time>2018-09-04T14:21:16Z</time>
      </trkpt>
      <trkpt lat="41.79075" lon="9.2338">
        <ele>1180.49</ele>
        <time>2018-09-04T14:21:24Z</time>
      </trkpt>
      <trkpt lat="41.79071" lon="9.23387">
        <ele>1180.47</ele>
        <time>2018-09-04T14:21:31Z</time>
      </trkpt>
      <trkpt lat="41.79071" lon="9.23397">
        <ele>1177.26</ele>
        <time>2018-09-04T14:21:42Z</time>
      </trkpt>
      <trkpt lat="41.79071" lon="9.23398">
        <ele>1177.28</ele>
        <time>2018-09-04T14:21:43Z</time>
      </trkpt>
      <trkpt lat="41.79073" lon="9.23412">
        <ele>1174.09</ele>
        <time>2018-09-04T14:21:59Z</time>
      </trkpt>
      <trkpt lat="41.79072" lon="9.23415">
        <ele>1172.84</ele>
        <time>2018-09-04T14:22:04Z</time>
      </trkpt>
      <trkpt lat="41.79068" lon="9.23423">
        <ele>1169.83</ele>
        <time>2018-09-04T14:22:21Z</time>
      </trkpt>
      <trkpt lat="41.79066" lon="9.23431">
        <ele>1168</ele>
        <time>2018-09-04T14:22:33Z</time>
      </trkpt>
      <trkpt lat="41.79065" lon="9.23433">
        <ele>1166.43</ele>
        <time>2018-09-04T14:22:36Z</time>
      </trkpt>
      <trkpt lat="41.79057" lon="9.23448">
        <ele>1164.35</ele>
        <time>2018-09-04T14:22:52Z</time>
      </trkpt>
      <trkpt lat="41.79057" lon="9.23456">
        <ele>1162.05</ele>
        <time>2018-09-04T14:23:05Z</time>
      </trkpt>
      <trkpt lat="41.79054" lon="9.2347">
        <ele>1158.26</ele>
        <time>2018-09-04T14:23:21Z</time>
      </trkpt>
      <trkpt lat="41.79047" lon="9.23482">
        <ele>1155.25</ele>
        <time>2018-09-04T14:23:37Z</time>
      </trkpt>
      <trkpt lat="41.79045" lon="9.23491">
        <ele>1151.4</ele>
        <time>2018-09-04T14:23:51Z</time>
      </trkpt>
      <trkpt lat="41.79043" lon="9.23493">
        <ele>1150.04</ele>
        <time>2018-09-04T14:23:57Z</time>
      </trkpt>
      <trkpt lat="41.79044" lon="9.23499">
        <ele>1148.58</ele>
        <time>2018-09-04T14:24:07Z</time>
      </trkpt>
      <trkpt lat="41.79044" lon="9.23507">
        <ele>1145.91</ele>
        <time>2018-09-04T14:24:23Z</time>
      </trkpt>
      <trkpt lat="41.79036" lon="9.2351">
        <ele>1142.78</ele>
        <time>2018-09-04T14:24:41Z</time>
      </trkpt>
      <trkpt lat="41.79029" lon="9.23514">
        <ele>1139.26</ele>
        <time>2018-09-04T14:24:59Z</time>
      </trkpt>
      <trkpt lat="41.79028" lon="9.23514">
        <ele>1138.33</ele>
        <time>2018-09-04T14:25:01Z</time>
      </trkpt>
      <trkpt lat="41.79021" lon="9.23519">
        <ele>1135.13</ele>
        <time>2018-09-04T14:25:13Z</time>
      </trkpt>
      <trkpt lat="41.7902" lon="9.23519">
        <ele>1135.13</ele>
        <time>2018-09-04T14:25:14Z</time>
      </trkpt>
      <trkpt lat="41.79011" lon="9.23527">
        <ele>1131.53</ele>
        <time>2018-09-04T14:25:32Z</time>
      </trkpt>
      <trkpt lat="41.79006" lon="9.23536">
        <ele>1127.55</ele>
        <time>2018-09-04T14:25:50Z</time>
      </trkpt>
      <trkpt lat="41.79001" lon="9.23543">
        <ele>1125.49</ele>
        <time>2018-09-04T14:26:07Z</time>
      </trkpt>
      <trkpt lat="41.78995" lon="9.23548">
        <ele>1121.66</ele>
        <time>2018-09-04T14:26:23Z</time>
      </trkpt>
      <trkpt lat="41.78994" lon="9.23548">
        <ele>1121.73</ele>
        <time>2018-09-04T14:26:24Z</time>
      </trkpt>
      <trkpt lat="41.7899" lon="9.23549">
        <ele>1120.11</ele>
        <time>2018-09-04T14:26:30Z</time>
      </trkpt>
      <trkpt lat="41.78983" lon="9.23553">
        <ele>1117.67</ele>
        <time>2018-09-04T14:26:41Z</time>
      </trkpt>
      <trkpt lat="41.78979" lon="9.23558">
        <ele>1115.25</ele>
        <time>2018-09-04T14:26:51Z</time>
      </trkpt>
      <trkpt lat="41.78969" lon="9.23564">
        <ele>1111.89</ele>
        <time>2018-09-04T14:27:06Z</time>
      </trkpt>
      <trkpt lat="41.78963" lon="9.23569">
        <ele>1109.08</ele>
        <time>2018-09-04T14:27:23Z</time>
      </trkpt>
      <trkpt lat="41.78954" lon="9.23574">
        <ele>1107.36</ele>
        <time>2018-09-04T14:27:42Z</time>
      </trkpt>
      <trkpt lat="41.78951" lon="9.23573">
        <ele>1105.54</ele>
        <time>2018-09-04T14:27:48Z</time>
      </trkpt>
      <trkpt lat="41.7895" lon="9.23576">
        <ele>1103.14</ele>
        <time>2018-09-04T14:27:57Z</time>
      </trkpt>
      <trkpt lat="41.78945" lon="9.23579">
        <ele>1100.75</ele>
        <time>2018-09-04T14:28:09Z</time>
      </trkpt>
      <trkpt lat="41.78945" lon="9.23575">
        <ele>1099.87</ele>
        <time>2018-09-04T14:28:31Z</time>
      </trkpt>
      <trkpt lat="41.78942" lon="9.23573">
        <ele>1101.28</ele>
        <time>2018-09-04T14:28:47Z</time>
      </trkpt>
      <trkpt lat="41.78942" lon="9.23575">
        <ele>1098.12</ele>
        <time>2018-09-04T14:29:16Z</time>
      </trkpt>
      <trkpt lat="41.78943" lon="9.23575">
        <ele>1102.09</ele>
        <time>2018-09-04T14:29:18Z</time>
      </trkpt>
      <trkpt lat="41.78946" lon="9.23575">
        <ele>1102.08</ele>
        <time>2018-09-04T14:29:29Z</time>
      </trkpt>
      <trkpt lat="41.78941" lon="9.2358">
        <ele>1101.98</ele>
        <time>2018-09-04T14:30:00Z</time>
      </trkpt>
      <trkpt lat="41.7894" lon="9.2358">
        <ele>1099.66</ele>
        <time>2018-09-04T14:30:02Z</time>
      </trkpt>
      <trkpt lat="41.78943" lon="9.23593">
        <ele>1097.03</ele>
        <time>2018-09-04T14:30:19Z</time>
      </trkpt>
      <trkpt lat="41.7894" lon="9.23606">
        <ele>1094.72</ele>
        <time>2018-09-04T14:30:38Z</time>
      </trkpt>
      <trkpt lat="41.78941" lon="9.23615">
        <ele>1094.7</ele>
        <time>2018-09-04T14:30:54Z</time>
      </trkpt>
      <trkpt lat="41.78941" lon="9.23625">
        <ele>1094.65</ele>
        <time>2018-09-04T14:31:12Z</time>
      </trkpt>
      <trkpt lat="41.78944" lon="9.23635">
        <ele>1093.41</ele>
        <time>2018-09-04T14:31:31Z</time>
      </trkpt>
      <trkpt lat="41.78943" lon="9.23643">
        <ele>1091.86</ele>
        <time>2018-09-04T14:31:44Z</time>
      </trkpt>
      <trkpt lat="41.78942" lon="9.2366">
        <ele>1089.18</ele>
        <time>2018-09-04T14:32:03Z</time>
      </trkpt>
      <trkpt lat="41.78948" lon="9.23679">
        <ele>1088.24</ele>
        <time>2018-09-04T14:32:21Z</time>
      </trkpt>
      <trkpt lat="41.78946" lon="9.23687">
        <ele>1085.14</ele>
        <time>2018-09-04T14:32:30Z</time>
      </trkpt>
      <trkpt lat="41.78947" lon="9.23704">
        <ele>1083.28</ele>
        <time>2018-09-04T14:32:46Z</time>
      </trkpt>
      <trkpt lat="41.78947" lon="9.23715">
        <ele>1079.98</ele>
        <time>2018-09-04T14:33:01Z</time>
      </trkpt>
      <trkpt lat="41.78947" lon="9.23716">
        <ele>1080.05</ele>
        <time>2018-09-04T14:33:02Z</time>
      </trkpt>
      <trkpt lat="41.78949" lon="9.2373">
        <ele>1077.79</ele>
        <time>2018-09-04T14:33:17Z</time>
      </trkpt>
      <trkpt lat="41.78953" lon="9.2374">
        <ele>1074.66</ele>
        <time>2018-09-04T14:33:33Z</time>
      </trkpt>
      <trkpt lat="41.78953" lon="9.23755">
        <ele>1071.53</ele>
        <time>2018-09-04T14:33:52Z</time>
      </trkpt>
      <trkpt lat="41.78952" lon="9.23766">
        <ele>1068.77</ele>
        <time>2018-09-04T14:34:10Z</time>
      </trkpt>
      <trkpt lat="41.78951" lon="9.23774">
        <ele>1066.9</ele>
        <time>2018-09-04T14:34:24Z</time>
      </trkpt>
      <trkpt lat="41.78951" lon="9.2378">
        <ele>1064.79</ele>
        <time>2018-09-04T14:34:32Z</time>
      </trkpt>
      <trkpt lat="41.78959" lon="9.2379">
        <ele>1063.01</ele>
        <time>2018-09-04T14:34:45Z</time>
      </trkpt>
      <trkpt lat="41.78967" lon="9.23805">
        <ele>1061.15</ele>
        <time>2018-09-04T14:35:00Z</time>
      </trkpt>
      <trkpt lat="41.78969" lon="9.23808">
        <ele>1059.66</ele>
        <time>2018-09-04T14:35:04Z</time>
      </trkpt>
      <trkpt lat="41.78979" lon="9.2382">
        <ele>1057.79</ele>
        <time>2018-09-04T14:35:19Z</time>
      </trkpt>
      <trkpt lat="41.78978" lon="9.23831">
        <ele>1054.93</ele>
        <time>2018-09-04T14:35:32Z</time>
      </trkpt>
      <trkpt lat="41.78978" lon="9.23839">
        <ele>1053.11</ele>
        <time>2018-09-04T14:35:40Z</time>
      </trkpt>
      <trkpt lat="41.78969" lon="9.23849">
        <ele>1051.99</ele>
        <time>2018-09-04T14:35:55Z</time>
      </trkpt>
      <trkpt lat="41.78958" lon="9.23852">
        <ele>1048.79</ele>
        <time>2018-09-04T14:36:08Z</time>
      </trkpt>
      <trkpt lat="41.7895" lon="9.2385">
        <ele>1045.46</ele>
        <time>2018-09-04T14:36:20Z</time>
      </trkpt>
      <trkpt lat="41.78949" lon="9.2385">
        <ele>1045.43</ele>
        <time>2018-09-04T14:36:21Z</time>
      </trkpt>
      <trkpt lat="41.78937" lon="9.23844">
        <ele>1043.07</ele>
        <time>2018-09-04T14:36:38Z</time>
      </trkpt>
      <trkpt lat="41.78937" lon="9.23845">
        <ele>1043.06</ele>
        <time>2018-09-04T14:36:39Z</time>
      </trkpt>
      <trkpt lat="41.7893" lon="9.23849">
        <ele>1040.78</ele>
        <time>2018-09-04T14:36:53Z</time>
      </trkpt>
      <trkpt lat="41.78925" lon="9.23858">
        <ele>1037.81</ele>
        <time>2018-09-04T14:37:08Z</time>
      </trkpt>
      <trkpt lat="41.78922" lon="9.23866">
        <ele>1033.97</ele>
        <time>2018-09-04T14:37:22Z</time>
      </trkpt>
      <trkpt lat="41.78915" lon="9.23868">
        <ele>1032.19</ele>
        <time>2018-09-04T14:37:38Z</time>
      </trkpt>
      <trkpt lat="41.78907" lon="9.23869">
        <ele>1030.32</ele>
        <time>2018-09-04T14:37:47Z</time>
      </trkpt>
      <trkpt lat="41.78897" lon="9.23869">
        <ele>1030.3</ele>
        <time>2018-09-04T14:37:56Z</time>
      </trkpt>
      <trkpt lat="41.78883" lon="9.23851">
        <ele>1027.46</ele>
        <time>2018-09-04T14:38:12Z</time>
      </trkpt>
      <trkpt lat="41.78874" lon="9.23845">
        <ele>1027.39</ele>
        <time>2018-09-04T14:38:20Z</time>
      </trkpt>
      <trkpt lat="41.7887" lon="9.23844">
        <ele>1026.06</ele>
        <time>2018-09-04T14:38:24Z</time>
      </trkpt>
      <trkpt lat="41.78869" lon="9.23844">
        <ele>1026.04</ele>
        <time>2018-09-04T14:38:25Z</time>
      </trkpt>
      <trkpt lat="41.78864" lon="9.23846">
        <ele>1026</ele>
        <time>2018-09-04T14:38:29Z</time>
      </trkpt>
      <trkpt lat="41.78851" lon="9.23855">
        <ele>1025.83</ele>
        <time>2018-09-04T14:38:45Z</time>
      </trkpt>
      <trkpt lat="41.78835" lon="9.23862">
        <ele>1024.81</ele>
        <time>2018-09-04T14:39:00Z</time>
      </trkpt>
      <trkpt lat="41.78819" lon="9.23867">
        <ele>1023.75</ele>
        <time>2018-09-04T14:39:15Z</time>
      </trkpt>
      <trkpt lat="41.7881" lon="9.23872">
        <ele>1022.83</ele>
        <time>2018-09-04T14:39:31Z</time>
      </trkpt>
      <trkpt lat="41.78803" lon="9.23876">
        <ele>1022.71</ele>
        <time>2018-09-04T14:39:47Z</time>
      </trkpt>
      <trkpt lat="41.78798" lon="9.23879">
        <ele>1021.88</ele>
        <time>2018-09-04T14:39:55Z</time>
      </trkpt>
      <trkpt lat="41.78798" lon="9.23882">
        <ele>1021.85</ele>
        <time>2018-09-04T14:39:58Z</time>
      </trkpt>
      <trkpt lat="41.78802" lon="9.23897">
        <ele>1020.98</ele>
        <time>2018-09-04T14:40:14Z</time>
      </trkpt>
      <trkpt lat="41.78804" lon="9.23899">
        <ele>1023.28</ele>
        <time>2018-09-04T14:40:20Z</time>
      </trkpt>
      <trkpt lat="41.78814" lon="9.23907">
        <ele>1023.89</ele>
        <time>2018-09-04T14:40:38Z</time>
      </trkpt>
      <trkpt lat="41.7883" lon="9.23911">
        <ele>1023.8</ele>
        <time>2018-09-04T14:40:54Z</time>
      </trkpt>
      <trkpt lat="41.78842" lon="9.23914">
        <ele>1023.7</ele>
        <time>2018-09-04T14:41:08Z</time>
      </trkpt>
      <trkpt lat="41.78856" lon="9.23917">
        <ele>1023.65</ele>
        <time>2018-09-04T14:41:21Z</time>
      </trkpt>
      <trkpt lat="41.78867" lon="9.23931">
        <ele>1024.56</ele>
        <time>2018-09-04T14:41:36Z</time>
      </trkpt>
      <trkpt lat="41.78876" lon="9.23947">
        <ele>1024.51</ele>
        <time>2018-09-04T14:41:53Z</time>
      </trkpt>
      <trkpt lat="41.78883" lon="9.2397">
        <ele>1024.44</ele>
        <time>2018-09-04T14:42:11Z</time>
      </trkpt>
      <trkpt lat="41.78885" lon="9.23995">
        <ele>1024.36</ele>
        <time>2018-09-04T14:42:31Z</time>
      </trkpt>
      <trkpt lat="41.78882" lon="9.24021">
        <ele>1024.3</ele>
        <time>2018-09-04T14:42:52Z</time>
      </trkpt>
      <trkpt lat="41.78875" lon="9.24035">
        <ele>1024.3</ele>
        <time>2018-09-04T14:43:11Z</time>
      </trkpt>
      <trkpt lat="41.78873" lon="9.24051">
        <ele>1025.12</ele>
        <time>2018-09-04T14:43:28Z</time>
      </trkpt>
      <trkpt lat="41.78872" lon="9.24068">
        <ele>1025.06</ele>
        <time>2018-09-04T14:43:45Z</time>
      </trkpt>
      <trkpt lat="41.78871" lon="9.24088">
        <ele>1027.79</ele>
        <time>2018-09-04T14:44:04Z</time>
      </trkpt>
      <trkpt lat="41.78874" lon="9.241">
        <ele>1028.53</ele>
        <time>2018-09-04T14:44:21Z</time>
      </trkpt>
      <trkpt lat="41.78874" lon="9.24101">
        <ele>1029.28</ele>
        <time>2018-09-04T14:44:23Z</time>
      </trkpt>
      <trkpt lat="41.78867" lon="9.24112">
        <ele>1030.16</ele>
        <time>2018-09-04T14:44:40Z</time>
      </trkpt>
      <trkpt lat="41.78867" lon="9.24113">
        <ele>1031.42</ele>
        <time>2018-09-04T14:44:43Z</time>
      </trkpt>
      <trkpt lat="41.78868" lon="9.24126">
        <ele>1033.34</ele>
        <time>2018-09-04T14:45:02Z</time>
      </trkpt>
      <trkpt lat="41.78868" lon="9.24128">
        <ele>1034.72</ele>
        <time>2018-09-04T14:45:05Z</time>
      </trkpt>
      <trkpt lat="41.78872" lon="9.24134">
        <ele>1036.29</ele>
        <time>2018-09-04T14:45:14Z</time>
      </trkpt>
      <trkpt lat="41.78878" lon="9.24137">
        <ele>1038.24</ele>
        <time>2018-09-04T14:45:32Z</time>
      </trkpt>
      <trkpt lat="41.78885" lon="9.24147">
        <ele>1040.89</ele>
        <time>2018-09-04T14:45:51Z</time>
      </trkpt>
      <trkpt lat="41.78889" lon="9.24159">
        <ele>1044.41</ele>
        <time>2018-09-04T14:46:06Z</time>
      </trkpt>
      <trkpt lat="41.78889" lon="9.24163">
        <ele>1045.72</ele>
        <time>2018-09-04T14:46:13Z</time>
      </trkpt>
      <trkpt lat="41.78889" lon="9.24176">
        <ele>1048.6</ele>
        <time>2018-09-04T14:46:33Z</time>
      </trkpt>
      <trkpt lat="41.78889" lon="9.24188">
        <ele>1052.2</ele>
        <time>2018-09-04T14:46:54Z</time>
      </trkpt>
      <trkpt lat="41.78892" lon="9.242">
        <ele>1054.16</ele>
        <time>2018-09-04T14:47:14Z</time>
      </trkpt>
      <trkpt lat="41.78894" lon="9.24213">
        <ele>1057.83</ele>
        <time>2018-09-04T14:47:33Z</time>
      </trkpt>
      <trkpt lat="41.78898" lon="9.24229">
        <ele>1058.47</ele>
        <time>2018-09-04T14:47:54Z</time>
      </trkpt>
      <trkpt lat="41.789" lon="9.24236">
        <ele>1059.7</ele>
        <time>2018-09-04T14:48:03Z</time>
      </trkpt>
      <trkpt lat="41.78904" lon="9.24259">
        <ele>1060.53</ele>
        <time>2018-09-04T14:48:24Z</time>
      </trkpt>
      <trkpt lat="41.78903" lon="9.24269">
        <ele>1063.31</ele>
        <time>2018-09-04T14:48:43Z</time>
      </trkpt>
      <trkpt lat="41.789" lon="9.24279">
        <ele>1066.36</ele>
        <time>2018-09-04T14:49:01Z</time>
      </trkpt>
      <trkpt lat="41.78905" lon="9.24291">
        <ele>1068.24</ele>
        <time>2018-09-04T14:49:19Z</time>
      </trkpt>
      <trkpt lat="41.7891" lon="9.24302">
        <ele>1069.76</ele>
        <time>2018-09-04T14:49:37Z</time>
      </trkpt>
      <trkpt lat="41.78912" lon="9.24306">
        <ele>1070.93</ele>
        <time>2018-09-04T14:49:46Z</time>
      </trkpt>
      <trkpt lat="41.78919" lon="9.24314">
        <ele>1072.58</ele>
        <time>2018-09-04T14:50:06Z</time>
      </trkpt>
      <trkpt lat="41.78926" lon="9.24322">
        <ele>1075.68</ele>
        <time>2018-09-04T14:50:23Z</time>
      </trkpt>
      <trkpt lat="41.78928" lon="9.24331">
        <ele>1076.36</ele>
        <time>2018-09-04T14:50:38Z</time>
      </trkpt>
      <trkpt lat="41.78931" lon="9.24335">
        <ele>1078.4</ele>
        <time>2018-09-04T14:50:44Z</time>
      </trkpt>
      <trkpt lat="41.78937" lon="9.24346">
        <ele>1080.29</ele>
        <time>2018-09-04T14:51:02Z</time>
      </trkpt>
      <trkpt lat="41.78936" lon="9.24347">
        <ele>1081.61</ele>
        <time>2018-09-04T14:51:04Z</time>
      </trkpt>
      <trkpt lat="41.78937" lon="9.24358">
        <ele>1082.14</ele>
        <time>2018-09-04T14:51:26Z</time>
      </trkpt>
      <trkpt lat="41.78938" lon="9.24359">
        <ele>1083.55</ele>
        <time>2018-09-04T14:51:31Z</time>
      </trkpt>
      <trkpt lat="41.78942" lon="9.24367">
        <ele>1086.21</ele>
        <time>2018-09-04T14:51:52Z</time>
      </trkpt>
      <trkpt lat="41.78946" lon="9.24373">
        <ele>1089.02</ele>
        <time>2018-09-04T14:52:07Z</time>
      </trkpt>
      <trkpt lat="41.78955" lon="9.24383">
        <ele>1088.79</ele>
        <time>2018-09-04T14:52:27Z</time>
      </trkpt>
      <trkpt lat="41.78963" lon="9.24394">
        <ele>1092.2</ele>
        <time>2018-09-04T14:52:46Z</time>
      </trkpt>
      <trkpt lat="41.78969" lon="9.24403">
        <ele>1094.33</ele>
        <time>2018-09-04T14:53:04Z</time>
      </trkpt>
      <trkpt lat="41.78974" lon="9.24408">
        <ele>1095.06</ele>
        <time>2018-09-04T14:53:19Z</time>
      </trkpt>
      <trkpt lat="41.78979" lon="9.24417">
        <ele>1095.58</ele>
        <time>2018-09-04T14:53:37Z</time>
      </trkpt>
      <trkpt lat="41.78983" lon="9.24423">
        <ele>1095.51</ele>
        <time>2018-09-04T14:53:55Z</time>
      </trkpt>
      <trkpt lat="41.78993" lon="9.24433">
        <ele>1095.5</ele>
        <time>2018-09-04T14:54:11Z</time>
      </trkpt>
      <trkpt lat="41.78999" lon="9.24449">
        <ele>1096.18</ele>
        <time>2018-09-04T14:54:26Z</time>
      </trkpt>
      <trkpt lat="41.79005" lon="9.24464">
        <ele>1093.72</ele>
        <time>2018-09-04T14:54:41Z</time>
      </trkpt>
      <trkpt lat="41.7901" lon="9.24477">
        <ele>1091.99</ele>
        <time>2018-09-04T14:54:55Z</time>
      </trkpt>
      <trkpt lat="41.7901" lon="9.24498">
        <ele>1092.16</ele>
        <time>2018-09-04T14:55:12Z</time>
      </trkpt>
      <trkpt lat="41.7901" lon="9.24501">
        <ele>1094.94</ele>
        <time>2018-09-04T14:55:17Z</time>
      </trkpt>
      <trkpt lat="41.79016" lon="9.24517">
        <ele>1094.71</ele>
        <time>2018-09-04T14:55:35Z</time>
      </trkpt>
      <trkpt lat="41.7902" lon="9.24532">
        <ele>1094.89</ele>
        <time>2018-09-04T14:55:54Z</time>
      </trkpt>
      <trkpt lat="41.79027" lon="9.2455">
        <ele>1096.82</ele>
        <time>2018-09-04T14:56:13Z</time>
      </trkpt>
      <trkpt lat="41.79029" lon="9.24556">
        <ele>1099.04</ele>
        <time>2018-09-04T14:56:22Z</time>
      </trkpt>
      <trkpt lat="41.79034" lon="9.24568">
        <ele>1100.78</ele>
        <time>2018-09-04T14:56:41Z</time>
      </trkpt>
      <trkpt lat="41.7903" lon="9.24574">
        <ele>1103.97</ele>
        <time>2018-09-04T14:56:57Z</time>
      </trkpt>
      <trkpt lat="41.79029" lon="9.24574">
        <ele>1103.97</ele>
        <time>2018-09-04T14:56:58Z</time>
      </trkpt>
      <trkpt lat="41.79029" lon="9.24581">
        <ele>1104.85</ele>
        <time>2018-09-04T14:57:19Z</time>
      </trkpt>
      <trkpt lat="41.79035" lon="9.24593">
        <ele>1107.26</ele>
        <time>2018-09-04T14:57:42Z</time>
      </trkpt>
      <trkpt lat="41.79037" lon="9.24601">
        <ele>1109.66</ele>
        <time>2018-09-04T14:57:53Z</time>
      </trkpt>
      <trkpt lat="41.7904" lon="9.24617">
        <ele>1111.95</ele>
        <time>2018-09-04T14:58:13Z</time>
      </trkpt>
      <trkpt lat="41.7904" lon="9.24617">
        <ele>1113.55</ele>
        <time>2018-09-04T14:58:16Z</time>
      </trkpt>
      <trkpt lat="41.79043" lon="9.2463">
        <ele>1117.29</ele>
        <time>2018-09-04T14:58:36Z</time>
      </trkpt>
      <trkpt lat="41.79051" lon="9.24641">
        <ele>1117.05</ele>
        <time>2018-09-04T14:58:55Z</time>
      </trkpt>
      <trkpt lat="41.79063" lon="9.24649">
        <ele>1118.8</ele>
        <time>2018-09-04T14:59:14Z</time>
      </trkpt>
      <trkpt lat="41.79068" lon="9.24649">
        <ele>1121.43</ele>
        <time>2018-09-04T14:59:24Z</time>
      </trkpt>
      <trkpt lat="41.79081" lon="9.24651">
        <ele>1121.26</ele>
        <time>2018-09-04T14:59:43Z</time>
      </trkpt>
      <trkpt lat="41.79092" lon="9.24658">
        <ele>1123.19</ele>
        <time>2018-09-04T15:00:02Z</time>
      </trkpt>
      <trkpt lat="41.79097" lon="9.24669">
        <ele>1126.96</ele>
        <time>2018-09-04T15:00:17Z</time>
      </trkpt>
      <trkpt lat="41.79098" lon="9.2467">
        <ele>1127.98</ele>
        <time>2018-09-04T15:00:19Z</time>
      </trkpt>
      <trkpt lat="41.79107" lon="9.24679">
        <ele>1130.66</ele>
        <time>2018-09-04T15:00:37Z</time>
      </trkpt>
      <trkpt lat="41.79107" lon="9.2468">
        <ele>1130.65</ele>
        <time>2018-09-04T15:00:38Z</time>
      </trkpt>
      <trkpt lat="41.79111" lon="9.24686">
        <ele>1132.05</ele>
        <time>2018-09-04T15:00:49Z</time>
      </trkpt>
      <trkpt lat="41.79121" lon="9.247">
        <ele>1132.68</ele>
        <time>2018-09-04T15:01:07Z</time>
      </trkpt>
      <trkpt lat="41.79134" lon="9.24714">
        <ele>1133.61</ele>
        <time>2018-09-04T15:01:26Z</time>
      </trkpt>
      <trkpt lat="41.79138" lon="9.24725">
        <ele>1136.49</ele>
        <time>2018-09-04T15:01:41Z</time>
      </trkpt>
      <trkpt lat="41.79141" lon="9.24739">
        <ele>1139.79</ele>
        <time>2018-09-04T15:02:01Z</time>
      </trkpt>
      <trkpt lat="41.79142" lon="9.24747">
        <ele>1141.52</ele>
        <time>2018-09-04T15:02:17Z</time>
      </trkpt>
      <trkpt lat="41.79143" lon="9.2475">
        <ele>1142.98</ele>
        <time>2018-09-04T15:02:22Z</time>
      </trkpt>
      <trkpt lat="41.79145" lon="9.24756">
        <ele>1144.39</ele>
        <time>2018-09-04T15:02:32Z</time>
      </trkpt>
      <trkpt lat="41.79147" lon="9.24767">
        <ele>1145.75</ele>
        <time>2018-09-04T15:02:50Z</time>
      </trkpt>
      <trkpt lat="41.79145" lon="9.2478">
        <ele>1148.3</ele>
        <time>2018-09-04T15:03:09Z</time>
      </trkpt>
      <trkpt lat="41.79146" lon="9.24781">
        <ele>1149.57</ele>
        <time>2018-09-04T15:03:12Z</time>
      </trkpt>
      <trkpt lat="41.79139" lon="9.24776">
        <ele>1151.16</ele>
        <time>2018-09-04T15:03:31Z</time>
      </trkpt>
      <trkpt lat="41.79131" lon="9.2477">
        <ele>1151.9</ele>
        <time>2018-09-04T15:03:45Z</time>
      </trkpt>
      <trkpt lat="41.79129" lon="9.24773">
        <ele>1153.66</ele>
        <time>2018-09-04T15:03:59Z</time>
      </trkpt>
      <trkpt lat="41.79124" lon="9.24771">
        <ele>1156.46</ele>
        <time>2018-09-04T15:04:15Z</time>
      </trkpt>
      <trkpt lat="41.79126" lon="9.24777">
        <ele>1158.22</ele>
        <time>2018-09-04T15:04:32Z</time>
      </trkpt>
      <trkpt lat="41.79124" lon="9.24777">
        <ele>1159.62</ele>
        <time>2018-09-04T15:04:37Z</time>
      </trkpt>
      <trkpt lat="41.79123" lon="9.24782">
        <ele>1161.65</ele>
        <time>2018-09-04T15:04:54Z</time>
      </trkpt>
      <trkpt lat="41.79125" lon="9.24789">
        <ele>1163.99</ele>
        <time>2018-09-04T15:05:06Z</time>
      </trkpt>
      <trkpt lat="41.7912" lon="9.2479">
        <ele>1165.78</ele>
        <time>2018-09-04T15:05:25Z</time>
      </trkpt>
      <trkpt lat="41.79113" lon="9.24785">
        <ele>1168.61</ele>
        <time>2018-09-04T15:05:40Z</time>
      </trkpt>
      <trkpt lat="41.79113" lon="9.24793">
        <ele>1170.48</ele>
        <time>2018-09-04T15:05:55Z</time>
      </trkpt>
      <trkpt lat="41.79116" lon="9.24805">
        <ele>1173.16</ele>
        <time>2018-09-04T15:06:14Z</time>
      </trkpt>
      <trkpt lat="41.79117" lon="9.24809">
        <ele>1174.63</ele>
        <time>2018-09-04T15:06:20Z</time>
      </trkpt>
      <trkpt lat="41.79112" lon="9.24811">
        <ele>1176.61</ele>
        <time>2018-09-04T15:06:39Z</time>
      </trkpt>
      <trkpt lat="41.79108" lon="9.24811">
        <ele>1178.57</ele>
        <time>2018-09-04T15:06:53Z</time>
      </trkpt>
      <trkpt lat="41.79107" lon="9.2482">
        <ele>1181.28</ele>
        <time>2018-09-04T15:07:13Z</time>
      </trkpt>
      <trkpt lat="41.79108" lon="9.24821">
        <ele>1181.28</ele>
        <time>2018-09-04T15:07:15Z</time>
      </trkpt>
      <trkpt lat="41.791" lon="9.24823">
        <ele>1184.07</ele>
        <time>2018-09-04T15:07:35Z</time>
      </trkpt>
      <trkpt lat="41.79097" lon="9.24823">
        <ele>1184.98</ele>
        <time>2018-09-04T15:07:41Z</time>
      </trkpt>
      <trkpt lat="41.79089" lon="9.24821">
        <ele>1187.09</ele>
        <time>2018-09-04T15:07:54Z</time>
      </trkpt>
      <trkpt lat="41.79086" lon="9.24827">
        <ele>1188.85</ele>
        <time>2018-09-04T15:08:12Z</time>
      </trkpt>
      <trkpt lat="41.79082" lon="9.24828">
        <ele>1188.73</ele>
        <time>2018-09-04T15:08:31Z</time>
      </trkpt>
      <trkpt lat="41.79081" lon="9.24829">
        <ele>1188.67</ele>
        <time>2018-09-04T15:08:47Z</time>
      </trkpt>
      <trkpt lat="41.79081" lon="9.24831">
        <ele>1188.57</ele>
        <time>2018-09-04T15:09:22Z</time>
      </trkpt>
      <trkpt lat="41.79081" lon="9.24833">
        <ele>1188.55</ele>
        <time>2018-09-04T15:09:49Z</time>
      </trkpt>
      <trkpt lat="41.7908" lon="9.24831">
        <ele>1185.91</ele>
        <time>2018-09-04T15:09:59Z</time>
      </trkpt>
      <trkpt lat="41.79077" lon="9.24828">
        <ele>1184.67</ele>
        <time>2018-09-04T15:10:16Z</time>
      </trkpt>
      <trkpt lat="41.79074" lon="9.24833">
        <ele>1181.82</ele>
        <time>2018-09-04T15:10:31Z</time>
      </trkpt>
      <trkpt lat="41.79069" lon="9.24832">
        <ele>1179.05</ele>
        <time>2018-09-04T15:10:41Z</time>
      </trkpt>
      <trkpt lat="41.79064" lon="9.24826">
        <ele>1178.23</ele>
        <time>2018-09-04T15:10:54Z</time>
      </trkpt>
      <trkpt lat="41.79063" lon="9.24825">
        <ele>1176.86</ele>
        <time>2018-09-04T15:10:57Z</time>
      </trkpt>
      <trkpt lat="41.7906" lon="9.24822">
        <ele>1175.64</ele>
        <time>2018-09-04T15:11:05Z</time>
      </trkpt>
      <trkpt lat="41.79053" lon="9.24819">
        <ele>1173.18</ele>
        <time>2018-09-04T15:11:18Z</time>
      </trkpt>
      <trkpt lat="41.7905" lon="9.24822">
        <ele>1171.33</ele>
        <time>2018-09-04T15:11:31Z</time>
      </trkpt>
      <trkpt lat="41.79053" lon="9.24831">
        <ele>1169.09</ele>
        <time>2018-09-04T15:11:46Z</time>
      </trkpt>
      <trkpt lat="41.79049" lon="9.24829">
        <ele>1167.2</ele>
        <time>2018-09-04T15:12:02Z</time>
      </trkpt>
      <trkpt lat="41.79045" lon="9.24829">
        <ele>1164.85</ele>
        <time>2018-09-04T15:12:12Z</time>
      </trkpt>
      <trkpt lat="41.79046" lon="9.24843">
        <ele>1161.28</ele>
        <time>2018-09-04T15:12:31Z</time>
      </trkpt>
      <trkpt lat="41.79042" lon="9.24847">
        <ele>1159.93</ele>
        <time>2018-09-04T15:12:43Z</time>
      </trkpt>
      <trkpt lat="41.7904" lon="9.24846">
        <ele>1158.61</ele>
        <time>2018-09-04T15:12:55Z</time>
      </trkpt>
      <trkpt lat="41.79038" lon="9.24841">
        <ele>1157.67</ele>
        <time>2018-09-04T15:13:08Z</time>
      </trkpt>
      <trkpt lat="41.79034" lon="9.24837">
        <ele>1155.1</ele>
        <time>2018-09-04T15:13:22Z</time>
      </trkpt>
      <trkpt lat="41.79033" lon="9.24841">
        <ele>1153.91</ele>
        <time>2018-09-04T15:13:32Z</time>
      </trkpt>
      <trkpt lat="41.79028" lon="9.24839">
        <ele>1151.24</ele>
        <time>2018-09-04T15:13:50Z</time>
      </trkpt>
      <trkpt lat="41.79022" lon="9.24835">
        <ele>1149.44</ele>
        <time>2018-09-04T15:14:05Z</time>
      </trkpt>
      <trkpt lat="41.79022" lon="9.24838">
        <ele>1147.3</ele>
        <time>2018-09-04T15:14:14Z</time>
      </trkpt>
      <trkpt lat="41.79019" lon="9.2485">
        <ele>1144.56</ele>
        <time>2018-09-04T15:14:34Z</time>
      </trkpt>
      <trkpt lat="41.79018" lon="9.24867">
        <ele>1142.68</ele>
        <time>2018-09-04T15:14:48Z</time>
      </trkpt>
      <trkpt lat="41.79028" lon="9.24878">
        <ele>1140.83</ele>
        <time>2018-09-04T15:15:03Z</time>
      </trkpt>
      <trkpt lat="41.79029" lon="9.24879">
        <ele>1140.87</ele>
        <time>2018-09-04T15:15:05Z</time>
      </trkpt>
      <trkpt lat="41.79035" lon="9.24883">
        <ele>1138.76</ele>
        <time>2018-09-04T15:15:16Z</time>
      </trkpt>
      <trkpt lat="41.79039" lon="9.24891">
        <ele>1135.76</ele>
        <time>2018-09-04T15:15:35Z</time>
      </trkpt>
      <trkpt lat="41.79039" lon="9.24896">
        <ele>1133.14</ele>
        <time>2018-09-04T15:15:53Z</time>
      </trkpt>
      <trkpt lat="41.79042" lon="9.249">
        <ele>1131.26</ele>
        <time>2018-09-04T15:16:07Z</time>
      </trkpt>
      <trkpt lat="41.7904" lon="9.24906">
        <ele>1128.73</ele>
        <time>2018-09-04T15:16:22Z</time>
      </trkpt>
      <trkpt lat="41.79043" lon="9.24912">
        <ele>1126.92</ele>
        <time>2018-09-04T15:16:38Z</time>
      </trkpt>
      <trkpt lat="41.79043" lon="9.24916">
        <ele>1125.02</ele>
        <time>2018-09-04T15:16:54Z</time>
      </trkpt>
      <trkpt lat="41.79036" lon="9.24919">
        <ele>1122.24</ele>
        <time>2018-09-04T15:17:09Z</time>
      </trkpt>
      <trkpt lat="41.79033" lon="9.24921">
        <ele>1122.28</ele>
        <time>2018-09-04T15:17:13Z</time>
      </trkpt>
      <trkpt lat="41.79025" lon="9.24923">
        <ele>1120.63</ele>
        <time>2018-09-04T15:17:27Z</time>
      </trkpt>
      <trkpt lat="41.79025" lon="9.24921">
        <ele>1120.68</ele>
        <time>2018-09-04T15:17:57Z</time>
      </trkpt>
      <trkpt lat="41.79024" lon="9.2492">
        <ele>1120.71</ele>
        <time>2018-09-04T15:18:22Z</time>
      </trkpt>
      <trkpt lat="41.79018" lon="9.2492">
        <ele>1119.68</ele>
        <time>2018-09-04T15:18:37Z</time>
      </trkpt>
      <trkpt lat="41.79017" lon="9.24921">
        <ele>1118.03</ele>
        <time>2018-09-04T15:19:01Z</time>
      </trkpt>
      <trkpt lat="41.79015" lon="9.24918">
        <ele>1117.04</ele>
        <time>2018-09-04T15:19:18Z</time>
      </trkpt>
      <trkpt lat="41.79012" lon="9.24915">
        <ele>1113.71</ele>
        <time>2018-09-04T15:19:29Z</time>
      </trkpt>
      <trkpt lat="41.79011" lon="9.24915">
        <ele>1113.71</ele>
        <time>2018-09-04T15:19:30Z</time>
      </trkpt>
      <trkpt lat="41.79008" lon="9.24917">
        <ele>1112.93</ele>
        <time>2018-09-04T15:19:47Z</time>
      </trkpt>
      <trkpt lat="41.79005" lon="9.24917">
        <ele>1111.97</ele>
        <time>2018-09-04T15:20:16Z</time>
      </trkpt>
      <trkpt lat="41.79001" lon="9.24916">
        <ele>1109.93</ele>
        <time>2018-09-04T15:20:31Z</time>
      </trkpt>
      <trkpt lat="41.78998" lon="9.24917">
        <ele>1108.46</ele>
        <time>2018-09-04T15:20:36Z</time>
      </trkpt>
      <trkpt lat="41.78989" lon="9.24915">
        <ele>1106.96</ele>
        <time>2018-09-04T15:20:55Z</time>
      </trkpt>
      <trkpt lat="41.78984" lon="9.24911">
        <ele>1104.14</ele>
        <time>2018-09-04T15:21:11Z</time>
      </trkpt>
      <trkpt lat="41.78976" lon="9.24895">
        <ele>1101.72</ele>
        <time>2018-09-04T15:21:30Z</time>
      </trkpt>
      <trkpt lat="41.78972" lon="9.24882">
        <ele>1098.44</ele>
        <time>2018-09-04T15:21:43Z</time>
      </trkpt>
      <trkpt lat="41.78971" lon="9.24882">
        <ele>1098.45</ele>
        <time>2018-09-04T15:21:44Z</time>
      </trkpt>
      <trkpt lat="41.78969" lon="9.2488">
        <ele>1098.45</ele>
        <time>2018-09-04T15:21:48Z</time>
      </trkpt>
      <trkpt lat="41.78961" lon="9.24874">
        <ele>1097.43</ele>
        <time>2018-09-04T15:22:01Z</time>
      </trkpt>
      <trkpt lat="41.78954" lon="9.2487">
        <ele>1095.52</ele>
        <time>2018-09-04T15:22:17Z</time>
      </trkpt>
      <trkpt lat="41.78954" lon="9.24873">
        <ele>1093.46</ele>
        <time>2018-09-04T15:22:32Z</time>
      </trkpt>
      <trkpt lat="41.78947" lon="9.24869">
        <ele>1091.12</ele>
        <time>2018-09-04T15:22:46Z</time>
      </trkpt>
      <trkpt lat="41.78942" lon="9.24874">
        <ele>1087.68</ele>
        <time>2018-09-04T15:23:07Z</time>
      </trkpt>
      <trkpt lat="41.78944" lon="9.24877">
        <ele>1086.41</ele>
        <time>2018-09-04T15:23:12Z</time>
      </trkpt>
      <trkpt lat="41.78949" lon="9.24888">
        <ele>1083.52</ele>
        <time>2018-09-04T15:23:29Z</time>
      </trkpt>
      <trkpt lat="41.78953" lon="9.249">
        <ele>1081.84</ele>
        <time>2018-09-04T15:23:47Z</time>
      </trkpt>
      <trkpt lat="41.78954" lon="9.24903">
        <ele>1080.62</ele>
        <time>2018-09-04T15:23:52Z</time>
      </trkpt>
      <trkpt lat="41.78956" lon="9.24903">
        <ele>1080.64</ele>
        <time>2018-09-04T15:24:29Z</time>
      </trkpt>
      <trkpt lat="41.78958" lon="9.24916">
        <ele>1078.05</ele>
        <time>2018-09-04T15:24:52Z</time>
      </trkpt>
      <trkpt lat="41.7896" lon="9.24922">
        <ele>1078.03</ele>
        <time>2018-09-04T15:25:14Z</time>
      </trkpt>
      <trkpt lat="41.78962" lon="9.24923">
        <ele>1080.92</ele>
        <time>2018-09-04T15:25:28Z</time>
      </trkpt>
      <trkpt lat="41.78967" lon="9.24922">
        <ele>1083.64</ele>
        <time>2018-09-04T15:25:49Z</time>
      </trkpt>
      <trkpt lat="41.78967" lon="9.24926">
        <ele>1085.24</ele>
        <time>2018-09-04T15:25:53Z</time>
      </trkpt>
      <trkpt lat="41.78974" lon="9.24931">
        <ele>1087.32</ele>
        <time>2018-09-04T15:26:14Z</time>
      </trkpt>
      <trkpt lat="41.78979" lon="9.24936">
        <ele>1087.34</ele>
        <time>2018-09-04T15:26:30Z</time>
      </trkpt>
      <trkpt lat="41.78987" lon="9.24942">
        <ele>1087.22</ele>
        <time>2018-09-04T15:26:43Z</time>
      </trkpt>
      <trkpt lat="41.78997" lon="9.24944">
        <ele>1084.35</ele>
        <time>2018-09-04T15:26:54Z</time>
      </trkpt>
      <trkpt lat="41.78997" lon="9.24947">
        <ele>1083.71</ele>
        <time>2018-09-04T15:27:09Z</time>
      </trkpt>
      <trkpt lat="41.78996" lon="9.24949">
        <ele>1081.33</ele>
        <time>2018-09-04T15:27:12Z</time>
      </trkpt>
      <trkpt lat="41.7899" lon="9.24955">
        <ele>1080.42</ele>
        <time>2018-09-04T15:27:27Z</time>
      </trkpt>
      <trkpt lat="41.78996" lon="9.24955">
        <ele>1079.32</ele>
        <time>2018-09-04T15:27:40Z</time>
      </trkpt>
      <trkpt lat="41.79002" lon="9.24959">
        <ele>1076.44</ele>
        <time>2018-09-04T15:28:00Z</time>
      </trkpt>
      <trkpt lat="41.78999" lon="9.24965">
        <ele>1074.62</ele>
        <time>2018-09-04T15:28:16Z</time>
      </trkpt>
      <trkpt lat="41.79001" lon="9.2497">
        <ele>1072.45</ele>
        <time>2018-09-04T15:28:27Z</time>
      </trkpt>
      <trkpt lat="41.79009" lon="9.24969">
        <ele>1071.55</ele>
        <time>2018-09-04T15:28:40Z</time>
      </trkpt>
      <trkpt lat="41.79023" lon="9.24969">
        <ele>1069.05</ele>
        <time>2018-09-04T15:28:58Z</time>
      </trkpt>
      <trkpt lat="41.79033" lon="9.24971">
        <ele>1068.24</ele>
        <time>2018-09-04T15:29:18Z</time>
      </trkpt>
      <trkpt lat="41.79038" lon="9.24971">
        <ele>1064.56</ele>
        <time>2018-09-04T15:29:30Z</time>
      </trkpt>
      <trkpt lat="41.79039" lon="9.24977">
        <ele>1063.81</ele>
        <time>2018-09-04T15:29:44Z</time>
      </trkpt>
      <trkpt lat="41.79041" lon="9.24981">
        <ele>1062.51</ele>
        <time>2018-09-04T15:30:01Z</time>
      </trkpt>
      <trkpt lat="41.7904" lon="9.24983">
        <ele>1059.24</ele>
        <time>2018-09-04T15:30:11Z</time>
      </trkpt>
      <trkpt lat="41.79039" lon="9.24983">
        <ele>1059.28</ele>
        <time>2018-09-04T15:30:12Z</time>
      </trkpt>
      <trkpt lat="41.79036" lon="9.24986">
        <ele>1058.56</ele>
        <time>2018-09-04T15:30:30Z</time>
      </trkpt>
      <trkpt lat="41.7903" lon="9.24987">
        <ele>1056.59</ele>
        <time>2018-09-04T15:30:44Z</time>
      </trkpt>
      <trkpt lat="41.79035" lon="9.24992">
        <ele>1055.87</ele>
        <time>2018-09-04T15:31:04Z</time>
      </trkpt>
      <trkpt lat="41.79037" lon="9.24998">
        <ele>1053.07</ele>
        <time>2018-09-04T15:31:22Z</time>
      </trkpt>
      <trkpt lat="41.79036" lon="9.25001">
        <ele>1050.16</ele>
        <time>2018-09-04T15:31:33Z</time>
      </trkpt>
      <trkpt lat="41.79035" lon="9.25003">
        <ele>1048.94</ele>
        <time>2018-09-04T15:31:47Z</time>
      </trkpt>
      <trkpt lat="41.79037" lon="9.2501">
        <ele>1047.49</ele>
        <time>2018-09-04T15:31:57Z</time>
      </trkpt>
      <trkpt lat="41.79033" lon="9.25009">
        <ele>1045.58</ele>
        <time>2018-09-04T15:32:16Z</time>
      </trkpt>
      <trkpt lat="41.79031" lon="9.25007">
        <ele>1044.1</ele>
        <time>2018-09-04T15:32:22Z</time>
      </trkpt>
      <trkpt lat="41.79029" lon="9.25012">
        <ele>1042.2</ele>
        <time>2018-09-04T15:32:38Z</time>
      </trkpt>
      <trkpt lat="41.79029" lon="9.25016">
        <ele>1040.68</ele>
        <time>2018-09-04T15:32:44Z</time>
      </trkpt>
      <trkpt lat="41.79027" lon="9.25021">
        <ele>1039.51</ele>
        <time>2018-09-04T15:32:53Z</time>
      </trkpt>
      <trkpt lat="41.79031" lon="9.25026">
        <ele>1037.49</ele>
        <time>2018-09-04T15:33:03Z</time>
      </trkpt>
      <trkpt lat="41.79037" lon="9.25033">
        <ele>1035.74</ele>
        <time>2018-09-04T15:33:21Z</time>
      </trkpt>
      <trkpt lat="41.7904" lon="9.25037">
        <ele>1034.25</ele>
        <time>2018-09-04T15:33:29Z</time>
      </trkpt>
      <trkpt lat="41.79048" lon="9.25046">
        <ele>1033.47</ele>
        <time>2018-09-04T15:33:44Z</time>
      </trkpt>
      <trkpt lat="41.79057" lon="9.25052">
        <ele>1030.91</ele>
        <time>2018-09-04T15:34:03Z</time>
      </trkpt>
      <trkpt lat="41.79059" lon="9.25053">
        <ele>1029.67</ele>
        <time>2018-09-04T15:34:07Z</time>
      </trkpt>
      <trkpt lat="41.79073" lon="9.25055">
        <ele>1028.84</ele>
        <time>2018-09-04T15:34:23Z</time>
      </trkpt>
      <trkpt lat="41.7909" lon="9.25063">
        <ele>1028.95</ele>
        <time>2018-09-04T15:34:42Z</time>
      </trkpt>
      <trkpt lat="41.79099" lon="9.25072">
        <ele>1031.59</ele>
        <time>2018-09-04T15:34:58Z</time>
      </trkpt>
      <trkpt lat="41.79105" lon="9.25082">
        <ele>1032.66</ele>
        <time>2018-09-04T15:35:15Z</time>
      </trkpt>
      <trkpt lat="41.79111" lon="9.25087">
        <ele>1032.51</ele>
        <time>2018-09-04T15:35:25Z</time>
      </trkpt>
      <trkpt lat="41.79114" lon="9.25087">
        <ele>1030.02</ele>
        <time>2018-09-04T15:35:29Z</time>
      </trkpt>
      <trkpt lat="41.79121" lon="9.25086">
        <ele>1030</ele>
        <time>2018-09-04T15:35:43Z</time>
      </trkpt>
      <trkpt lat="41.79124" lon="9.25092">
        <ele>1030.01</ele>
        <time>2018-09-04T15:36:00Z</time>
      </trkpt>
      <trkpt lat="41.79127" lon="9.25096">
        <ele>1026.89</ele>
        <time>2018-09-04T15:36:14Z</time>
      </trkpt>
      <trkpt lat="41.79124" lon="9.25099">
        <ele>1025.9</ele>
        <time>2018-09-04T15:36:29Z</time>
      </trkpt>
      <trkpt lat="41.79125" lon="9.25105">
        <ele>1023.85</ele>
        <time>2018-09-04T15:36:45Z</time>
      </trkpt>
      <trkpt lat="41.79133" lon="9.25114">
        <ele>1022.04</ele>
        <time>2018-09-04T15:37:05Z</time>
      </trkpt>
      <trkpt lat="41.7914" lon="9.25129">
        <ele>1020.31</ele>
        <time>2018-09-04T15:37:22Z</time>
      </trkpt>
      <trkpt lat="41.79148" lon="9.25138">
        <ele>1019.46</ele>
        <time>2018-09-04T15:37:36Z</time>
      </trkpt>
      <trkpt lat="41.79151" lon="9.25149">
        <ele>1019.44</ele>
        <time>2018-09-04T15:37:52Z</time>
      </trkpt>
      <trkpt lat="41.79152" lon="9.2516">
        <ele>1017.48</ele>
        <time>2018-09-04T15:38:05Z</time>
      </trkpt>
      <trkpt lat="41.79155" lon="9.25171">
        <ele>1015.76</ele>
        <time>2018-09-04T15:38:21Z</time>
      </trkpt>
      <trkpt lat="41.79155" lon="9.25171">
        <ele>1014.57</ele>
        <time>2018-09-04T15:38:23Z</time>
      </trkpt>
      <trkpt lat="41.7916" lon="9.25176">
        <ele>1012.82</ele>
        <time>2018-09-04T15:38:38Z</time>
      </trkpt>
      <trkpt lat="41.79164" lon="9.25179">
        <ele>1011.2</ele>
        <time>2018-09-04T15:38:50Z</time>
      </trkpt>
      <trkpt lat="41.79169" lon="9.25184">
        <ele>1011.24</ele>
        <time>2018-09-04T15:39:05Z</time>
      </trkpt>
      <trkpt lat="41.79179" lon="9.25191">
        <ele>1009.23</ele>
        <time>2018-09-04T15:39:20Z</time>
      </trkpt>
      <trkpt lat="41.79183" lon="9.25192">
        <ele>1011.57</ele>
        <time>2018-09-04T15:39:29Z</time>
      </trkpt>
      <trkpt lat="41.79188" lon="9.252">
        <ele>1011.51</ele>
        <time>2018-09-04T15:39:45Z</time>
      </trkpt>
      <trkpt lat="41.7919" lon="9.25201">
        <ele>1008.95</ele>
        <time>2018-09-04T15:39:49Z</time>
      </trkpt>
      <trkpt lat="41.79195" lon="9.25213">
        <ele>1006.83</ele>
        <time>2018-09-04T15:40:04Z</time>
      </trkpt>
      <trkpt lat="41.79199" lon="9.25224">
        <ele>1006.06</ele>
        <time>2018-09-04T15:40:20Z</time>
      </trkpt>
      <trkpt lat="41.79205" lon="9.25234">
        <ele>1004.28</ele>
        <time>2018-09-04T15:40:35Z</time>
      </trkpt>
      <trkpt lat="41.79211" lon="9.25249">
        <ele>1003.41</ele>
        <time>2018-09-04T15:40:55Z</time>
      </trkpt>
      <trkpt lat="41.79216" lon="9.25252">
        <ele>1004.87</ele>
        <time>2018-09-04T15:41:03Z</time>
      </trkpt>
      <trkpt lat="41.79224" lon="9.25262">
        <ele>1004.92</ele>
        <time>2018-09-04T15:41:19Z</time>
      </trkpt>
      <trkpt lat="41.79231" lon="9.25266">
        <ele>1002.46</ele>
        <time>2018-09-04T15:41:29Z</time>
      </trkpt>
      <trkpt lat="41.79233" lon="9.25276">
        <ele>1005.22</ele>
        <time>2018-09-04T15:41:43Z</time>
      </trkpt>
      <trkpt lat="41.79236" lon="9.25274">
        <ele>1006.39</ele>
        <time>2018-09-04T15:42:01Z</time>
      </trkpt>
      <trkpt lat="41.7924" lon="9.25287">
        <ele>1007.12</ele>
        <time>2018-09-04T15:42:18Z</time>
      </trkpt>
      <trkpt lat="41.79239" lon="9.25301">
        <ele>1007.02</ele>
        <time>2018-09-04T15:42:35Z</time>
      </trkpt>
      <trkpt lat="41.7924" lon="9.25313">
        <ele>1004.58</ele>
        <time>2018-09-04T15:42:44Z</time>
      </trkpt>
      <trkpt lat="41.7924" lon="9.25332">
        <ele>1003.69</ele>
        <time>2018-09-04T15:43:00Z</time>
      </trkpt>
      <trkpt lat="41.79236" lon="9.25344">
        <ele>1001.88</ele>
        <time>2018-09-04T15:43:17Z</time>
      </trkpt>
      <trkpt lat="41.79235" lon="9.25347">
        <ele>1001.11</ele>
        <time>2018-09-04T15:43:55Z</time>
      </trkpt>
      <trkpt lat="41.79233" lon="9.25354">
        <ele>997.89</ele>
        <time>2018-09-04T15:44:10Z</time>
      </trkpt>
      <trkpt lat="41.79233" lon="9.25354">
        <ele>997.92</ele>
        <time>2018-09-04T15:44:11Z</time>
      </trkpt>
      <trkpt lat="41.79235" lon="9.25363">
        <ele>998.07</ele>
        <time>2018-09-04T15:44:31Z</time>
      </trkpt>
      <trkpt lat="41.79236" lon="9.25368">
        <ele>996.46</ele>
        <time>2018-09-04T15:44:36Z</time>
      </trkpt>
      <trkpt lat="41.79234" lon="9.2538">
        <ele>995.7</ele>
        <time>2018-09-04T15:44:50Z</time>
      </trkpt>
      <trkpt lat="41.79245" lon="9.25391">
        <ele>995.84</ele>
        <time>2018-09-04T15:45:06Z</time>
      </trkpt>
      <trkpt lat="41.79246" lon="9.25401">
        <ele>995.93</ele>
        <time>2018-09-04T15:45:19Z</time>
      </trkpt>
      <trkpt lat="41.79248" lon="9.25413">
        <ele>996.05</ele>
        <time>2018-09-04T15:45:33Z</time>
      </trkpt>
      <trkpt lat="41.79247" lon="9.25416">
        <ele>998.43</ele>
        <time>2018-09-04T15:45:38Z</time>
      </trkpt>
      <trkpt lat="41.79248" lon="9.25423">
        <ele>1001.06</ele>
        <time>2018-09-04T15:45:48Z</time>
      </trkpt>
      <trkpt lat="41.7925" lon="9.25432">
        <ele>1002.06</ele>
        <time>2018-09-04T15:46:05Z</time>
      </trkpt>
      <trkpt lat="41.7925" lon="9.25434">
        <ele>1003.33</ele>
        <time>2018-09-04T15:46:09Z</time>
      </trkpt>
      <trkpt lat="41.7925" lon="9.25454">
        <ele>1003.29</ele>
        <time>2018-09-04T15:46:27Z</time>
      </trkpt>
      <trkpt lat="41.79246" lon="9.25474">
        <ele>1003.32</ele>
        <time>2018-09-04T15:46:45Z</time>
      </trkpt>
      <trkpt lat="41.79244" lon="9.25484">
        <ele>1001.08</ele>
        <time>2018-09-04T15:46:56Z</time>
      </trkpt>
      <trkpt lat="41.79237" lon="9.25498">
        <ele>1001.2</ele>
        <time>2018-09-04T15:47:14Z</time>
      </trkpt>
      <trkpt lat="41.79234" lon="9.25503">
        <ele>1003.8</ele>
        <time>2018-09-04T15:47:23Z</time>
      </trkpt>
      <trkpt lat="41.79227" lon="9.25515">
        <ele>1003.8</ele>
        <time>2018-09-04T15:47:39Z</time>
      </trkpt>
      <trkpt lat="41.79224" lon="9.25517">
        <ele>1003.82</ele>
        <time>2018-09-04T15:47:42Z</time>
      </trkpt>
      <trkpt lat="41.79219" lon="9.25517">
        <ele>1003.87</ele>
        <time>2018-09-04T15:47:53Z</time>
      </trkpt>
      <trkpt lat="41.79218" lon="9.25517">
        <ele>1004.76</ele>
        <time>2018-09-04T15:48:16Z</time>
      </trkpt>
      <trkpt lat="41.79212" lon="9.25519">
        <ele>1004.86</ele>
        <time>2018-09-04T15:48:37Z</time>
      </trkpt>
      <trkpt lat="41.79203" lon="9.25526">
        <ele>1005.81</ele>
        <time>2018-09-04T15:48:52Z</time>
      </trkpt>
      <trkpt lat="41.79201" lon="9.25536">
        <ele>1006.86</ele>
        <time>2018-09-04T15:49:03Z</time>
      </trkpt>
      <trkpt lat="41.79196" lon="9.25551">
        <ele>1009.32</ele>
        <time>2018-09-04T15:49:18Z</time>
      </trkpt>
      <trkpt lat="41.79195" lon="9.25552">
        <ele>1009.27</ele>
        <time>2018-09-04T15:49:19Z</time>
      </trkpt>
      <trkpt lat="41.79192" lon="9.25569">
        <ele>1010.18</ele>
        <time>2018-09-04T15:49:37Z</time>
      </trkpt>
      <trkpt lat="41.79193" lon="9.25577">
        <ele>1011.15</ele>
        <time>2018-09-04T15:49:50Z</time>
      </trkpt>
      <trkpt lat="41.79195" lon="9.25581">
        <ele>1013.54</ele>
        <time>2018-09-04T15:49:58Z</time>
      </trkpt>
      <trkpt lat="41.79198" lon="9.25593">
        <ele>1014.37</ele>
        <time>2018-09-04T15:50:12Z</time>
      </trkpt>
      <trkpt lat="41.79202" lon="9.25607">
        <ele>1016.39</ele>
        <time>2018-09-04T15:50:30Z</time>
      </trkpt>
      <trkpt lat="41.79205" lon="9.25621">
        <ele>1016.31</ele>
        <time>2018-09-04T15:50:45Z</time>
      </trkpt>
      <trkpt lat="41.79205" lon="9.25633">
        <ele>1013.86</ele>
        <time>2018-09-04T15:50:57Z</time>
      </trkpt>
      <trkpt lat="41.79203" lon="9.25641">
        <ele>1013.03</ele>
        <time>2018-09-04T15:51:04Z</time>
      </trkpt>
      <trkpt lat="41.79208" lon="9.25654">
        <ele>1012.09</ele>
        <time>2018-09-04T15:51:15Z</time>
      </trkpt>
      <trkpt lat="41.79209" lon="9.25668">
        <ele>1012.15</ele>
        <time>2018-09-04T15:51:29Z</time>
      </trkpt>
      <trkpt lat="41.79213" lon="9.25688">
        <ele>1012.21</ele>
        <time>2018-09-04T15:51:47Z</time>
      </trkpt>
      <trkpt lat="41.79213" lon="9.25692">
        <ele>1014.58</ele>
        <time>2018-09-04T15:51:50Z</time>
      </trkpt>
      <trkpt lat="41.79215" lon="9.257">
        <ele>1015.32</ele>
        <time>2018-09-04T15:51:57Z</time>
      </trkpt>
      <trkpt lat="41.79221" lon="9.25716">
        <ele>1016.44</ele>
        <time>2018-09-04T15:52:10Z</time>
      </trkpt>
      <trkpt lat="41.79221" lon="9.25717">
        <ele>1016.42</ele>
        <time>2018-09-04T15:52:11Z</time>
      </trkpt>
      <trkpt lat="41.79227" lon="9.25729">
        <ele>1016.45</ele>
        <time>2018-09-04T15:52:25Z</time>
      </trkpt>
      <trkpt lat="41.79231" lon="9.25737">
        <ele>1018.27</ele>
        <time>2018-09-04T15:52:39Z</time>
      </trkpt>
      <trkpt lat="41.79232" lon="9.25751">
        <ele>1020.41</ele>
        <time>2018-09-04T15:52:57Z</time>
      </trkpt>
      <trkpt lat="41.79236" lon="9.25767">
        <ele>1022.96</ele>
        <time>2018-09-04T15:53:15Z</time>
      </trkpt>
      <trkpt lat="41.79238" lon="9.25771">
        <ele>1024.3</ele>
        <time>2018-09-04T15:53:24Z</time>
      </trkpt>
      <trkpt lat="41.79236" lon="9.25782">
        <ele>1026.11</ele>
        <time>2018-09-04T15:53:38Z</time>
      </trkpt>
      <trkpt lat="41.79245" lon="9.25786">
        <ele>1027.56</ele>
        <time>2018-09-04T15:53:52Z</time>
      </trkpt>
      <trkpt lat="41.79249" lon="9.25791">
        <ele>1027.56</ele>
        <time>2018-09-04T15:54:04Z</time>
      </trkpt>
      <trkpt lat="41.79256" lon="9.25797">
        <ele>1029.69</ele>
        <time>2018-09-04T15:54:19Z</time>
      </trkpt>
      <trkpt lat="41.79261" lon="9.25807">
        <ele>1030.46</ele>
        <time>2018-09-04T15:54:33Z</time>
      </trkpt>
      <trkpt lat="41.79265" lon="9.25809">
        <ele>1031.88</ele>
        <time>2018-09-04T15:54:39Z</time>
      </trkpt>
      <trkpt lat="41.79271" lon="9.25817">
        <ele>1033.58</ele>
        <time>2018-09-04T15:54:52Z</time>
      </trkpt>
      <trkpt lat="41.79282" lon="9.2582">
        <ele>1034.38</ele>
        <time>2018-09-04T15:55:11Z</time>
      </trkpt>
      <trkpt lat="41.79288" lon="9.2582">
        <ele>1035.93</ele>
        <time>2018-09-04T15:55:19Z</time>
      </trkpt>
      <trkpt lat="41.79298" lon="9.25817">
        <ele>1036.66</ele>
        <time>2018-09-04T15:55:33Z</time>
      </trkpt>
      <trkpt lat="41.79304" lon="9.25814">
        <ele>1036.58</ele>
        <time>2018-09-04T15:55:54Z</time>
      </trkpt>
      <trkpt lat="41.79319" lon="9.25812">
        <ele>1037.38</ele>
        <time>2018-09-04T15:56:09Z</time>
      </trkpt>
      <trkpt lat="41.7932" lon="9.25811">
        <ele>1038.27</ele>
        <time>2018-09-04T15:56:12Z</time>
      </trkpt>
      <trkpt lat="41.79335" lon="9.25801">
        <ele>1038.26</ele>
        <time>2018-09-04T15:56:28Z</time>
      </trkpt>
      <trkpt lat="41.79351" lon="9.25794">
        <ele>1038.25</ele>
        <time>2018-09-04T15:56:43Z</time>
      </trkpt>
      <trkpt lat="41.79364" lon="9.25797">
        <ele>1039.06</ele>
        <time>2018-09-04T15:56:55Z</time>
      </trkpt>
      <trkpt lat="41.79378" lon="9.25806">
        <ele>1039.08</ele>
        <time>2018-09-04T15:57:10Z</time>
      </trkpt>
      <trkpt lat="41.79387" lon="9.25808">
        <ele>1039.11</ele>
        <time>2018-09-04T15:57:23Z</time>
      </trkpt>
      <trkpt lat="41.79387" lon="9.25807">
        <ele>1040.14</ele>
        <time>2018-09-04T15:57:41Z</time>
      </trkpt>
      <trkpt lat="41.79386" lon="9.25807">
        <ele>1042.82</ele>
        <time>2018-09-04T15:58:29Z</time>
      </trkpt>
      <trkpt lat="41.79387" lon="9.25808">
        <ele>1040.5</ele>
        <time>2018-09-04T15:58:50Z</time>
      </trkpt>
      <trkpt lat="41.79387" lon="9.25806">
        <ele>1040.57</ele>
        <time>2018-09-04T15:59:56Z</time>
      </trkpt>
      <trkpt lat="41.79388" lon="9.25807">
        <ele>1039.77</ele>
        <time>2018-09-04T16:01:07Z</time>
      </trkpt>
      <trkpt lat="41.79389" lon="9.25807">
        <ele>1039.8</ele>
        <time>2018-09-04T16:01:33Z</time>
      </trkpt>
      <trkpt lat="41.79389" lon="9.25808">
        <ele>1038.31</ele>
        <time>2018-09-04T16:01:51Z</time>
      </trkpt>
      <trkpt lat="41.79386" lon="9.25807">
        <ele>1038.37</ele>
        <time>2018-09-04T16:02:20Z</time>
      </trkpt>
      <trkpt lat="41.79385" lon="9.25809">
        <ele>1038.5</ele>
        <time>2018-09-04T16:03:17Z</time>
      </trkpt>
      <trkpt lat="41.79385" lon="9.25811">
        <ele>1038.62</ele>
        <time>2018-09-04T16:03:45Z</time>
      </trkpt>
      <trkpt lat="41.79386" lon="9.25817">
        <ele>1041.1</ele>
        <time>2018-09-04T16:03:51Z</time>
      </trkpt>
      <trkpt lat="41.79389" lon="9.25822">
        <ele>1041.88</ele>
        <time>2018-09-04T16:03:57Z</time>
      </trkpt>
      <trkpt lat="41.79395" lon="9.25838">
        <ele>1042.61</ele>
        <time>2018-09-04T16:04:11Z</time>
      </trkpt>
      <trkpt lat="41.79406" lon="9.25852">
        <ele>1042.56</ele>
        <time>2018-09-04T16:04:27Z</time>
      </trkpt>
      <trkpt lat="41.7941" lon="9.25858">
        <ele>1042.63</ele>
        <time>2018-09-04T16:04:41Z</time>
      </trkpt>
      <trkpt lat="41.79416" lon="9.25866">
        <ele>1040.24</ele>
        <time>2018-09-04T16:04:57Z</time>
      </trkpt>
      <trkpt lat="41.79418" lon="9.25871">
        <ele>1039.01</ele>
        <time>2018-09-04T16:05:02Z</time>
      </trkpt>
      <trkpt lat="41.79419" lon="9.25885">
        <ele>1039.12</ele>
        <time>2018-09-04T16:05:18Z</time>
      </trkpt>
      <trkpt lat="41.79421" lon="9.259">
        <ele>1039.14</ele>
        <time>2018-09-04T16:05:36Z</time>
      </trkpt>
      <trkpt lat="41.79423" lon="9.25904">
        <ele>1041.43</ele>
        <time>2018-09-04T16:05:39Z</time>
      </trkpt>
      <trkpt lat="41.79427" lon="9.25921">
        <ele>1042.36</ele>
        <time>2018-09-04T16:05:53Z</time>
      </trkpt>
      <trkpt lat="41.79434" lon="9.2593">
        <ele>1044.79</ele>
        <time>2018-09-04T16:06:07Z</time>
      </trkpt>
      <trkpt lat="41.79441" lon="9.25935">
        <ele>1046.61</ele>
        <time>2018-09-04T16:06:24Z</time>
      </trkpt>
      <trkpt lat="41.79439" lon="9.2594">
        <ele>1046.59</ele>
        <time>2018-09-04T16:06:44Z</time>
      </trkpt>
      <trkpt lat="41.79433" lon="9.2595">
        <ele>1047.64</ele>
        <time>2018-09-04T16:06:58Z</time>
      </trkpt>
      <trkpt lat="41.7943" lon="9.25952">
        <ele>1047.63</ele>
        <time>2018-09-04T16:07:01Z</time>
      </trkpt>
      <trkpt lat="41.79423" lon="9.25953">
        <ele>1047.59</ele>
        <time>2018-09-04T16:07:10Z</time>
      </trkpt>
      <trkpt lat="41.79416" lon="9.25953">
        <ele>1047.62</ele>
        <time>2018-09-04T16:07:24Z</time>
      </trkpt>
      <trkpt lat="41.79416" lon="9.25955">
        <ele>1048.44</ele>
        <time>2018-09-04T16:07:53Z</time>
      </trkpt>
      <trkpt lat="41.79417" lon="9.25952">
        <ele>1048.44</ele>
        <time>2018-09-04T16:08:22Z</time>
      </trkpt>
      <trkpt lat="41.79417" lon="9.25952">
        <ele>1049.47</ele>
        <time>2018-09-04T16:08:40Z</time>
      </trkpt>
      <trkpt lat="41.79417" lon="9.25951">
        <ele>1047.12</ele>
        <time>2018-09-04T16:08:45Z</time>
      </trkpt>
      <trkpt lat="41.79415" lon="9.25951">
        <ele>1032.34</ele>
        <time>2018-09-04T16:09:04Z</time>
      </trkpt>
    </trkseg>
  </trk>
</gpx>